<?xml version="1.0" encoding="UTF-8" standalone="no" ?>
<gpx xmlns="http://www.topografix.com/GPX/1/1" xmlns:xsi="http://www.w3.org/2001/XMLSchema-instance" xsi:schemaLocation="http://www.topografix.com/GPX/1/1 http://www.topografix.com/GPX/1/1/gpx.xsd" version="1.1" creator="VisuGPX - https://www.visugpx.com">
  <metadata>
    <name>Villaines Clermont 2022-07-23 Evaux-Les-Bains Redonfaud</name>
  </metadata>
  <trk>
    <name><![CDATA[2022-07-23 14:54:01]]></name>
    <trkseg>
      <trkpt lat="46.17886" lon="2.48842">
        <ele>457.24</ele>
        <time>2022-07-23T05:02:04Z</time>
      </trkpt>
      <trkpt lat="46.17887" lon="2.48843">
        <ele>456.76</ele>
        <time>2022-07-23T05:02:25Z</time>
      </trkpt>
      <trkpt lat="46.17889" lon="2.48839">
        <ele>452.92</ele>
        <time>2022-07-23T05:02:43Z</time>
      </trkpt>
      <trkpt lat="46.17886" lon="2.48824">
        <ele>452.44</ele>
        <time>2022-07-23T05:02:52Z</time>
      </trkpt>
      <trkpt lat="46.17894" lon="2.48798">
        <ele>450.03</ele>
        <time>2022-07-23T05:03:11Z</time>
      </trkpt>
      <trkpt lat="46.17892" lon="2.48786">
        <ele>449.07</ele>
        <time>2022-07-23T05:03:22Z</time>
      </trkpt>
      <trkpt lat="46.17879" lon="2.48789">
        <ele>450.03</ele>
        <time>2022-07-23T05:03:35Z</time>
      </trkpt>
      <trkpt lat="46.17858" lon="2.48786">
        <ele>449.55</ele>
        <time>2022-07-23T05:03:52Z</time>
      </trkpt>
      <trkpt lat="46.17835" lon="2.48776">
        <ele>452.92</ele>
        <time>2022-07-23T05:04:11Z</time>
      </trkpt>
      <trkpt lat="46.17819" lon="2.48765">
        <ele>452.44</ele>
        <time>2022-07-23T05:04:27Z</time>
      </trkpt>
      <trkpt lat="46.17799" lon="2.48751">
        <ele>452.44</ele>
        <time>2022-07-23T05:04:47Z</time>
      </trkpt>
      <trkpt lat="46.1778" lon="2.48738">
        <ele>450.03</ele>
        <time>2022-07-23T05:05:05Z</time>
      </trkpt>
      <trkpt lat="46.17774" lon="2.48735">
        <ele>449.07</ele>
        <time>2022-07-23T05:05:23Z</time>
      </trkpt>
      <trkpt lat="46.17765" lon="2.48729">
        <ele>450.03</ele>
        <time>2022-07-23T05:05:36Z</time>
      </trkpt>
      <trkpt lat="46.17761" lon="2.48728">
        <ele>450.52</ele>
        <time>2022-07-23T05:05:39Z</time>
      </trkpt>
      <trkpt lat="46.17744" lon="2.48717">
        <ele>452.44</ele>
        <time>2022-07-23T05:05:56Z</time>
      </trkpt>
      <trkpt lat="46.17728" lon="2.48715">
        <ele>453.4</ele>
        <time>2022-07-23T05:06:13Z</time>
      </trkpt>
      <trkpt lat="46.17716" lon="2.48723">
        <ele>456.76</ele>
        <time>2022-07-23T05:06:30Z</time>
      </trkpt>
      <trkpt lat="46.17714" lon="2.48722">
        <ele>456.76</ele>
        <time>2022-07-23T05:06:32Z</time>
      </trkpt>
      <trkpt lat="46.1771" lon="2.48698">
        <ele>456.76</ele>
        <time>2022-07-23T05:06:49Z</time>
      </trkpt>
      <trkpt lat="46.17711" lon="2.48677">
        <ele>457.24</ele>
        <time>2022-07-23T05:07:02Z</time>
      </trkpt>
      <trkpt lat="46.17712" lon="2.48653">
        <ele>456.28</ele>
        <time>2022-07-23T05:07:18Z</time>
      </trkpt>
      <trkpt lat="46.17713" lon="2.48625">
        <ele>454.36</ele>
        <time>2022-07-23T05:07:35Z</time>
      </trkpt>
      <trkpt lat="46.17711" lon="2.48601">
        <ele>454.36</ele>
        <time>2022-07-23T05:07:49Z</time>
      </trkpt>
      <trkpt lat="46.17704" lon="2.48579">
        <ele>456.76</ele>
        <time>2022-07-23T05:08:06Z</time>
      </trkpt>
      <trkpt lat="46.17694" lon="2.48569">
        <ele>456.28</ele>
        <time>2022-07-23T05:08:20Z</time>
      </trkpt>
      <trkpt lat="46.17677" lon="2.48561">
        <ele>461.09</ele>
        <time>2022-07-23T05:08:34Z</time>
      </trkpt>
      <trkpt lat="46.17674" lon="2.48561">
        <ele>462.05</ele>
        <time>2022-07-23T05:08:37Z</time>
      </trkpt>
      <trkpt lat="46.17671" lon="2.48557">
        <ele>463.01</ele>
        <time>2022-07-23T05:08:41Z</time>
      </trkpt>
      <trkpt lat="46.17663" lon="2.48554">
        <ele>464.93</ele>
        <time>2022-07-23T05:08:48Z</time>
      </trkpt>
      <trkpt lat="46.17654" lon="2.48563">
        <ele>463.49</ele>
        <time>2022-07-23T05:09:00Z</time>
      </trkpt>
      <trkpt lat="46.17654" lon="2.48564">
        <ele>463.49</ele>
        <time>2022-07-23T05:09:01Z</time>
      </trkpt>
      <trkpt lat="46.17653" lon="2.48571">
        <ele>463.49</ele>
        <time>2022-07-23T05:09:06Z</time>
      </trkpt>
      <trkpt lat="46.17646" lon="2.48591">
        <ele>463.01</ele>
        <time>2022-07-23T05:09:20Z</time>
      </trkpt>
      <trkpt lat="46.17636" lon="2.48614">
        <ele>463.01</ele>
        <time>2022-07-23T05:09:37Z</time>
      </trkpt>
      <trkpt lat="46.17628" lon="2.4862">
        <ele>460.13</ele>
        <time>2022-07-23T05:09:46Z</time>
      </trkpt>
      <trkpt lat="46.17629" lon="2.48619">
        <ele>459.65</ele>
        <time>2022-07-23T05:09:59Z</time>
      </trkpt>
      <trkpt lat="46.17633" lon="2.48615">
        <ele>458.21</ele>
        <time>2022-07-23T05:10:04Z</time>
      </trkpt>
      <trkpt lat="46.17641" lon="2.48592">
        <ele>457.72</ele>
        <time>2022-07-23T05:10:20Z</time>
      </trkpt>
      <trkpt lat="46.17645" lon="2.48572">
        <ele>456.28</ele>
        <time>2022-07-23T05:10:32Z</time>
      </trkpt>
      <trkpt lat="46.1765" lon="2.4855">
        <ele>455.8</ele>
        <time>2022-07-23T05:10:46Z</time>
      </trkpt>
      <trkpt lat="46.17647" lon="2.48545">
        <ele>455.32</ele>
        <time>2022-07-23T05:10:50Z</time>
      </trkpt>
      <trkpt lat="46.17629" lon="2.48542">
        <ele>454.36</ele>
        <time>2022-07-23T05:11:07Z</time>
      </trkpt>
      <trkpt lat="46.1761" lon="2.48541">
        <ele>446.67</ele>
        <time>2022-07-23T05:11:25Z</time>
      </trkpt>
      <trkpt lat="46.17594" lon="2.48537">
        <ele>438.98</ele>
        <time>2022-07-23T05:11:40Z</time>
      </trkpt>
      <trkpt lat="46.17582" lon="2.48537">
        <ele>432.73</ele>
        <time>2022-07-23T05:11:53Z</time>
      </trkpt>
      <trkpt lat="46.1758" lon="2.48537">
        <ele>431.77</ele>
        <time>2022-07-23T05:11:55Z</time>
      </trkpt>
      <trkpt lat="46.1756" lon="2.48536">
        <ele>428.4</ele>
        <time>2022-07-23T05:12:14Z</time>
      </trkpt>
      <trkpt lat="46.17536" lon="2.48532">
        <ele>441.86</ele>
        <time>2022-07-23T05:12:31Z</time>
      </trkpt>
      <trkpt lat="46.17511" lon="2.48534">
        <ele>456.28</ele>
        <time>2022-07-23T05:12:48Z</time>
      </trkpt>
      <trkpt lat="46.17492" lon="2.48535">
        <ele>462.53</ele>
        <time>2022-07-23T05:13:05Z</time>
      </trkpt>
      <trkpt lat="46.17491" lon="2.48535">
        <ele>463.01</ele>
        <time>2022-07-23T05:13:06Z</time>
      </trkpt>
      <trkpt lat="46.17487" lon="2.48529">
        <ele>463.01</ele>
        <time>2022-07-23T05:13:11Z</time>
      </trkpt>
      <trkpt lat="46.17485" lon="2.48511">
        <ele>460.13</ele>
        <time>2022-07-23T05:13:28Z</time>
      </trkpt>
      <trkpt lat="46.17479" lon="2.48501">
        <ele>459.17</ele>
        <time>2022-07-23T05:13:36Z</time>
      </trkpt>
      <trkpt lat="46.17473" lon="2.48492">
        <ele>460.61</ele>
        <time>2022-07-23T05:13:43Z</time>
      </trkpt>
      <trkpt lat="46.17462" lon="2.48473">
        <ele>462.53</ele>
        <time>2022-07-23T05:13:59Z</time>
      </trkpt>
      <trkpt lat="46.1746" lon="2.4847">
        <ele>462.53</ele>
        <time>2022-07-23T05:14:01Z</time>
      </trkpt>
      <trkpt lat="46.17454" lon="2.48451">
        <ele>467.34</ele>
        <time>2022-07-23T05:14:13Z</time>
      </trkpt>
      <trkpt lat="46.17454" lon="2.48438">
        <ele>468.78</ele>
        <time>2022-07-23T05:14:26Z</time>
      </trkpt>
      <trkpt lat="46.1745" lon="2.48418">
        <ele>467.34</ele>
        <time>2022-07-23T05:14:40Z</time>
      </trkpt>
      <trkpt lat="46.17446" lon="2.48391">
        <ele>464.93</ele>
        <time>2022-07-23T05:14:57Z</time>
      </trkpt>
      <trkpt lat="46.17442" lon="2.48368">
        <ele>463.49</ele>
        <time>2022-07-23T05:15:12Z</time>
      </trkpt>
      <trkpt lat="46.17439" lon="2.48347">
        <ele>463.49</ele>
        <time>2022-07-23T05:15:25Z</time>
      </trkpt>
      <trkpt lat="46.17436" lon="2.48334">
        <ele>463.49</ele>
        <time>2022-07-23T05:15:33Z</time>
      </trkpt>
      <trkpt lat="46.17429" lon="2.48308">
        <ele>463.97</ele>
        <time>2022-07-23T05:15:50Z</time>
      </trkpt>
      <trkpt lat="46.17423" lon="2.48285">
        <ele>466.38</ele>
        <time>2022-07-23T05:16:05Z</time>
      </trkpt>
      <trkpt lat="46.17418" lon="2.48263">
        <ele>467.82</ele>
        <time>2022-07-23T05:16:20Z</time>
      </trkpt>
      <trkpt lat="46.17415" lon="2.48249">
        <ele>466.86</ele>
        <time>2022-07-23T05:16:32Z</time>
      </trkpt>
      <trkpt lat="46.1741" lon="2.4822">
        <ele>466.86</ele>
        <time>2022-07-23T05:16:48Z</time>
      </trkpt>
      <trkpt lat="46.17407" lon="2.48217">
        <ele>466.38</ele>
        <time>2022-07-23T05:16:51Z</time>
      </trkpt>
      <trkpt lat="46.17389" lon="2.4821">
        <ele>461.57</ele>
        <time>2022-07-23T05:17:08Z</time>
      </trkpt>
      <trkpt lat="46.17373" lon="2.48204">
        <ele>454.84</ele>
        <time>2022-07-23T05:17:24Z</time>
      </trkpt>
      <trkpt lat="46.17364" lon="2.482">
        <ele>451.96</ele>
        <time>2022-07-23T05:17:33Z</time>
      </trkpt>
      <trkpt lat="46.17344" lon="2.48197">
        <ele>448.11</ele>
        <time>2022-07-23T05:17:50Z</time>
      </trkpt>
      <trkpt lat="46.17341" lon="2.48199">
        <ele>448.11</ele>
        <time>2022-07-23T05:17:53Z</time>
      </trkpt>
      <trkpt lat="46.17331" lon="2.48204">
        <ele>450.52</ele>
        <time>2022-07-23T05:18:02Z</time>
      </trkpt>
      <trkpt lat="46.17305" lon="2.48206">
        <ele>467.34</ele>
        <time>2022-07-23T05:18:19Z</time>
      </trkpt>
      <trkpt lat="46.17287" lon="2.48209">
        <ele>469.26</ele>
        <time>2022-07-23T05:18:35Z</time>
      </trkpt>
      <trkpt lat="46.17269" lon="2.4821">
        <ele>470.22</ele>
        <time>2022-07-23T05:18:51Z</time>
      </trkpt>
      <trkpt lat="46.1725" lon="2.48206">
        <ele>468.78</ele>
        <time>2022-07-23T05:19:08Z</time>
      </trkpt>
      <trkpt lat="46.1723" lon="2.48199">
        <ele>467.34</ele>
        <time>2022-07-23T05:19:26Z</time>
      </trkpt>
      <trkpt lat="46.17208" lon="2.48193">
        <ele>468.78</ele>
        <time>2022-07-23T05:19:44Z</time>
      </trkpt>
      <trkpt lat="46.17188" lon="2.48187">
        <ele>471.18</ele>
        <time>2022-07-23T05:20:02Z</time>
      </trkpt>
      <trkpt lat="46.17168" lon="2.48179">
        <ele>471.18</ele>
        <time>2022-07-23T05:20:19Z</time>
      </trkpt>
      <trkpt lat="46.17149" lon="2.4817">
        <ele>470.7</ele>
        <time>2022-07-23T05:20:36Z</time>
      </trkpt>
      <trkpt lat="46.17132" lon="2.48163">
        <ele>470.22</ele>
        <time>2022-07-23T05:20:51Z</time>
      </trkpt>
      <trkpt lat="46.17115" lon="2.48156">
        <ele>470.22</ele>
        <time>2022-07-23T05:21:06Z</time>
      </trkpt>
      <trkpt lat="46.17095" lon="2.4815">
        <ele>469.26</ele>
        <time>2022-07-23T05:21:23Z</time>
      </trkpt>
      <trkpt lat="46.17079" lon="2.48142">
        <ele>468.3</ele>
        <time>2022-07-23T05:21:38Z</time>
      </trkpt>
      <trkpt lat="46.17059" lon="2.48134">
        <ele>470.22</ele>
        <time>2022-07-23T05:21:55Z</time>
      </trkpt>
      <trkpt lat="46.17041" lon="2.48128">
        <ele>471.18</ele>
        <time>2022-07-23T05:22:10Z</time>
      </trkpt>
      <trkpt lat="46.17017" lon="2.48123">
        <ele>473.11</ele>
        <time>2022-07-23T05:22:28Z</time>
      </trkpt>
      <trkpt lat="46.16999" lon="2.48113">
        <ele>474.55</ele>
        <time>2022-07-23T05:22:45Z</time>
      </trkpt>
      <trkpt lat="46.16978" lon="2.48108">
        <ele>476.95</ele>
        <time>2022-07-23T05:23:03Z</time>
      </trkpt>
      <trkpt lat="46.1696" lon="2.48104">
        <ele>474.55</ele>
        <time>2022-07-23T05:23:20Z</time>
      </trkpt>
      <trkpt lat="46.16942" lon="2.48101">
        <ele>473.11</ele>
        <time>2022-07-23T05:23:35Z</time>
      </trkpt>
      <trkpt lat="46.16922" lon="2.48101">
        <ele>474.07</ele>
        <time>2022-07-23T05:23:52Z</time>
      </trkpt>
      <trkpt lat="46.16903" lon="2.48098">
        <ele>475.03</ele>
        <time>2022-07-23T05:24:07Z</time>
      </trkpt>
      <trkpt lat="46.1688" lon="2.48095">
        <ele>476.47</ele>
        <time>2022-07-23T05:24:27Z</time>
      </trkpt>
      <trkpt lat="46.16855" lon="2.48093">
        <ele>476.47</ele>
        <time>2022-07-23T05:24:48Z</time>
      </trkpt>
      <trkpt lat="46.16835" lon="2.48091">
        <ele>476.95</ele>
        <time>2022-07-23T05:25:05Z</time>
      </trkpt>
      <trkpt lat="46.16816" lon="2.48089">
        <ele>475.51</ele>
        <time>2022-07-23T05:25:20Z</time>
      </trkpt>
      <trkpt lat="46.16795" lon="2.48087">
        <ele>475.99</ele>
        <time>2022-07-23T05:25:37Z</time>
      </trkpt>
      <trkpt lat="46.16772" lon="2.48084">
        <ele>476.95</ele>
        <time>2022-07-23T05:25:57Z</time>
      </trkpt>
      <trkpt lat="46.1675" lon="2.48081">
        <ele>476.47</ele>
        <time>2022-07-23T05:26:15Z</time>
      </trkpt>
      <trkpt lat="46.16728" lon="2.48078">
        <ele>473.59</ele>
        <time>2022-07-23T05:26:34Z</time>
      </trkpt>
      <trkpt lat="46.16724" lon="2.48078">
        <ele>473.59</ele>
        <time>2022-07-23T05:26:37Z</time>
      </trkpt>
      <trkpt lat="46.16696" lon="2.48075">
        <ele>474.07</ele>
        <time>2022-07-23T05:27:00Z</time>
      </trkpt>
      <trkpt lat="46.16671" lon="2.48073">
        <ele>474.07</ele>
        <time>2022-07-23T05:27:20Z</time>
      </trkpt>
      <trkpt lat="46.16647" lon="2.4807">
        <ele>474.07</ele>
        <time>2022-07-23T05:27:41Z</time>
      </trkpt>
      <trkpt lat="46.16624" lon="2.48068">
        <ele>474.55</ele>
        <time>2022-07-23T05:28:01Z</time>
      </trkpt>
      <trkpt lat="46.16613" lon="2.48053">
        <ele>475.99</ele>
        <time>2022-07-23T05:28:14Z</time>
      </trkpt>
      <trkpt lat="46.16609" lon="2.48045">
        <ele>475.99</ele>
        <time>2022-07-23T05:28:20Z</time>
      </trkpt>
      <trkpt lat="46.1659" lon="2.48025">
        <ele>475.51</ele>
        <time>2022-07-23T05:28:39Z</time>
      </trkpt>
      <trkpt lat="46.16573" lon="2.48009">
        <ele>476.47</ele>
        <time>2022-07-23T05:28:55Z</time>
      </trkpt>
      <trkpt lat="46.16554" lon="2.47993">
        <ele>475.99</ele>
        <time>2022-07-23T05:29:14Z</time>
      </trkpt>
      <trkpt lat="46.16534" lon="2.47977">
        <ele>475.03</ele>
        <time>2022-07-23T05:29:33Z</time>
      </trkpt>
      <trkpt lat="46.16518" lon="2.47965">
        <ele>476.47</ele>
        <time>2022-07-23T05:29:48Z</time>
      </trkpt>
      <trkpt lat="46.16498" lon="2.47949">
        <ele>475.99</ele>
        <time>2022-07-23T05:30:08Z</time>
      </trkpt>
      <trkpt lat="46.16483" lon="2.47926">
        <ele>475.99</ele>
        <time>2022-07-23T05:30:26Z</time>
      </trkpt>
      <trkpt lat="46.16474" lon="2.47897">
        <ele>476.47</ele>
        <time>2022-07-23T05:30:44Z</time>
      </trkpt>
      <trkpt lat="46.16463" lon="2.47877">
        <ele>477.91</ele>
        <time>2022-07-23T05:30:59Z</time>
      </trkpt>
      <trkpt lat="46.16447" lon="2.47874">
        <ele>478.39</ele>
        <time>2022-07-23T05:31:13Z</time>
      </trkpt>
      <trkpt lat="46.16429" lon="2.47886">
        <ele>476.95</ele>
        <time>2022-07-23T05:31:30Z</time>
      </trkpt>
      <trkpt lat="46.1641" lon="2.47891">
        <ele>476.95</ele>
        <time>2022-07-23T05:31:47Z</time>
      </trkpt>
      <trkpt lat="46.1639" lon="2.47885">
        <ele>476.47</ele>
        <time>2022-07-23T05:32:04Z</time>
      </trkpt>
      <trkpt lat="46.16367" lon="2.47871">
        <ele>478.39</ele>
        <time>2022-07-23T05:32:24Z</time>
      </trkpt>
      <trkpt lat="46.16347" lon="2.47862">
        <ele>479.35</ele>
        <time>2022-07-23T05:32:42Z</time>
      </trkpt>
      <trkpt lat="46.16328" lon="2.47852">
        <ele>480.8</ele>
        <time>2022-07-23T05:32:59Z</time>
      </trkpt>
      <trkpt lat="46.16305" lon="2.47842">
        <ele>479.84</ele>
        <time>2022-07-23T05:33:20Z</time>
      </trkpt>
      <trkpt lat="46.16287" lon="2.47835">
        <ele>478.87</ele>
        <time>2022-07-23T05:33:36Z</time>
      </trkpt>
      <trkpt lat="46.16264" lon="2.47827">
        <ele>478.39</ele>
        <time>2022-07-23T05:33:55Z</time>
      </trkpt>
      <trkpt lat="46.16238" lon="2.47814">
        <ele>477.43</ele>
        <time>2022-07-23T05:34:19Z</time>
      </trkpt>
      <trkpt lat="46.16216" lon="2.47803">
        <ele>476.95</ele>
        <time>2022-07-23T05:34:38Z</time>
      </trkpt>
      <trkpt lat="46.16192" lon="2.47792">
        <ele>475.99</ele>
        <time>2022-07-23T05:34:59Z</time>
      </trkpt>
      <trkpt lat="46.16172" lon="2.47786">
        <ele>475.99</ele>
        <time>2022-07-23T05:35:16Z</time>
      </trkpt>
      <trkpt lat="46.16149" lon="2.47776">
        <ele>474.55</ele>
        <time>2022-07-23T05:35:36Z</time>
      </trkpt>
      <trkpt lat="46.16125" lon="2.47763">
        <ele>474.07</ele>
        <time>2022-07-23T05:35:58Z</time>
      </trkpt>
      <trkpt lat="46.16099" lon="2.47753">
        <ele>473.11</ele>
        <time>2022-07-23T05:36:21Z</time>
      </trkpt>
      <trkpt lat="46.16078" lon="2.47748">
        <ele>473.59</ele>
        <time>2022-07-23T05:36:39Z</time>
      </trkpt>
      <trkpt lat="46.16057" lon="2.47743">
        <ele>475.51</ele>
        <time>2022-07-23T05:36:56Z</time>
      </trkpt>
      <trkpt lat="46.16032" lon="2.47735">
        <ele>475.03</ele>
        <time>2022-07-23T05:37:17Z</time>
      </trkpt>
      <trkpt lat="46.16013" lon="2.47725">
        <ele>475.99</ele>
        <time>2022-07-23T05:37:34Z</time>
      </trkpt>
      <trkpt lat="46.15996" lon="2.47709">
        <ele>476.95</ele>
        <time>2022-07-23T05:37:52Z</time>
      </trkpt>
      <trkpt lat="46.15986" lon="2.47686">
        <ele>475.99</ele>
        <time>2022-07-23T05:38:09Z</time>
      </trkpt>
      <trkpt lat="46.15972" lon="2.47668">
        <ele>475.99</ele>
        <time>2022-07-23T05:38:24Z</time>
      </trkpt>
      <trkpt lat="46.15958" lon="2.47654">
        <ele>475.99</ele>
        <time>2022-07-23T05:38:39Z</time>
      </trkpt>
      <trkpt lat="46.15945" lon="2.47645">
        <ele>476.95</ele>
        <time>2022-07-23T05:38:52Z</time>
      </trkpt>
      <trkpt lat="46.15944" lon="2.47644">
        <ele>476.95</ele>
        <time>2022-07-23T05:38:53Z</time>
      </trkpt>
      <trkpt lat="46.15941" lon="2.47642">
        <ele>476.95</ele>
        <time>2022-07-23T05:38:56Z</time>
      </trkpt>
      <trkpt lat="46.15927" lon="2.47634">
        <ele>476.47</ele>
        <time>2022-07-23T05:39:09Z</time>
      </trkpt>
      <trkpt lat="46.15917" lon="2.47629">
        <ele>476.95</ele>
        <time>2022-07-23T05:39:18Z</time>
      </trkpt>
      <trkpt lat="46.15899" lon="2.47618">
        <ele>475.99</ele>
        <time>2022-07-23T05:39:36Z</time>
      </trkpt>
      <trkpt lat="46.15884" lon="2.47609">
        <ele>475.99</ele>
        <time>2022-07-23T05:39:50Z</time>
      </trkpt>
      <trkpt lat="46.15864" lon="2.47595">
        <ele>478.39</ele>
        <time>2022-07-23T05:40:08Z</time>
      </trkpt>
      <trkpt lat="46.15844" lon="2.47584">
        <ele>481.28</ele>
        <time>2022-07-23T05:40:25Z</time>
      </trkpt>
      <trkpt lat="46.15829" lon="2.47575">
        <ele>480.32</ele>
        <time>2022-07-23T05:40:40Z</time>
      </trkpt>
      <trkpt lat="46.15814" lon="2.47567">
        <ele>481.28</ele>
        <time>2022-07-23T05:40:54Z</time>
      </trkpt>
      <trkpt lat="46.15796" lon="2.47556">
        <ele>483.2</ele>
        <time>2022-07-23T05:41:09Z</time>
      </trkpt>
      <trkpt lat="46.1578" lon="2.4754">
        <ele>484.64</ele>
        <time>2022-07-23T05:41:25Z</time>
      </trkpt>
      <trkpt lat="46.15759" lon="2.47519">
        <ele>485.12</ele>
        <time>2022-07-23T05:41:46Z</time>
      </trkpt>
      <trkpt lat="46.15742" lon="2.47503">
        <ele>487.53</ele>
        <time>2022-07-23T05:42:04Z</time>
      </trkpt>
      <trkpt lat="46.15726" lon="2.47487">
        <ele>488.49</ele>
        <time>2022-07-23T05:42:20Z</time>
      </trkpt>
      <trkpt lat="46.1571" lon="2.47471">
        <ele>488.49</ele>
        <time>2022-07-23T05:42:37Z</time>
      </trkpt>
      <trkpt lat="46.15691" lon="2.47454">
        <ele>487.53</ele>
        <time>2022-07-23T05:42:55Z</time>
      </trkpt>
      <trkpt lat="46.15674" lon="2.47434">
        <ele>488.97</ele>
        <time>2022-07-23T05:43:14Z</time>
      </trkpt>
      <trkpt lat="46.15661" lon="2.4742">
        <ele>491.37</ele>
        <time>2022-07-23T05:43:29Z</time>
      </trkpt>
      <trkpt lat="46.15658" lon="2.47416">
        <ele>491.37</ele>
        <time>2022-07-23T05:43:32Z</time>
      </trkpt>
      <trkpt lat="46.15654" lon="2.47413">
        <ele>490.41</ele>
        <time>2022-07-23T05:43:36Z</time>
      </trkpt>
      <trkpt lat="46.15636" lon="2.47394">
        <ele>490.41</ele>
        <time>2022-07-23T05:43:54Z</time>
      </trkpt>
      <trkpt lat="46.15616" lon="2.47375">
        <ele>489.93</ele>
        <time>2022-07-23T05:44:14Z</time>
      </trkpt>
      <trkpt lat="46.15595" lon="2.47355">
        <ele>488.01</ele>
        <time>2022-07-23T05:44:35Z</time>
      </trkpt>
      <trkpt lat="46.15575" lon="2.47342">
        <ele>486.56</ele>
        <time>2022-07-23T05:44:54Z</time>
      </trkpt>
      <trkpt lat="46.15558" lon="2.47336">
        <ele>486.56</ele>
        <time>2022-07-23T05:45:09Z</time>
      </trkpt>
      <trkpt lat="46.15538" lon="2.47327">
        <ele>485.12</ele>
        <time>2022-07-23T05:45:27Z</time>
      </trkpt>
      <trkpt lat="46.15516" lon="2.47319">
        <ele>484.64</ele>
        <time>2022-07-23T05:45:47Z</time>
      </trkpt>
      <trkpt lat="46.15497" lon="2.47312">
        <ele>483.2</ele>
        <time>2022-07-23T05:46:04Z</time>
      </trkpt>
      <trkpt lat="46.15477" lon="2.47307">
        <ele>483.2</ele>
        <time>2022-07-23T05:46:22Z</time>
      </trkpt>
      <trkpt lat="46.15455" lon="2.47299">
        <ele>481.28</ele>
        <time>2022-07-23T05:46:39Z</time>
      </trkpt>
      <trkpt lat="46.15437" lon="2.47293">
        <ele>480.32</ele>
        <time>2022-07-23T05:46:55Z</time>
      </trkpt>
      <trkpt lat="46.15423" lon="2.47286">
        <ele>480.32</ele>
        <time>2022-07-23T05:47:12Z</time>
      </trkpt>
      <trkpt lat="46.15423" lon="2.47282">
        <ele>479.35</ele>
        <time>2022-07-23T05:47:35Z</time>
      </trkpt>
      <trkpt lat="46.1541" lon="2.47281">
        <ele>478.87</ele>
        <time>2022-07-23T05:47:49Z</time>
      </trkpt>
      <trkpt lat="46.15389" lon="2.47273">
        <ele>478.39</ele>
        <time>2022-07-23T05:48:07Z</time>
      </trkpt>
      <trkpt lat="46.15367" lon="2.47265">
        <ele>475.51</ele>
        <time>2022-07-23T05:48:26Z</time>
      </trkpt>
      <trkpt lat="46.15345" lon="2.47257">
        <ele>476.95</ele>
        <time>2022-07-23T05:48:45Z</time>
      </trkpt>
      <trkpt lat="46.15326" lon="2.47251">
        <ele>477.43</ele>
        <time>2022-07-23T05:49:02Z</time>
      </trkpt>
      <trkpt lat="46.15324" lon="2.47248">
        <ele>477.91</ele>
        <time>2022-07-23T05:49:15Z</time>
      </trkpt>
      <trkpt lat="46.15325" lon="2.4724">
        <ele>476.95</ele>
        <time>2022-07-23T05:49:30Z</time>
      </trkpt>
      <trkpt lat="46.15331" lon="2.47228">
        <ele>476.47</ele>
        <time>2022-07-23T05:49:42Z</time>
      </trkpt>
      <trkpt lat="46.15333" lon="2.47226">
        <ele>475.99</ele>
        <time>2022-07-23T05:49:45Z</time>
      </trkpt>
      <trkpt lat="46.15344" lon="2.47207">
        <ele>473.59</ele>
        <time>2022-07-23T05:50:04Z</time>
      </trkpt>
      <trkpt lat="46.15354" lon="2.47191">
        <ele>472.14</ele>
        <time>2022-07-23T05:50:19Z</time>
      </trkpt>
      <trkpt lat="46.15359" lon="2.47188">
        <ele>475.51</ele>
        <time>2022-07-23T05:50:55Z</time>
      </trkpt>
      <trkpt lat="46.15373" lon="2.47172">
        <ele>473.11</ele>
        <time>2022-07-23T05:51:12Z</time>
      </trkpt>
      <trkpt lat="46.15385" lon="2.47162">
        <ele>473.11</ele>
        <time>2022-07-23T05:51:25Z</time>
      </trkpt>
      <trkpt lat="46.15398" lon="2.4715">
        <ele>470.7</ele>
        <time>2022-07-23T05:51:38Z</time>
      </trkpt>
      <trkpt lat="46.15408" lon="2.47139">
        <ele>469.26</ele>
        <time>2022-07-23T05:51:49Z</time>
      </trkpt>
      <trkpt lat="46.15425" lon="2.47127">
        <ele>465.9</ele>
        <time>2022-07-23T05:52:07Z</time>
      </trkpt>
      <trkpt lat="46.1543" lon="2.47126">
        <ele>466.38</ele>
        <time>2022-07-23T05:52:21Z</time>
      </trkpt>
      <trkpt lat="46.15432" lon="2.47127">
        <ele>468.3</ele>
        <time>2022-07-23T05:52:39Z</time>
      </trkpt>
      <trkpt lat="46.15442" lon="2.47111">
        <ele>467.34</ele>
        <time>2022-07-23T05:52:55Z</time>
      </trkpt>
      <trkpt lat="46.15452" lon="2.47093">
        <ele>464.45</ele>
        <time>2022-07-23T05:53:11Z</time>
      </trkpt>
      <trkpt lat="46.15462" lon="2.47073">
        <ele>462.05</ele>
        <time>2022-07-23T05:53:27Z</time>
      </trkpt>
      <trkpt lat="46.15473" lon="2.47056">
        <ele>460.61</ele>
        <time>2022-07-23T05:53:43Z</time>
      </trkpt>
      <trkpt lat="46.15484" lon="2.47036">
        <ele>458.21</ele>
        <time>2022-07-23T05:54:00Z</time>
      </trkpt>
      <trkpt lat="46.15492" lon="2.47017">
        <ele>458.21</ele>
        <time>2022-07-23T05:54:14Z</time>
      </trkpt>
      <trkpt lat="46.15504" lon="2.46992">
        <ele>460.13</ele>
        <time>2022-07-23T05:54:32Z</time>
      </trkpt>
      <trkpt lat="46.15515" lon="2.46974">
        <ele>461.09</ele>
        <time>2022-07-23T05:54:47Z</time>
      </trkpt>
      <trkpt lat="46.15525" lon="2.46952">
        <ele>459.65</ele>
        <time>2022-07-23T05:55:05Z</time>
      </trkpt>
      <trkpt lat="46.15529" lon="2.46944">
        <ele>458.21</ele>
        <time>2022-07-23T05:55:13Z</time>
      </trkpt>
      <trkpt lat="46.15533" lon="2.46934">
        <ele>458.69</ele>
        <time>2022-07-23T05:55:27Z</time>
      </trkpt>
      <trkpt lat="46.15541" lon="2.4692">
        <ele>456.28</ele>
        <time>2022-07-23T05:55:40Z</time>
      </trkpt>
      <trkpt lat="46.15552" lon="2.46908">
        <ele>453.4</ele>
        <time>2022-07-23T05:55:56Z</time>
      </trkpt>
      <trkpt lat="46.15553" lon="2.46906">
        <ele>453.4</ele>
        <time>2022-07-23T05:55:58Z</time>
      </trkpt>
      <trkpt lat="46.15562" lon="2.46895">
        <ele>451.96</ele>
        <time>2022-07-23T05:56:14Z</time>
      </trkpt>
      <trkpt lat="46.1557" lon="2.46883">
        <ele>452.44</ele>
        <time>2022-07-23T05:56:26Z</time>
      </trkpt>
      <trkpt lat="46.15586" lon="2.46863">
        <ele>451.48</ele>
        <time>2022-07-23T05:56:43Z</time>
      </trkpt>
      <trkpt lat="46.15601" lon="2.4684">
        <ele>451.48</ele>
        <time>2022-07-23T05:57:01Z</time>
      </trkpt>
      <trkpt lat="46.15613" lon="2.46823">
        <ele>451</ele>
        <time>2022-07-23T05:57:15Z</time>
      </trkpt>
      <trkpt lat="46.15619" lon="2.46812">
        <ele>450.52</ele>
        <time>2022-07-23T05:57:24Z</time>
      </trkpt>
      <trkpt lat="46.15621" lon="2.46806">
        <ele>450.52</ele>
        <time>2022-07-23T05:57:28Z</time>
      </trkpt>
      <trkpt lat="46.15634" lon="2.46785">
        <ele>451.48</ele>
        <time>2022-07-23T05:57:44Z</time>
      </trkpt>
      <trkpt lat="46.15649" lon="2.46763">
        <ele>451.96</ele>
        <time>2022-07-23T05:58:02Z</time>
      </trkpt>
      <trkpt lat="46.15663" lon="2.46742">
        <ele>453.88</ele>
        <time>2022-07-23T05:58:19Z</time>
      </trkpt>
      <trkpt lat="46.15676" lon="2.4673">
        <ele>454.36</ele>
        <time>2022-07-23T05:58:33Z</time>
      </trkpt>
      <trkpt lat="46.15689" lon="2.46716">
        <ele>452.92</ele>
        <time>2022-07-23T05:58:50Z</time>
      </trkpt>
      <trkpt lat="46.15703" lon="2.46702">
        <ele>452.44</ele>
        <time>2022-07-23T05:59:06Z</time>
      </trkpt>
      <trkpt lat="46.15705" lon="2.46701">
        <ele>452.44</ele>
        <time>2022-07-23T05:59:08Z</time>
      </trkpt>
      <trkpt lat="46.15725" lon="2.46682">
        <ele>452.44</ele>
        <time>2022-07-23T05:59:27Z</time>
      </trkpt>
      <trkpt lat="46.15734" lon="2.46674">
        <ele>452.44</ele>
        <time>2022-07-23T05:59:36Z</time>
      </trkpt>
      <trkpt lat="46.15746" lon="2.46664">
        <ele>452.44</ele>
        <time>2022-07-23T05:59:48Z</time>
      </trkpt>
      <trkpt lat="46.15764" lon="2.46649">
        <ele>453.4</ele>
        <time>2022-07-23T06:00:07Z</time>
      </trkpt>
      <trkpt lat="46.15778" lon="2.46638">
        <ele>452.44</ele>
        <time>2022-07-23T06:00:22Z</time>
      </trkpt>
      <trkpt lat="46.15795" lon="2.46622">
        <ele>452.92</ele>
        <time>2022-07-23T06:00:41Z</time>
      </trkpt>
      <trkpt lat="46.15813" lon="2.46607">
        <ele>452.92</ele>
        <time>2022-07-23T06:00:59Z</time>
      </trkpt>
      <trkpt lat="46.15828" lon="2.46598">
        <ele>451</ele>
        <time>2022-07-23T06:01:15Z</time>
      </trkpt>
      <trkpt lat="46.15843" lon="2.46589">
        <ele>451</ele>
        <time>2022-07-23T06:01:30Z</time>
      </trkpt>
      <trkpt lat="46.15863" lon="2.4658">
        <ele>451.96</ele>
        <time>2022-07-23T06:01:48Z</time>
      </trkpt>
      <trkpt lat="46.15879" lon="2.46583">
        <ele>452.92</ele>
        <time>2022-07-23T06:02:05Z</time>
      </trkpt>
      <trkpt lat="46.15881" lon="2.46583">
        <ele>452.92</ele>
        <time>2022-07-23T06:02:06Z</time>
      </trkpt>
      <trkpt lat="46.15886" lon="2.46581">
        <ele>453.4</ele>
        <time>2022-07-23T06:02:21Z</time>
      </trkpt>
      <trkpt lat="46.15887" lon="2.46579">
        <ele>453.88</ele>
        <time>2022-07-23T06:02:25Z</time>
      </trkpt>
      <trkpt lat="46.15904" lon="2.46556">
        <ele>454.84</ele>
        <time>2022-07-23T06:02:45Z</time>
      </trkpt>
      <trkpt lat="46.15919" lon="2.46538">
        <ele>455.8</ele>
        <time>2022-07-23T06:03:02Z</time>
      </trkpt>
      <trkpt lat="46.15933" lon="2.46508">
        <ele>452.44</ele>
        <time>2022-07-23T06:03:22Z</time>
      </trkpt>
      <trkpt lat="46.1594" lon="2.46475">
        <ele>447.63</ele>
        <time>2022-07-23T06:03:44Z</time>
      </trkpt>
      <trkpt lat="46.1594" lon="2.46473">
        <ele>447.63</ele>
        <time>2022-07-23T06:03:45Z</time>
      </trkpt>
      <trkpt lat="46.1594" lon="2.46454">
        <ele>446.19</ele>
        <time>2022-07-23T06:03:58Z</time>
      </trkpt>
      <trkpt lat="46.15946" lon="2.46442">
        <ele>444.27</ele>
        <time>2022-07-23T06:04:08Z</time>
      </trkpt>
      <trkpt lat="46.15965" lon="2.46425">
        <ele>441.38</ele>
        <time>2022-07-23T06:04:27Z</time>
      </trkpt>
      <trkpt lat="46.15989" lon="2.46401">
        <ele>439.94</ele>
        <time>2022-07-23T06:04:49Z</time>
      </trkpt>
      <trkpt lat="46.16006" lon="2.46385">
        <ele>438.5</ele>
        <time>2022-07-23T06:05:06Z</time>
      </trkpt>
      <trkpt lat="46.16028" lon="2.46364">
        <ele>436.58</ele>
        <time>2022-07-23T06:05:28Z</time>
      </trkpt>
      <trkpt lat="46.1604" lon="2.46342">
        <ele>435.61</ele>
        <time>2022-07-23T06:05:45Z</time>
      </trkpt>
      <trkpt lat="46.16048" lon="2.46306">
        <ele>434.17</ele>
        <time>2022-07-23T06:06:07Z</time>
      </trkpt>
      <trkpt lat="46.16064" lon="2.46277">
        <ele>432.25</ele>
        <time>2022-07-23T06:06:28Z</time>
      </trkpt>
      <trkpt lat="46.16077" lon="2.46255">
        <ele>431.29</ele>
        <time>2022-07-23T06:06:45Z</time>
      </trkpt>
      <trkpt lat="46.16089" lon="2.46229">
        <ele>430.33</ele>
        <time>2022-07-23T06:07:03Z</time>
      </trkpt>
      <trkpt lat="46.16093" lon="2.46216">
        <ele>431.29</ele>
        <time>2022-07-23T06:07:11Z</time>
      </trkpt>
      <trkpt lat="46.16096" lon="2.46187">
        <ele>431.29</ele>
        <time>2022-07-23T06:07:29Z</time>
      </trkpt>
      <trkpt lat="46.1609" lon="2.46154">
        <ele>432.25</ele>
        <time>2022-07-23T06:07:49Z</time>
      </trkpt>
      <trkpt lat="46.16077" lon="2.46129">
        <ele>432.25</ele>
        <time>2022-07-23T06:08:08Z</time>
      </trkpt>
      <trkpt lat="46.16055" lon="2.4612">
        <ele>429.85</ele>
        <time>2022-07-23T06:08:28Z</time>
      </trkpt>
      <trkpt lat="46.16032" lon="2.46118">
        <ele>427.44</ele>
        <time>2022-07-23T06:08:47Z</time>
      </trkpt>
      <trkpt lat="46.16009" lon="2.46116">
        <ele>426</ele>
        <time>2022-07-23T06:09:06Z</time>
      </trkpt>
      <trkpt lat="46.16005" lon="2.46114">
        <ele>426.96</ele>
        <time>2022-07-23T06:09:18Z</time>
      </trkpt>
      <trkpt lat="46.16004" lon="2.46111">
        <ele>426.96</ele>
        <time>2022-07-23T06:09:40Z</time>
      </trkpt>
      <trkpt lat="46.15996" lon="2.46113">
        <ele>426.48</ele>
        <time>2022-07-23T06:10:03Z</time>
      </trkpt>
      <trkpt lat="46.15992" lon="2.46113">
        <ele>428.89</ele>
        <time>2022-07-23T06:10:18Z</time>
      </trkpt>
      <trkpt lat="46.15994" lon="2.46114">
        <ele>428.4</ele>
        <time>2022-07-23T06:10:33Z</time>
      </trkpt>
      <trkpt lat="46.15998" lon="2.46114">
        <ele>428.89</ele>
        <time>2022-07-23T06:10:49Z</time>
      </trkpt>
      <trkpt lat="46.16" lon="2.46113">
        <ele>429.37</ele>
        <time>2022-07-23T06:10:52Z</time>
      </trkpt>
      <trkpt lat="46.16019" lon="2.46115">
        <ele>431.29</ele>
        <time>2022-07-23T06:11:11Z</time>
      </trkpt>
      <trkpt lat="46.16036" lon="2.46115">
        <ele>430.81</ele>
        <time>2022-07-23T06:11:24Z</time>
      </trkpt>
      <trkpt lat="46.16055" lon="2.46118">
        <ele>430.33</ele>
        <time>2022-07-23T06:11:40Z</time>
      </trkpt>
      <trkpt lat="46.16072" lon="2.46125">
        <ele>429.37</ele>
        <time>2022-07-23T06:11:54Z</time>
      </trkpt>
      <trkpt lat="46.16085" lon="2.46138">
        <ele>430.33</ele>
        <time>2022-07-23T06:12:08Z</time>
      </trkpt>
      <trkpt lat="46.16096" lon="2.46159">
        <ele>430.81</ele>
        <time>2022-07-23T06:12:23Z</time>
      </trkpt>
      <trkpt lat="46.16099" lon="2.46181">
        <ele>431.77</ele>
        <time>2022-07-23T06:12:36Z</time>
      </trkpt>
      <trkpt lat="46.16099" lon="2.46199">
        <ele>432.73</ele>
        <time>2022-07-23T06:12:49Z</time>
      </trkpt>
      <trkpt lat="46.16094" lon="2.46223">
        <ele>434.17</ele>
        <time>2022-07-23T06:13:03Z</time>
      </trkpt>
      <trkpt lat="46.16096" lon="2.46231">
        <ele>431.29</ele>
        <time>2022-07-23T06:13:16Z</time>
      </trkpt>
      <trkpt lat="46.16095" lon="2.46225">
        <ele>429.85</ele>
        <time>2022-07-23T06:13:39Z</time>
      </trkpt>
      <trkpt lat="46.16098" lon="2.46217">
        <ele>430.33</ele>
        <time>2022-07-23T06:13:47Z</time>
      </trkpt>
      <trkpt lat="46.16105" lon="2.4619">
        <ele>429.85</ele>
        <time>2022-07-23T06:14:05Z</time>
      </trkpt>
      <trkpt lat="46.16108" lon="2.4617">
        <ele>429.85</ele>
        <time>2022-07-23T06:14:17Z</time>
      </trkpt>
      <trkpt lat="46.16109" lon="2.46168">
        <ele>429.37</ele>
        <time>2022-07-23T06:14:28Z</time>
      </trkpt>
      <trkpt lat="46.1611" lon="2.46154">
        <ele>426</ele>
        <time>2022-07-23T06:14:46Z</time>
      </trkpt>
      <trkpt lat="46.16107" lon="2.46136">
        <ele>426</ele>
        <time>2022-07-23T06:15:00Z</time>
      </trkpt>
      <trkpt lat="46.16107" lon="2.4613">
        <ele>425.52</ele>
        <time>2022-07-23T06:15:07Z</time>
      </trkpt>
      <trkpt lat="46.16097" lon="2.46108">
        <ele>424.56</ele>
        <time>2022-07-23T06:15:22Z</time>
      </trkpt>
      <trkpt lat="46.16082" lon="2.46098">
        <ele>421.19</ele>
        <time>2022-07-23T06:15:37Z</time>
      </trkpt>
      <trkpt lat="46.16062" lon="2.46089">
        <ele>418.31</ele>
        <time>2022-07-23T06:15:55Z</time>
      </trkpt>
      <trkpt lat="46.16061" lon="2.46088">
        <ele>418.31</ele>
        <time>2022-07-23T06:15:56Z</time>
      </trkpt>
      <trkpt lat="46.16043" lon="2.46087">
        <ele>413.98</ele>
        <time>2022-07-23T06:16:11Z</time>
      </trkpt>
      <trkpt lat="46.16025" lon="2.46085">
        <ele>412.54</ele>
        <time>2022-07-23T06:16:26Z</time>
      </trkpt>
      <trkpt lat="46.16012" lon="2.46083">
        <ele>408.7</ele>
        <time>2022-07-23T06:16:40Z</time>
      </trkpt>
      <trkpt lat="46.16005" lon="2.46082">
        <ele>407.26</ele>
        <time>2022-07-23T06:16:45Z</time>
      </trkpt>
      <trkpt lat="46.16004" lon="2.46082">
        <ele>407.26</ele>
        <time>2022-07-23T06:16:46Z</time>
      </trkpt>
      <trkpt lat="46.15984" lon="2.46078">
        <ele>406.29</ele>
        <time>2022-07-23T06:17:02Z</time>
      </trkpt>
      <trkpt lat="46.15973" lon="2.46076">
        <ele>405.81</ele>
        <time>2022-07-23T06:17:11Z</time>
      </trkpt>
      <trkpt lat="46.15972" lon="2.46075">
        <ele>405.33</ele>
        <time>2022-07-23T06:17:12Z</time>
      </trkpt>
      <trkpt lat="46.1597" lon="2.46075">
        <ele>405.33</ele>
        <time>2022-07-23T06:17:13Z</time>
      </trkpt>
      <trkpt lat="46.15969" lon="2.46074">
        <ele>405.33</ele>
        <time>2022-07-23T06:17:14Z</time>
      </trkpt>
      <trkpt lat="46.15966" lon="2.46075">
        <ele>405.33</ele>
        <time>2022-07-23T06:17:16Z</time>
      </trkpt>
      <trkpt lat="46.1595" lon="2.46071">
        <ele>404.85</ele>
        <time>2022-07-23T06:17:31Z</time>
      </trkpt>
      <trkpt lat="46.15935" lon="2.46066">
        <ele>403.41</ele>
        <time>2022-07-23T06:17:45Z</time>
      </trkpt>
      <trkpt lat="46.15916" lon="2.46061">
        <ele>401.49</ele>
        <time>2022-07-23T06:18:02Z</time>
      </trkpt>
      <trkpt lat="46.15915" lon="2.4606">
        <ele>401.01</ele>
        <time>2022-07-23T06:18:03Z</time>
      </trkpt>
      <trkpt lat="46.15913" lon="2.46051">
        <ele>401.01</ele>
        <time>2022-07-23T06:18:10Z</time>
      </trkpt>
      <trkpt lat="46.1592" lon="2.46036">
        <ele>401.01</ele>
        <time>2022-07-23T06:18:24Z</time>
      </trkpt>
      <trkpt lat="46.15921" lon="2.46036">
        <ele>401.01</ele>
        <time>2022-07-23T06:18:25Z</time>
      </trkpt>
      <trkpt lat="46.15929" lon="2.46036">
        <ele>401.97</ele>
        <time>2022-07-23T06:18:40Z</time>
      </trkpt>
      <trkpt lat="46.15934" lon="2.46032">
        <ele>404.85</ele>
        <time>2022-07-23T06:18:55Z</time>
      </trkpt>
      <trkpt lat="46.15936" lon="2.46031">
        <ele>403.89</ele>
        <time>2022-07-23T06:19:14Z</time>
      </trkpt>
      <trkpt lat="46.15939" lon="2.46026">
        <ele>407.74</ele>
        <time>2022-07-23T06:19:26Z</time>
      </trkpt>
      <trkpt lat="46.15943" lon="2.46026">
        <ele>408.7</ele>
        <time>2022-07-23T06:19:51Z</time>
      </trkpt>
      <trkpt lat="46.15955" lon="2.46026">
        <ele>408.7</ele>
        <time>2022-07-23T06:20:05Z</time>
      </trkpt>
      <trkpt lat="46.15959" lon="2.46021">
        <ele>408.22</ele>
        <time>2022-07-23T06:20:10Z</time>
      </trkpt>
      <trkpt lat="46.15969" lon="2.46004">
        <ele>409.66</ele>
        <time>2022-07-23T06:20:24Z</time>
      </trkpt>
      <trkpt lat="46.15977" lon="2.45988">
        <ele>410.14</ele>
        <time>2022-07-23T06:20:37Z</time>
      </trkpt>
      <trkpt lat="46.15983" lon="2.45966">
        <ele>413.02</ele>
        <time>2022-07-23T06:20:53Z</time>
      </trkpt>
      <trkpt lat="46.15989" lon="2.4595">
        <ele>418.79</ele>
        <time>2022-07-23T06:21:07Z</time>
      </trkpt>
      <trkpt lat="46.15992" lon="2.45934">
        <ele>421.68</ele>
        <time>2022-07-23T06:21:20Z</time>
      </trkpt>
      <trkpt lat="46.15994" lon="2.45925">
        <ele>423.6</ele>
        <time>2022-07-23T06:21:27Z</time>
      </trkpt>
      <trkpt lat="46.15994" lon="2.45923">
        <ele>423.12</ele>
        <time>2022-07-23T06:21:28Z</time>
      </trkpt>
      <trkpt lat="46.15999" lon="2.45915">
        <ele>423.12</ele>
        <time>2022-07-23T06:21:36Z</time>
      </trkpt>
      <trkpt lat="46.16003" lon="2.45901">
        <ele>421.19</ele>
        <time>2022-07-23T06:21:47Z</time>
      </trkpt>
      <trkpt lat="46.1601" lon="2.45879">
        <ele>418.79</ele>
        <time>2022-07-23T06:22:05Z</time>
      </trkpt>
      <trkpt lat="46.16018" lon="2.45867">
        <ele>419.75</ele>
        <time>2022-07-23T06:22:16Z</time>
      </trkpt>
      <trkpt lat="46.16031" lon="2.4586">
        <ele>421.19</ele>
        <time>2022-07-23T06:22:30Z</time>
      </trkpt>
      <trkpt lat="46.16049" lon="2.45853">
        <ele>425.52</ele>
        <time>2022-07-23T06:22:47Z</time>
      </trkpt>
      <trkpt lat="46.16065" lon="2.45846">
        <ele>426.96</ele>
        <time>2022-07-23T06:23:02Z</time>
      </trkpt>
      <trkpt lat="46.16082" lon="2.45838">
        <ele>427.92</ele>
        <time>2022-07-23T06:23:18Z</time>
      </trkpt>
      <trkpt lat="46.16103" lon="2.45828">
        <ele>429.37</ele>
        <time>2022-07-23T06:23:36Z</time>
      </trkpt>
      <trkpt lat="46.16126" lon="2.45817">
        <ele>429.85</ele>
        <time>2022-07-23T06:23:56Z</time>
      </trkpt>
      <trkpt lat="46.16149" lon="2.45807">
        <ele>427.92</ele>
        <time>2022-07-23T06:24:15Z</time>
      </trkpt>
      <trkpt lat="46.16171" lon="2.45792">
        <ele>426.48</ele>
        <time>2022-07-23T06:24:35Z</time>
      </trkpt>
      <trkpt lat="46.16175" lon="2.45787">
        <ele>426.96</ele>
        <time>2022-07-23T06:24:40Z</time>
      </trkpt>
      <trkpt lat="46.16182" lon="2.4578">
        <ele>428.4</ele>
        <time>2022-07-23T06:24:48Z</time>
      </trkpt>
      <trkpt lat="46.16182" lon="2.45779">
        <ele>428.4</ele>
        <time>2022-07-23T06:24:49Z</time>
      </trkpt>
      <trkpt lat="46.16196" lon="2.45763">
        <ele>431.29</ele>
        <time>2022-07-23T06:25:05Z</time>
      </trkpt>
      <trkpt lat="46.16215" lon="2.45743">
        <ele>432.73</ele>
        <time>2022-07-23T06:25:25Z</time>
      </trkpt>
      <trkpt lat="46.16227" lon="2.45725">
        <ele>435.61</ele>
        <time>2022-07-23T06:25:42Z</time>
      </trkpt>
      <trkpt lat="46.16235" lon="2.45706">
        <ele>436.1</ele>
        <time>2022-07-23T06:25:57Z</time>
      </trkpt>
      <trkpt lat="46.16241" lon="2.45689">
        <ele>435.13</ele>
        <time>2022-07-23T06:26:09Z</time>
      </trkpt>
      <trkpt lat="46.16242" lon="2.45687">
        <ele>435.61</ele>
        <time>2022-07-23T06:26:10Z</time>
      </trkpt>
      <trkpt lat="46.16242" lon="2.45685">
        <ele>435.61</ele>
        <time>2022-07-23T06:26:11Z</time>
      </trkpt>
      <trkpt lat="46.1625" lon="2.45664">
        <ele>437.06</ele>
        <time>2022-07-23T06:26:27Z</time>
      </trkpt>
      <trkpt lat="46.16259" lon="2.45644">
        <ele>439.94</ele>
        <time>2022-07-23T06:26:42Z</time>
      </trkpt>
      <trkpt lat="46.16268" lon="2.45621">
        <ele>441.38</ele>
        <time>2022-07-23T06:27:00Z</time>
      </trkpt>
      <trkpt lat="46.16276" lon="2.45596">
        <ele>442.82</ele>
        <time>2022-07-23T06:27:18Z</time>
      </trkpt>
      <trkpt lat="46.16286" lon="2.45571">
        <ele>444.75</ele>
        <time>2022-07-23T06:27:36Z</time>
      </trkpt>
      <trkpt lat="46.16297" lon="2.45543">
        <ele>445.23</ele>
        <time>2022-07-23T06:27:55Z</time>
      </trkpt>
      <trkpt lat="46.16304" lon="2.45524">
        <ele>446.19</ele>
        <time>2022-07-23T06:28:09Z</time>
      </trkpt>
      <trkpt lat="46.16292" lon="2.45508">
        <ele>447.63</ele>
        <time>2022-07-23T06:28:24Z</time>
      </trkpt>
      <trkpt lat="46.16273" lon="2.45494">
        <ele>451.48</ele>
        <time>2022-07-23T06:28:43Z</time>
      </trkpt>
      <trkpt lat="46.16257" lon="2.45481">
        <ele>453.4</ele>
        <time>2022-07-23T06:28:59Z</time>
      </trkpt>
      <trkpt lat="46.1624" lon="2.45467">
        <ele>455.32</ele>
        <time>2022-07-23T06:29:17Z</time>
      </trkpt>
      <trkpt lat="46.16223" lon="2.45453">
        <ele>456.28</ele>
        <time>2022-07-23T06:29:34Z</time>
      </trkpt>
      <trkpt lat="46.16214" lon="2.4545">
        <ele>456.76</ele>
        <time>2022-07-23T06:29:49Z</time>
      </trkpt>
      <trkpt lat="46.16213" lon="2.45447">
        <ele>455.8</ele>
        <time>2022-07-23T06:30:16Z</time>
      </trkpt>
      <trkpt lat="46.1621" lon="2.45443">
        <ele>455.8</ele>
        <time>2022-07-23T06:30:26Z</time>
      </trkpt>
      <trkpt lat="46.16194" lon="2.45422">
        <ele>454.84</ele>
        <time>2022-07-23T06:30:44Z</time>
      </trkpt>
      <trkpt lat="46.16179" lon="2.45393">
        <ele>452.92</ele>
        <time>2022-07-23T06:31:05Z</time>
      </trkpt>
      <trkpt lat="46.16159" lon="2.45353">
        <ele>451.96</ele>
        <time>2022-07-23T06:31:32Z</time>
      </trkpt>
      <trkpt lat="46.16143" lon="2.45322">
        <ele>450.52</ele>
        <time>2022-07-23T06:31:54Z</time>
      </trkpt>
      <trkpt lat="46.16126" lon="2.45298">
        <ele>451.96</ele>
        <time>2022-07-23T06:32:13Z</time>
      </trkpt>
      <trkpt lat="46.16109" lon="2.45285">
        <ele>452.44</ele>
        <time>2022-07-23T06:32:29Z</time>
      </trkpt>
      <trkpt lat="46.16088" lon="2.45273">
        <ele>453.4</ele>
        <time>2022-07-23T06:32:48Z</time>
      </trkpt>
      <trkpt lat="46.16069" lon="2.45263">
        <ele>455.8</ele>
        <time>2022-07-23T06:33:05Z</time>
      </trkpt>
      <trkpt lat="46.16047" lon="2.45252">
        <ele>457.72</ele>
        <time>2022-07-23T06:33:25Z</time>
      </trkpt>
      <trkpt lat="46.16026" lon="2.45239">
        <ele>458.69</ele>
        <time>2022-07-23T06:33:44Z</time>
      </trkpt>
      <trkpt lat="46.16005" lon="2.45226">
        <ele>460.13</ele>
        <time>2022-07-23T06:34:04Z</time>
      </trkpt>
      <trkpt lat="46.15985" lon="2.45215">
        <ele>461.57</ele>
        <time>2022-07-23T06:34:22Z</time>
      </trkpt>
      <trkpt lat="46.15964" lon="2.45203">
        <ele>463.01</ele>
        <time>2022-07-23T06:34:40Z</time>
      </trkpt>
      <trkpt lat="46.15944" lon="2.4519">
        <ele>463.49</ele>
        <time>2022-07-23T06:34:59Z</time>
      </trkpt>
      <trkpt lat="46.15923" lon="2.45178">
        <ele>463.49</ele>
        <time>2022-07-23T06:35:18Z</time>
      </trkpt>
      <trkpt lat="46.15902" lon="2.45166">
        <ele>464.93</ele>
        <time>2022-07-23T06:35:37Z</time>
      </trkpt>
      <trkpt lat="46.15881" lon="2.45155">
        <ele>464.93</ele>
        <time>2022-07-23T06:35:56Z</time>
      </trkpt>
      <trkpt lat="46.15861" lon="2.45144">
        <ele>463.97</ele>
        <time>2022-07-23T06:36:14Z</time>
      </trkpt>
      <trkpt lat="46.15838" lon="2.45127">
        <ele>463.01</ele>
        <time>2022-07-23T06:36:35Z</time>
      </trkpt>
      <trkpt lat="46.15821" lon="2.45106">
        <ele>462.53</ele>
        <time>2022-07-23T06:36:54Z</time>
      </trkpt>
      <trkpt lat="46.1582" lon="2.45102">
        <ele>462.53</ele>
        <time>2022-07-23T06:36:56Z</time>
      </trkpt>
      <trkpt lat="46.1582" lon="2.45101">
        <ele>462.53</ele>
        <time>2022-07-23T06:36:57Z</time>
      </trkpt>
      <trkpt lat="46.15821" lon="2.45099">
        <ele>462.05</ele>
        <time>2022-07-23T06:36:58Z</time>
      </trkpt>
      <trkpt lat="46.15821" lon="2.45097">
        <ele>462.05</ele>
        <time>2022-07-23T06:36:59Z</time>
      </trkpt>
      <trkpt lat="46.15821" lon="2.45095">
        <ele>462.05</ele>
        <time>2022-07-23T06:37:00Z</time>
      </trkpt>
      <trkpt lat="46.15822" lon="2.45094">
        <ele>461.57</ele>
        <time>2022-07-23T06:37:01Z</time>
      </trkpt>
      <trkpt lat="46.15822" lon="2.45092">
        <ele>461.57</ele>
        <time>2022-07-23T06:37:02Z</time>
      </trkpt>
      <trkpt lat="46.15822" lon="2.4509">
        <ele>461.57</ele>
        <time>2022-07-23T06:37:03Z</time>
      </trkpt>
      <trkpt lat="46.15823" lon="2.45089">
        <ele>461.57</ele>
        <time>2022-07-23T06:37:04Z</time>
      </trkpt>
      <trkpt lat="46.15824" lon="2.45084">
        <ele>461.57</ele>
        <time>2022-07-23T06:37:07Z</time>
      </trkpt>
      <trkpt lat="46.15824" lon="2.45082">
        <ele>461.57</ele>
        <time>2022-07-23T06:37:08Z</time>
      </trkpt>
      <trkpt lat="46.15831" lon="2.45053">
        <ele>460.13</ele>
        <time>2022-07-23T06:37:27Z</time>
      </trkpt>
      <trkpt lat="46.15836" lon="2.45023">
        <ele>459.65</ele>
        <time>2022-07-23T06:37:45Z</time>
      </trkpt>
      <trkpt lat="46.15841" lon="2.44993">
        <ele>459.17</ele>
        <time>2022-07-23T06:38:03Z</time>
      </trkpt>
      <trkpt lat="46.15845" lon="2.44962">
        <ele>460.13</ele>
        <time>2022-07-23T06:38:21Z</time>
      </trkpt>
      <trkpt lat="46.15844" lon="2.44937">
        <ele>460.61</ele>
        <time>2022-07-23T06:38:38Z</time>
      </trkpt>
      <trkpt lat="46.1583" lon="2.44919">
        <ele>461.09</ele>
        <time>2022-07-23T06:38:54Z</time>
      </trkpt>
      <trkpt lat="46.15811" lon="2.44898">
        <ele>463.97</ele>
        <time>2022-07-23T06:39:14Z</time>
      </trkpt>
      <trkpt lat="46.15793" lon="2.44878">
        <ele>463.97</ele>
        <time>2022-07-23T06:39:34Z</time>
      </trkpt>
      <trkpt lat="46.15776" lon="2.44859">
        <ele>462.05</ele>
        <time>2022-07-23T06:39:52Z</time>
      </trkpt>
      <trkpt lat="46.15757" lon="2.44852">
        <ele>463.97</ele>
        <time>2022-07-23T06:40:10Z</time>
      </trkpt>
      <trkpt lat="46.15746" lon="2.44861">
        <ele>464.93</ele>
        <time>2022-07-23T06:40:22Z</time>
      </trkpt>
      <trkpt lat="46.15729" lon="2.44872">
        <ele>464.93</ele>
        <time>2022-07-23T06:40:39Z</time>
      </trkpt>
      <trkpt lat="46.1571" lon="2.4488">
        <ele>463.49</ele>
        <time>2022-07-23T06:40:56Z</time>
      </trkpt>
      <trkpt lat="46.15702" lon="2.44881">
        <ele>459.65</ele>
        <time>2022-07-23T06:41:10Z</time>
      </trkpt>
      <trkpt lat="46.157" lon="2.44884">
        <ele>460.13</ele>
        <time>2022-07-23T06:41:14Z</time>
      </trkpt>
      <trkpt lat="46.15693" lon="2.44892">
        <ele>462.53</ele>
        <time>2022-07-23T06:41:22Z</time>
      </trkpt>
      <trkpt lat="46.15689" lon="2.44895">
        <ele>462.05</ele>
        <time>2022-07-23T06:41:26Z</time>
      </trkpt>
      <trkpt lat="46.15678" lon="2.44898">
        <ele>462.53</ele>
        <time>2022-07-23T06:41:36Z</time>
      </trkpt>
      <trkpt lat="46.15668" lon="2.44894">
        <ele>461.57</ele>
        <time>2022-07-23T06:41:47Z</time>
      </trkpt>
      <trkpt lat="46.15655" lon="2.44879">
        <ele>459.65</ele>
        <time>2022-07-23T06:42:04Z</time>
      </trkpt>
      <trkpt lat="46.15639" lon="2.4487">
        <ele>457.72</ele>
        <time>2022-07-23T06:42:22Z</time>
      </trkpt>
      <trkpt lat="46.15623" lon="2.44862">
        <ele>458.21</ele>
        <time>2022-07-23T06:42:38Z</time>
      </trkpt>
      <trkpt lat="46.15608" lon="2.44852">
        <ele>457.24</ele>
        <time>2022-07-23T06:42:54Z</time>
      </trkpt>
      <trkpt lat="46.15597" lon="2.44844">
        <ele>455.8</ele>
        <time>2022-07-23T06:43:07Z</time>
      </trkpt>
      <trkpt lat="46.15582" lon="2.44835">
        <ele>453.4</ele>
        <time>2022-07-23T06:43:24Z</time>
      </trkpt>
      <trkpt lat="46.15565" lon="2.44821">
        <ele>454.36</ele>
        <time>2022-07-23T06:43:39Z</time>
      </trkpt>
      <trkpt lat="46.15548" lon="2.44811">
        <ele>454.36</ele>
        <time>2022-07-23T06:43:54Z</time>
      </trkpt>
      <trkpt lat="46.15529" lon="2.44802">
        <ele>454.84</ele>
        <time>2022-07-23T06:44:11Z</time>
      </trkpt>
      <trkpt lat="46.15515" lon="2.44794">
        <ele>455.8</ele>
        <time>2022-07-23T06:44:27Z</time>
      </trkpt>
      <trkpt lat="46.15512" lon="2.44789">
        <ele>460.61</ele>
        <time>2022-07-23T06:44:46Z</time>
      </trkpt>
      <trkpt lat="46.15499" lon="2.44783">
        <ele>463.01</ele>
        <time>2022-07-23T06:45:03Z</time>
      </trkpt>
      <trkpt lat="46.15484" lon="2.44781">
        <ele>463.01</ele>
        <time>2022-07-23T06:45:20Z</time>
      </trkpt>
      <trkpt lat="46.15466" lon="2.4478">
        <ele>463.49</ele>
        <time>2022-07-23T06:45:36Z</time>
      </trkpt>
      <trkpt lat="46.15449" lon="2.4478">
        <ele>465.9</ele>
        <time>2022-07-23T06:45:51Z</time>
      </trkpt>
      <trkpt lat="46.15434" lon="2.44778">
        <ele>468.3</ele>
        <time>2022-07-23T06:46:05Z</time>
      </trkpt>
      <trkpt lat="46.15419" lon="2.44778">
        <ele>470.7</ele>
        <time>2022-07-23T06:46:19Z</time>
      </trkpt>
      <trkpt lat="46.15404" lon="2.44778">
        <ele>471.18</ele>
        <time>2022-07-23T06:46:32Z</time>
      </trkpt>
      <trkpt lat="46.15389" lon="2.44775">
        <ele>470.22</ele>
        <time>2022-07-23T06:46:47Z</time>
      </trkpt>
      <trkpt lat="46.15373" lon="2.44768">
        <ele>470.22</ele>
        <time>2022-07-23T06:47:02Z</time>
      </trkpt>
      <trkpt lat="46.1536" lon="2.44765">
        <ele>471.66</ele>
        <time>2022-07-23T06:47:15Z</time>
      </trkpt>
      <trkpt lat="46.15346" lon="2.44758">
        <ele>471.66</ele>
        <time>2022-07-23T06:47:30Z</time>
      </trkpt>
      <trkpt lat="46.15335" lon="2.44745">
        <ele>473.11</ele>
        <time>2022-07-23T06:47:44Z</time>
      </trkpt>
      <trkpt lat="46.15318" lon="2.44725">
        <ele>475.03</ele>
        <time>2022-07-23T06:48:00Z</time>
      </trkpt>
      <trkpt lat="46.15315" lon="2.44719">
        <ele>475.51</ele>
        <time>2022-07-23T06:48:03Z</time>
      </trkpt>
      <trkpt lat="46.15299" lon="2.44696">
        <ele>478.39</ele>
        <time>2022-07-23T06:48:22Z</time>
      </trkpt>
      <trkpt lat="46.15283" lon="2.4468">
        <ele>481.28</ele>
        <time>2022-07-23T06:48:38Z</time>
      </trkpt>
      <trkpt lat="46.15273" lon="2.44673">
        <ele>482.72</ele>
        <time>2022-07-23T06:48:48Z</time>
      </trkpt>
      <trkpt lat="46.15253" lon="2.44659">
        <ele>483.2</ele>
        <time>2022-07-23T06:49:08Z</time>
      </trkpt>
      <trkpt lat="46.15243" lon="2.44656">
        <ele>481.76</ele>
        <time>2022-07-23T06:49:23Z</time>
      </trkpt>
      <trkpt lat="46.15242" lon="2.44659">
        <ele>476.95</ele>
        <time>2022-07-23T06:49:55Z</time>
      </trkpt>
      <trkpt lat="46.15239" lon="2.44653">
        <ele>476.95</ele>
        <time>2022-07-23T06:50:13Z</time>
      </trkpt>
      <trkpt lat="46.15239" lon="2.44654">
        <ele>478.87</ele>
        <time>2022-07-23T06:50:37Z</time>
      </trkpt>
      <trkpt lat="46.1524" lon="2.44654">
        <ele>479.35</ele>
        <time>2022-07-23T06:50:59Z</time>
      </trkpt>
      <trkpt lat="46.1524" lon="2.44653">
        <ele>476.95</ele>
        <time>2022-07-23T06:51:17Z</time>
      </trkpt>
      <trkpt lat="46.15232" lon="2.44646">
        <ele>477.91</ele>
        <time>2022-07-23T06:51:35Z</time>
      </trkpt>
      <trkpt lat="46.15221" lon="2.4464">
        <ele>475.51</ele>
        <time>2022-07-23T06:51:48Z</time>
      </trkpt>
      <trkpt lat="46.15207" lon="2.4463">
        <ele>471.66</ele>
        <time>2022-07-23T06:52:02Z</time>
      </trkpt>
      <trkpt lat="46.15189" lon="2.44617">
        <ele>470.7</ele>
        <time>2022-07-23T06:52:20Z</time>
      </trkpt>
      <trkpt lat="46.15176" lon="2.44601">
        <ele>468.78</ele>
        <time>2022-07-23T06:52:37Z</time>
      </trkpt>
      <trkpt lat="46.15165" lon="2.44576">
        <ele>466.38</ele>
        <time>2022-07-23T06:52:56Z</time>
      </trkpt>
      <trkpt lat="46.15156" lon="2.44559">
        <ele>466.38</ele>
        <time>2022-07-23T06:53:10Z</time>
      </trkpt>
      <trkpt lat="46.15141" lon="2.44545">
        <ele>469.26</ele>
        <time>2022-07-23T06:53:24Z</time>
      </trkpt>
      <trkpt lat="46.15129" lon="2.44533">
        <ele>471.18</ele>
        <time>2022-07-23T06:53:39Z</time>
      </trkpt>
      <trkpt lat="46.15114" lon="2.44521">
        <ele>469.26</ele>
        <time>2022-07-23T06:53:54Z</time>
      </trkpt>
      <trkpt lat="46.15096" lon="2.44506">
        <ele>466.86</ele>
        <time>2022-07-23T06:54:10Z</time>
      </trkpt>
      <trkpt lat="46.15079" lon="2.445">
        <ele>465.42</ele>
        <time>2022-07-23T06:54:26Z</time>
      </trkpt>
      <trkpt lat="46.15062" lon="2.44497">
        <ele>466.38</ele>
        <time>2022-07-23T06:54:43Z</time>
      </trkpt>
      <trkpt lat="46.15045" lon="2.44503">
        <ele>469.74</ele>
        <time>2022-07-23T06:55:03Z</time>
      </trkpt>
      <trkpt lat="46.1503" lon="2.44507">
        <ele>472.14</ele>
        <time>2022-07-23T06:55:19Z</time>
      </trkpt>
      <trkpt lat="46.15013" lon="2.4451">
        <ele>472.14</ele>
        <time>2022-07-23T06:55:35Z</time>
      </trkpt>
      <trkpt lat="46.14996" lon="2.44517">
        <ele>470.22</ele>
        <time>2022-07-23T06:55:53Z</time>
      </trkpt>
      <trkpt lat="46.14988" lon="2.44519">
        <ele>471.18</ele>
        <time>2022-07-23T06:56:01Z</time>
      </trkpt>
      <trkpt lat="46.14966" lon="2.44526">
        <ele>473.59</ele>
        <time>2022-07-23T06:56:21Z</time>
      </trkpt>
      <trkpt lat="46.14949" lon="2.44535">
        <ele>473.59</ele>
        <time>2022-07-23T06:56:38Z</time>
      </trkpt>
      <trkpt lat="46.14931" lon="2.44544">
        <ele>472.14</ele>
        <time>2022-07-23T06:56:55Z</time>
      </trkpt>
      <trkpt lat="46.14913" lon="2.44554">
        <ele>473.11</ele>
        <time>2022-07-23T06:57:13Z</time>
      </trkpt>
      <trkpt lat="46.14895" lon="2.44558">
        <ele>474.55</ele>
        <time>2022-07-23T06:57:28Z</time>
      </trkpt>
      <trkpt lat="46.14883" lon="2.44557">
        <ele>477.43</ele>
        <time>2022-07-23T06:57:38Z</time>
      </trkpt>
      <trkpt lat="46.14876" lon="2.44543">
        <ele>475.51</ele>
        <time>2022-07-23T06:57:53Z</time>
      </trkpt>
      <trkpt lat="46.14873" lon="2.44528">
        <ele>474.07</ele>
        <time>2022-07-23T06:58:05Z</time>
      </trkpt>
      <trkpt lat="46.14869" lon="2.44507">
        <ele>475.03</ele>
        <time>2022-07-23T06:58:20Z</time>
      </trkpt>
      <trkpt lat="46.14863" lon="2.44489">
        <ele>475.03</ele>
        <time>2022-07-23T06:58:34Z</time>
      </trkpt>
      <trkpt lat="46.14858" lon="2.44469">
        <ele>476.95</ele>
        <time>2022-07-23T06:58:47Z</time>
      </trkpt>
      <trkpt lat="46.14853" lon="2.44447">
        <ele>477.91</ele>
        <time>2022-07-23T06:59:01Z</time>
      </trkpt>
      <trkpt lat="46.14852" lon="2.44442">
        <ele>477.43</ele>
        <time>2022-07-23T06:59:05Z</time>
      </trkpt>
      <trkpt lat="46.14848" lon="2.44432">
        <ele>476.95</ele>
        <time>2022-07-23T06:59:11Z</time>
      </trkpt>
      <trkpt lat="46.14844" lon="2.44409">
        <ele>477.91</ele>
        <time>2022-07-23T06:59:25Z</time>
      </trkpt>
      <trkpt lat="46.14839" lon="2.44385">
        <ele>476.47</ele>
        <time>2022-07-23T06:59:40Z</time>
      </trkpt>
      <trkpt lat="46.14831" lon="2.44359">
        <ele>475.99</ele>
        <time>2022-07-23T06:59:57Z</time>
      </trkpt>
      <trkpt lat="46.14827" lon="2.4434">
        <ele>472.63</ele>
        <time>2022-07-23T07:00:10Z</time>
      </trkpt>
      <trkpt lat="46.14818" lon="2.44315">
        <ele>474.55</ele>
        <time>2022-07-23T07:00:25Z</time>
      </trkpt>
      <trkpt lat="46.14812" lon="2.44289">
        <ele>473.11</ele>
        <time>2022-07-23T07:00:42Z</time>
      </trkpt>
      <trkpt lat="46.14808" lon="2.44262">
        <ele>470.7</ele>
        <time>2022-07-23T07:00:58Z</time>
      </trkpt>
      <trkpt lat="46.14799" lon="2.4425">
        <ele>479.84</ele>
        <time>2022-07-23T07:01:16Z</time>
      </trkpt>
      <trkpt lat="46.14797" lon="2.44238">
        <ele>485.12</ele>
        <time>2022-07-23T07:01:41Z</time>
      </trkpt>
      <trkpt lat="46.14795" lon="2.44216">
        <ele>483.68</ele>
        <time>2022-07-23T07:01:57Z</time>
      </trkpt>
      <trkpt lat="46.14787" lon="2.44193">
        <ele>484.16</ele>
        <time>2022-07-23T07:02:13Z</time>
      </trkpt>
      <trkpt lat="46.14777" lon="2.44175">
        <ele>485.6</ele>
        <time>2022-07-23T07:02:27Z</time>
      </trkpt>
      <trkpt lat="46.14768" lon="2.44156">
        <ele>488.01</ele>
        <time>2022-07-23T07:02:43Z</time>
      </trkpt>
      <trkpt lat="46.14757" lon="2.44142">
        <ele>487.05</ele>
        <time>2022-07-23T07:02:59Z</time>
      </trkpt>
      <trkpt lat="46.14744" lon="2.44125">
        <ele>485.6</ele>
        <time>2022-07-23T07:03:16Z</time>
      </trkpt>
      <trkpt lat="46.14726" lon="2.44104">
        <ele>490.89</ele>
        <time>2022-07-23T07:03:33Z</time>
      </trkpt>
      <trkpt lat="46.14723" lon="2.4409">
        <ele>493.77</ele>
        <time>2022-07-23T07:03:45Z</time>
      </trkpt>
      <trkpt lat="46.14718" lon="2.44075">
        <ele>499.06</ele>
        <time>2022-07-23T07:03:57Z</time>
      </trkpt>
      <trkpt lat="46.14713" lon="2.44062">
        <ele>502.91</ele>
        <time>2022-07-23T07:04:10Z</time>
      </trkpt>
      <trkpt lat="46.14711" lon="2.44046">
        <ele>505.31</ele>
        <time>2022-07-23T07:04:22Z</time>
      </trkpt>
      <trkpt lat="46.1471" lon="2.44031">
        <ele>504.35</ele>
        <time>2022-07-23T07:04:35Z</time>
      </trkpt>
      <trkpt lat="46.14709" lon="2.44016">
        <ele>504.35</ele>
        <time>2022-07-23T07:04:47Z</time>
      </trkpt>
      <trkpt lat="46.14706" lon="2.43995">
        <ele>503.87</ele>
        <time>2022-07-23T07:05:03Z</time>
      </trkpt>
      <trkpt lat="46.14704" lon="2.43969">
        <ele>504.83</ele>
        <time>2022-07-23T07:05:17Z</time>
      </trkpt>
      <trkpt lat="46.14703" lon="2.43947">
        <ele>507.23</ele>
        <time>2022-07-23T07:05:30Z</time>
      </trkpt>
      <trkpt lat="46.14707" lon="2.43929">
        <ele>505.31</ele>
        <time>2022-07-23T07:05:44Z</time>
      </trkpt>
      <trkpt lat="46.14711" lon="2.43904">
        <ele>508.19</ele>
        <time>2022-07-23T07:05:59Z</time>
      </trkpt>
      <trkpt lat="46.14711" lon="2.43884">
        <ele>515.4</ele>
        <time>2022-07-23T07:06:14Z</time>
      </trkpt>
      <trkpt lat="46.14711" lon="2.43877">
        <ele>514.92</ele>
        <time>2022-07-23T07:06:33Z</time>
      </trkpt>
      <trkpt lat="46.1471" lon="2.43869">
        <ele>516.37</ele>
        <time>2022-07-23T07:06:56Z</time>
      </trkpt>
      <trkpt lat="46.14706" lon="2.43868">
        <ele>518.29</ele>
        <time>2022-07-23T07:07:21Z</time>
      </trkpt>
      <trkpt lat="46.14708" lon="2.43861">
        <ele>521.17</ele>
        <time>2022-07-23T07:07:40Z</time>
      </trkpt>
      <trkpt lat="46.14704" lon="2.43854">
        <ele>520.21</ele>
        <time>2022-07-23T07:08:03Z</time>
      </trkpt>
      <trkpt lat="46.14703" lon="2.4384">
        <ele>516.37</ele>
        <time>2022-07-23T07:08:17Z</time>
      </trkpt>
      <trkpt lat="46.14705" lon="2.43824">
        <ele>509.16</ele>
        <time>2022-07-23T07:08:32Z</time>
      </trkpt>
      <trkpt lat="46.14699" lon="2.43794">
        <ele>509.16</ele>
        <time>2022-07-23T07:08:46Z</time>
      </trkpt>
      <trkpt lat="46.14698" lon="2.43776">
        <ele>504.35</ele>
        <time>2022-07-23T07:09:00Z</time>
      </trkpt>
      <trkpt lat="46.14696" lon="2.43757">
        <ele>503.39</ele>
        <time>2022-07-23T07:09:14Z</time>
      </trkpt>
      <trkpt lat="46.14692" lon="2.43733">
        <ele>499.54</ele>
        <time>2022-07-23T07:09:30Z</time>
      </trkpt>
      <trkpt lat="46.14688" lon="2.43711">
        <ele>493.29</ele>
        <time>2022-07-23T07:09:46Z</time>
      </trkpt>
      <trkpt lat="46.14683" lon="2.43686">
        <ele>490.41</ele>
        <time>2022-07-23T07:10:01Z</time>
      </trkpt>
      <trkpt lat="46.14678" lon="2.43667">
        <ele>492.33</ele>
        <time>2022-07-23T07:10:12Z</time>
      </trkpt>
      <trkpt lat="46.14674" lon="2.43645">
        <ele>493.29</ele>
        <time>2022-07-23T07:10:24Z</time>
      </trkpt>
      <trkpt lat="46.14669" lon="2.43622">
        <ele>496.66</ele>
        <time>2022-07-23T07:10:37Z</time>
      </trkpt>
      <trkpt lat="46.14664" lon="2.43607">
        <ele>497.62</ele>
        <time>2022-07-23T07:10:46Z</time>
      </trkpt>
      <trkpt lat="46.14658" lon="2.43581">
        <ele>495.7</ele>
        <time>2022-07-23T07:11:00Z</time>
      </trkpt>
      <trkpt lat="46.14652" lon="2.43561">
        <ele>497.14</ele>
        <time>2022-07-23T07:11:13Z</time>
      </trkpt>
      <trkpt lat="46.14648" lon="2.43542">
        <ele>497.62</ele>
        <time>2022-07-23T07:11:27Z</time>
      </trkpt>
      <trkpt lat="46.14642" lon="2.43524">
        <ele>497.62</ele>
        <time>2022-07-23T07:11:39Z</time>
      </trkpt>
      <trkpt lat="46.14639" lon="2.43504">
        <ele>493.29</ele>
        <time>2022-07-23T07:11:53Z</time>
      </trkpt>
      <trkpt lat="46.14637" lon="2.43483">
        <ele>488.97</ele>
        <time>2022-07-23T07:12:07Z</time>
      </trkpt>
      <trkpt lat="46.14631" lon="2.43451">
        <ele>488.49</ele>
        <time>2022-07-23T07:12:21Z</time>
      </trkpt>
      <trkpt lat="46.14628" lon="2.4343">
        <ele>487.53</ele>
        <time>2022-07-23T07:12:36Z</time>
      </trkpt>
      <trkpt lat="46.14627" lon="2.43403">
        <ele>484.64</ele>
        <time>2022-07-23T07:12:53Z</time>
      </trkpt>
      <trkpt lat="46.14619" lon="2.43382">
        <ele>485.6</ele>
        <time>2022-07-23T07:13:07Z</time>
      </trkpt>
      <trkpt lat="46.14609" lon="2.43354">
        <ele>486.08</ele>
        <time>2022-07-23T07:13:25Z</time>
      </trkpt>
      <trkpt lat="46.14608" lon="2.43342">
        <ele>488.49</ele>
        <time>2022-07-23T07:13:40Z</time>
      </trkpt>
      <trkpt lat="46.14603" lon="2.43325">
        <ele>489.45</ele>
        <time>2022-07-23T07:13:58Z</time>
      </trkpt>
      <trkpt lat="46.14595" lon="2.43301">
        <ele>492.33</ele>
        <time>2022-07-23T07:14:11Z</time>
      </trkpt>
      <trkpt lat="46.14589" lon="2.43284">
        <ele>494.26</ele>
        <time>2022-07-23T07:14:24Z</time>
      </trkpt>
      <trkpt lat="46.14577" lon="2.43259">
        <ele>498.58</ele>
        <time>2022-07-23T07:14:40Z</time>
      </trkpt>
      <trkpt lat="46.14564" lon="2.43241">
        <ele>500.5</ele>
        <time>2022-07-23T07:14:55Z</time>
      </trkpt>
      <trkpt lat="46.14543" lon="2.43225">
        <ele>501.95</ele>
        <time>2022-07-23T07:15:13Z</time>
      </trkpt>
      <trkpt lat="46.1452" lon="2.43217">
        <ele>504.83</ele>
        <time>2022-07-23T07:15:30Z</time>
      </trkpt>
      <trkpt lat="46.14506" lon="2.43209">
        <ele>504.83</ele>
        <time>2022-07-23T07:15:44Z</time>
      </trkpt>
      <trkpt lat="46.14488" lon="2.432">
        <ele>502.43</ele>
        <time>2022-07-23T07:16:01Z</time>
      </trkpt>
      <trkpt lat="46.14471" lon="2.43196">
        <ele>501.95</ele>
        <time>2022-07-23T07:16:15Z</time>
      </trkpt>
      <trkpt lat="46.14451" lon="2.43186">
        <ele>503.39</ele>
        <time>2022-07-23T07:16:33Z</time>
      </trkpt>
      <trkpt lat="46.14437" lon="2.43169">
        <ele>499.06</ele>
        <time>2022-07-23T07:16:48Z</time>
      </trkpt>
      <trkpt lat="46.14434" lon="2.43165">
        <ele>498.1</ele>
        <time>2022-07-23T07:16:52Z</time>
      </trkpt>
      <trkpt lat="46.14418" lon="2.43161">
        <ele>498.1</ele>
        <time>2022-07-23T07:17:07Z</time>
      </trkpt>
      <trkpt lat="46.14411" lon="2.43158">
        <ele>498.58</ele>
        <time>2022-07-23T07:17:13Z</time>
      </trkpt>
      <trkpt lat="46.14394" lon="2.43153">
        <ele>501.95</ele>
        <time>2022-07-23T07:17:29Z</time>
      </trkpt>
      <trkpt lat="46.14376" lon="2.43141">
        <ele>505.31</ele>
        <time>2022-07-23T07:17:45Z</time>
      </trkpt>
      <trkpt lat="46.14362" lon="2.43135">
        <ele>502.43</ele>
        <time>2022-07-23T07:18:02Z</time>
      </trkpt>
      <trkpt lat="46.14348" lon="2.43127">
        <ele>501.95</ele>
        <time>2022-07-23T07:18:15Z</time>
      </trkpt>
      <trkpt lat="46.14337" lon="2.43121">
        <ele>501.95</ele>
        <time>2022-07-23T07:18:23Z</time>
      </trkpt>
      <trkpt lat="46.14312" lon="2.43106">
        <ele>499.06</ele>
        <time>2022-07-23T07:18:43Z</time>
      </trkpt>
      <trkpt lat="46.14294" lon="2.43101">
        <ele>500.02</ele>
        <time>2022-07-23T07:18:59Z</time>
      </trkpt>
      <trkpt lat="46.14281" lon="2.43099">
        <ele>499.06</ele>
        <time>2022-07-23T07:19:13Z</time>
      </trkpt>
      <trkpt lat="46.1426" lon="2.43098">
        <ele>498.1</ele>
        <time>2022-07-23T07:19:30Z</time>
      </trkpt>
      <trkpt lat="46.14242" lon="2.43097">
        <ele>500.02</ele>
        <time>2022-07-23T07:19:46Z</time>
      </trkpt>
      <trkpt lat="46.14221" lon="2.43095">
        <ele>503.39</ele>
        <time>2022-07-23T07:20:02Z</time>
      </trkpt>
      <trkpt lat="46.1419" lon="2.43088">
        <ele>503.39</ele>
        <time>2022-07-23T07:20:23Z</time>
      </trkpt>
      <trkpt lat="46.14174" lon="2.43087">
        <ele>500.98</ele>
        <time>2022-07-23T07:20:40Z</time>
      </trkpt>
      <trkpt lat="46.14155" lon="2.43079">
        <ele>501.46</ele>
        <time>2022-07-23T07:20:55Z</time>
      </trkpt>
      <trkpt lat="46.14137" lon="2.43069">
        <ele>498.1</ele>
        <time>2022-07-23T07:21:12Z</time>
      </trkpt>
      <trkpt lat="46.14122" lon="2.43059">
        <ele>498.58</ele>
        <time>2022-07-23T07:21:26Z</time>
      </trkpt>
      <trkpt lat="46.14105" lon="2.43047">
        <ele>498.1</ele>
        <time>2022-07-23T07:21:42Z</time>
      </trkpt>
      <trkpt lat="46.14104" lon="2.43045">
        <ele>497.62</ele>
        <time>2022-07-23T07:21:44Z</time>
      </trkpt>
      <trkpt lat="46.1409" lon="2.43031">
        <ele>499.06</ele>
        <time>2022-07-23T07:22:00Z</time>
      </trkpt>
      <trkpt lat="46.14078" lon="2.43016">
        <ele>498.1</ele>
        <time>2022-07-23T07:22:14Z</time>
      </trkpt>
      <trkpt lat="46.14065" lon="2.42997">
        <ele>494.74</ele>
        <time>2022-07-23T07:22:28Z</time>
      </trkpt>
      <trkpt lat="46.14052" lon="2.42979">
        <ele>493.29</ele>
        <time>2022-07-23T07:22:43Z</time>
      </trkpt>
      <trkpt lat="46.14035" lon="2.4296">
        <ele>494.74</ele>
        <time>2022-07-23T07:22:59Z</time>
      </trkpt>
      <trkpt lat="46.14031" lon="2.4296">
        <ele>496.66</ele>
        <time>2022-07-23T07:23:32Z</time>
      </trkpt>
      <trkpt lat="46.14022" lon="2.42947">
        <ele>497.14</ele>
        <time>2022-07-23T07:23:54Z</time>
      </trkpt>
      <trkpt lat="46.14" lon="2.42926">
        <ele>497.62</ele>
        <time>2022-07-23T07:24:15Z</time>
      </trkpt>
      <trkpt lat="46.13984" lon="2.42911">
        <ele>498.58</ele>
        <time>2022-07-23T07:24:30Z</time>
      </trkpt>
      <trkpt lat="46.1397" lon="2.42898">
        <ele>498.58</ele>
        <time>2022-07-23T07:24:45Z</time>
      </trkpt>
      <trkpt lat="46.13955" lon="2.42874">
        <ele>497.62</ele>
        <time>2022-07-23T07:25:04Z</time>
      </trkpt>
      <trkpt lat="46.13951" lon="2.42847">
        <ele>494.26</ele>
        <time>2022-07-23T07:25:21Z</time>
      </trkpt>
      <trkpt lat="46.13951" lon="2.42832">
        <ele>490.41</ele>
        <time>2022-07-23T07:25:36Z</time>
      </trkpt>
      <trkpt lat="46.13951" lon="2.4282">
        <ele>488.49</ele>
        <time>2022-07-23T07:25:44Z</time>
      </trkpt>
      <trkpt lat="46.13953" lon="2.42796">
        <ele>485.12</ele>
        <time>2022-07-23T07:26:00Z</time>
      </trkpt>
      <trkpt lat="46.13949" lon="2.42774">
        <ele>481.28</ele>
        <time>2022-07-23T07:26:16Z</time>
      </trkpt>
      <trkpt lat="46.13947" lon="2.4277">
        <ele>480.32</ele>
        <time>2022-07-23T07:26:19Z</time>
      </trkpt>
      <trkpt lat="46.13939" lon="2.42755">
        <ele>480.32</ele>
        <time>2022-07-23T07:26:29Z</time>
      </trkpt>
      <trkpt lat="46.13932" lon="2.42725">
        <ele>479.84</ele>
        <time>2022-07-23T07:26:47Z</time>
      </trkpt>
      <trkpt lat="46.13929" lon="2.42716">
        <ele>479.35</ele>
        <time>2022-07-23T07:26:54Z</time>
      </trkpt>
      <trkpt lat="46.13909" lon="2.427">
        <ele>477.43</ele>
        <time>2022-07-23T07:27:13Z</time>
      </trkpt>
      <trkpt lat="46.13903" lon="2.42698">
        <ele>476.95</ele>
        <time>2022-07-23T07:27:20Z</time>
      </trkpt>
      <trkpt lat="46.1389" lon="2.42696">
        <ele>477.43</ele>
        <time>2022-07-23T07:27:33Z</time>
      </trkpt>
      <trkpt lat="46.13867" lon="2.42696">
        <ele>478.39</ele>
        <time>2022-07-23T07:27:51Z</time>
      </trkpt>
      <trkpt lat="46.13843" lon="2.42692">
        <ele>478.87</ele>
        <time>2022-07-23T07:28:10Z</time>
      </trkpt>
      <trkpt lat="46.13815" lon="2.4268">
        <ele>475.51</ele>
        <time>2022-07-23T07:28:33Z</time>
      </trkpt>
      <trkpt lat="46.13792" lon="2.42666">
        <ele>474.07</ele>
        <time>2022-07-23T07:28:54Z</time>
      </trkpt>
      <trkpt lat="46.13775" lon="2.42661">
        <ele>472.14</ele>
        <time>2022-07-23T07:29:10Z</time>
      </trkpt>
      <trkpt lat="46.13755" lon="2.4266">
        <ele>469.26</ele>
        <time>2022-07-23T07:29:27Z</time>
      </trkpt>
      <trkpt lat="46.13734" lon="2.42661">
        <ele>467.82</ele>
        <time>2022-07-23T07:29:46Z</time>
      </trkpt>
      <trkpt lat="46.13731" lon="2.42659">
        <ele>467.34</ele>
        <time>2022-07-23T07:29:49Z</time>
      </trkpt>
      <trkpt lat="46.13726" lon="2.42652">
        <ele>466.86</ele>
        <time>2022-07-23T07:29:55Z</time>
      </trkpt>
      <trkpt lat="46.13708" lon="2.42621">
        <ele>470.22</ele>
        <time>2022-07-23T07:30:15Z</time>
      </trkpt>
      <trkpt lat="46.13694" lon="2.42599">
        <ele>474.07</ele>
        <time>2022-07-23T07:30:32Z</time>
      </trkpt>
      <trkpt lat="46.13678" lon="2.42581">
        <ele>478.87</ele>
        <time>2022-07-23T07:30:50Z</time>
      </trkpt>
      <trkpt lat="46.13664" lon="2.42565">
        <ele>481.28</ele>
        <time>2022-07-23T07:31:07Z</time>
      </trkpt>
      <trkpt lat="46.1365" lon="2.4255">
        <ele>479.84</ele>
        <time>2022-07-23T07:31:23Z</time>
      </trkpt>
      <trkpt lat="46.1364" lon="2.42534">
        <ele>480.8</ele>
        <time>2022-07-23T07:31:38Z</time>
      </trkpt>
      <trkpt lat="46.13629" lon="2.42517">
        <ele>480.8</ele>
        <time>2022-07-23T07:31:54Z</time>
      </trkpt>
      <trkpt lat="46.13619" lon="2.42506">
        <ele>480.8</ele>
        <time>2022-07-23T07:32:07Z</time>
      </trkpt>
      <trkpt lat="46.13601" lon="2.42504">
        <ele>482.24</ele>
        <time>2022-07-23T07:32:23Z</time>
      </trkpt>
      <trkpt lat="46.13594" lon="2.42506">
        <ele>482.72</ele>
        <time>2022-07-23T07:32:29Z</time>
      </trkpt>
      <trkpt lat="46.13588" lon="2.42506">
        <ele>483.2</ele>
        <time>2022-07-23T07:32:35Z</time>
      </trkpt>
      <trkpt lat="46.13579" lon="2.42505">
        <ele>482.72</ele>
        <time>2022-07-23T07:32:43Z</time>
      </trkpt>
      <trkpt lat="46.1356" lon="2.42501">
        <ele>482.72</ele>
        <time>2022-07-23T07:32:59Z</time>
      </trkpt>
      <trkpt lat="46.13544" lon="2.425">
        <ele>485.12</ele>
        <time>2022-07-23T07:33:15Z</time>
      </trkpt>
      <trkpt lat="46.13531" lon="2.4251">
        <ele>488.01</ele>
        <time>2022-07-23T07:33:32Z</time>
      </trkpt>
      <trkpt lat="46.13513" lon="2.42528">
        <ele>495.22</ele>
        <time>2022-07-23T07:33:49Z</time>
      </trkpt>
      <trkpt lat="46.13494" lon="2.42541">
        <ele>496.18</ele>
        <time>2022-07-23T07:34:07Z</time>
      </trkpt>
      <trkpt lat="46.13474" lon="2.4255">
        <ele>492.33</ele>
        <time>2022-07-23T07:34:25Z</time>
      </trkpt>
      <trkpt lat="46.1346" lon="2.42557">
        <ele>491.85</ele>
        <time>2022-07-23T07:34:40Z</time>
      </trkpt>
      <trkpt lat="46.13452" lon="2.4257">
        <ele>491.37</ele>
        <time>2022-07-23T07:34:52Z</time>
      </trkpt>
      <trkpt lat="46.13441" lon="2.4257">
        <ele>490.89</ele>
        <time>2022-07-23T07:35:02Z</time>
      </trkpt>
      <trkpt lat="46.13422" lon="2.4257">
        <ele>488.49</ele>
        <time>2022-07-23T07:35:19Z</time>
      </trkpt>
      <trkpt lat="46.13401" lon="2.42569">
        <ele>488.97</ele>
        <time>2022-07-23T07:35:38Z</time>
      </trkpt>
      <trkpt lat="46.1338" lon="2.42563">
        <ele>488.49</ele>
        <time>2022-07-23T07:35:56Z</time>
      </trkpt>
      <trkpt lat="46.13375" lon="2.4256">
        <ele>488.97</ele>
        <time>2022-07-23T07:36:02Z</time>
      </trkpt>
      <trkpt lat="46.13359" lon="2.42541">
        <ele>490.41</ele>
        <time>2022-07-23T07:36:20Z</time>
      </trkpt>
      <trkpt lat="46.1334" lon="2.42522">
        <ele>491.37</ele>
        <time>2022-07-23T07:36:40Z</time>
      </trkpt>
      <trkpt lat="46.1332" lon="2.42507">
        <ele>493.77</ele>
        <time>2022-07-23T07:36:58Z</time>
      </trkpt>
      <trkpt lat="46.13298" lon="2.42492">
        <ele>494.26</ele>
        <time>2022-07-23T07:37:19Z</time>
      </trkpt>
      <trkpt lat="46.13284" lon="2.4248">
        <ele>491.85</ele>
        <time>2022-07-23T07:37:35Z</time>
      </trkpt>
      <trkpt lat="46.13271" lon="2.42468">
        <ele>488.01</ele>
        <time>2022-07-23T07:37:53Z</time>
      </trkpt>
      <trkpt lat="46.13262" lon="2.42461">
        <ele>487.53</ele>
        <time>2022-07-23T07:38:05Z</time>
      </trkpt>
      <trkpt lat="46.13252" lon="2.42452">
        <ele>486.56</ele>
        <time>2022-07-23T07:38:18Z</time>
      </trkpt>
      <trkpt lat="46.13233" lon="2.42432">
        <ele>487.05</ele>
        <time>2022-07-23T07:38:35Z</time>
      </trkpt>
      <trkpt lat="46.13214" lon="2.42414">
        <ele>487.05</ele>
        <time>2022-07-23T07:38:52Z</time>
      </trkpt>
      <trkpt lat="46.13196" lon="2.42404">
        <ele>489.93</ele>
        <time>2022-07-23T07:39:06Z</time>
      </trkpt>
      <trkpt lat="46.13187" lon="2.4242">
        <ele>493.77</ele>
        <time>2022-07-23T07:39:21Z</time>
      </trkpt>
      <trkpt lat="46.13183" lon="2.42428">
        <ele>492.81</ele>
        <time>2022-07-23T07:39:36Z</time>
      </trkpt>
      <trkpt lat="46.1318" lon="2.42442">
        <ele>495.22</ele>
        <time>2022-07-23T07:39:51Z</time>
      </trkpt>
      <trkpt lat="46.13173" lon="2.42468">
        <ele>496.18</ele>
        <time>2022-07-23T07:40:08Z</time>
      </trkpt>
      <trkpt lat="46.13164" lon="2.42492">
        <ele>495.7</ele>
        <time>2022-07-23T07:40:24Z</time>
      </trkpt>
      <trkpt lat="46.13152" lon="2.42519">
        <ele>496.66</ele>
        <time>2022-07-23T07:40:43Z</time>
      </trkpt>
      <trkpt lat="46.1314" lon="2.42536">
        <ele>496.66</ele>
        <time>2022-07-23T07:40:59Z</time>
      </trkpt>
      <trkpt lat="46.13117" lon="2.42538">
        <ele>497.14</ele>
        <time>2022-07-23T07:41:17Z</time>
      </trkpt>
      <trkpt lat="46.13093" lon="2.42534">
        <ele>498.1</ele>
        <time>2022-07-23T07:41:36Z</time>
      </trkpt>
      <trkpt lat="46.13079" lon="2.42532">
        <ele>497.62</ele>
        <time>2022-07-23T07:41:48Z</time>
      </trkpt>
      <trkpt lat="46.1306" lon="2.42528">
        <ele>498.1</ele>
        <time>2022-07-23T07:42:05Z</time>
      </trkpt>
      <trkpt lat="46.13042" lon="2.42525">
        <ele>498.58</ele>
        <time>2022-07-23T07:42:22Z</time>
      </trkpt>
      <trkpt lat="46.13023" lon="2.4252">
        <ele>498.58</ele>
        <time>2022-07-23T07:42:39Z</time>
      </trkpt>
      <trkpt lat="46.13004" lon="2.42515">
        <ele>498.58</ele>
        <time>2022-07-23T07:42:56Z</time>
      </trkpt>
      <trkpt lat="46.12984" lon="2.42511">
        <ele>500.98</ele>
        <time>2022-07-23T07:43:12Z</time>
      </trkpt>
      <trkpt lat="46.12967" lon="2.42507">
        <ele>502.91</ele>
        <time>2022-07-23T07:43:26Z</time>
      </trkpt>
      <trkpt lat="46.1295" lon="2.42503">
        <ele>502.91</ele>
        <time>2022-07-23T07:43:41Z</time>
      </trkpt>
      <trkpt lat="46.12932" lon="2.425">
        <ele>504.35</ele>
        <time>2022-07-23T07:43:58Z</time>
      </trkpt>
      <trkpt lat="46.1293" lon="2.425">
        <ele>504.35</ele>
        <time>2022-07-23T07:43:59Z</time>
      </trkpt>
      <trkpt lat="46.12908" lon="2.42501">
        <ele>503.87</ele>
        <time>2022-07-23T07:44:19Z</time>
      </trkpt>
      <trkpt lat="46.1289" lon="2.42503">
        <ele>504.35</ele>
        <time>2022-07-23T07:44:35Z</time>
      </trkpt>
      <trkpt lat="46.12882" lon="2.42504">
        <ele>503.87</ele>
        <time>2022-07-23T07:44:42Z</time>
      </trkpt>
      <trkpt lat="46.12863" lon="2.42511">
        <ele>504.83</ele>
        <time>2022-07-23T07:44:59Z</time>
      </trkpt>
      <trkpt lat="46.12854" lon="2.42516">
        <ele>504.83</ele>
        <time>2022-07-23T07:45:08Z</time>
      </trkpt>
      <trkpt lat="46.12835" lon="2.42523">
        <ele>507.23</ele>
        <time>2022-07-23T07:45:24Z</time>
      </trkpt>
      <trkpt lat="46.12814" lon="2.42525">
        <ele>507.71</ele>
        <time>2022-07-23T07:45:42Z</time>
      </trkpt>
      <trkpt lat="46.12793" lon="2.42528">
        <ele>507.23</ele>
        <time>2022-07-23T07:46:00Z</time>
      </trkpt>
      <trkpt lat="46.12774" lon="2.42529">
        <ele>506.27</ele>
        <time>2022-07-23T07:46:16Z</time>
      </trkpt>
      <trkpt lat="46.12757" lon="2.42529">
        <ele>504.83</ele>
        <time>2022-07-23T07:46:31Z</time>
      </trkpt>
      <trkpt lat="46.12736" lon="2.42531">
        <ele>505.79</ele>
        <time>2022-07-23T07:46:48Z</time>
      </trkpt>
      <trkpt lat="46.12712" lon="2.42529">
        <ele>507.23</ele>
        <time>2022-07-23T07:47:08Z</time>
      </trkpt>
      <trkpt lat="46.12701" lon="2.42529">
        <ele>506.75</ele>
        <time>2022-07-23T07:47:17Z</time>
      </trkpt>
      <trkpt lat="46.12689" lon="2.42529">
        <ele>505.79</ele>
        <time>2022-07-23T07:47:27Z</time>
      </trkpt>
      <trkpt lat="46.12667" lon="2.42527">
        <ele>507.23</ele>
        <time>2022-07-23T07:47:46Z</time>
      </trkpt>
      <trkpt lat="46.12647" lon="2.42524">
        <ele>508.67</ele>
        <time>2022-07-23T07:48:03Z</time>
      </trkpt>
      <trkpt lat="46.12629" lon="2.4252">
        <ele>509.16</ele>
        <time>2022-07-23T07:48:20Z</time>
      </trkpt>
      <trkpt lat="46.12617" lon="2.42521">
        <ele>510.12</ele>
        <time>2022-07-23T07:48:36Z</time>
      </trkpt>
      <trkpt lat="46.12614" lon="2.42521">
        <ele>510.6</ele>
        <time>2022-07-23T07:48:39Z</time>
      </trkpt>
      <trkpt lat="46.12597" lon="2.42521">
        <ele>510.12</ele>
        <time>2022-07-23T07:48:54Z</time>
      </trkpt>
      <trkpt lat="46.12579" lon="2.4252">
        <ele>511.08</ele>
        <time>2022-07-23T07:49:09Z</time>
      </trkpt>
      <trkpt lat="46.12562" lon="2.42521">
        <ele>511.08</ele>
        <time>2022-07-23T07:49:23Z</time>
      </trkpt>
      <trkpt lat="46.12545" lon="2.4253">
        <ele>510.12</ele>
        <time>2022-07-23T07:49:39Z</time>
      </trkpt>
      <trkpt lat="46.12535" lon="2.42539">
        <ele>510.6</ele>
        <time>2022-07-23T07:49:50Z</time>
      </trkpt>
      <trkpt lat="46.12517" lon="2.42551">
        <ele>508.67</ele>
        <time>2022-07-23T07:50:07Z</time>
      </trkpt>
      <trkpt lat="46.12501" lon="2.4256">
        <ele>508.67</ele>
        <time>2022-07-23T07:50:22Z</time>
      </trkpt>
      <trkpt lat="46.1249" lon="2.42568">
        <ele>507.71</ele>
        <time>2022-07-23T07:50:32Z</time>
      </trkpt>
      <trkpt lat="46.12484" lon="2.42574">
        <ele>508.19</ele>
        <time>2022-07-23T07:50:38Z</time>
      </trkpt>
      <trkpt lat="46.12463" lon="2.42588">
        <ele>509.64</ele>
        <time>2022-07-23T07:50:57Z</time>
      </trkpt>
      <trkpt lat="46.12442" lon="2.42602">
        <ele>511.56</ele>
        <time>2022-07-23T07:51:15Z</time>
      </trkpt>
      <trkpt lat="46.12422" lon="2.42614">
        <ele>514.44</ele>
        <time>2022-07-23T07:51:32Z</time>
      </trkpt>
      <trkpt lat="46.124" lon="2.42627">
        <ele>514.92</ele>
        <time>2022-07-23T07:51:50Z</time>
      </trkpt>
      <trkpt lat="46.12392" lon="2.42632">
        <ele>515.4</ele>
        <time>2022-07-23T07:51:57Z</time>
      </trkpt>
      <trkpt lat="46.12375" lon="2.42647">
        <ele>515.88</ele>
        <time>2022-07-23T07:52:13Z</time>
      </trkpt>
      <trkpt lat="46.12361" lon="2.42661">
        <ele>515.88</ele>
        <time>2022-07-23T07:52:27Z</time>
      </trkpt>
      <trkpt lat="46.12356" lon="2.42664">
        <ele>516.37</ele>
        <time>2022-07-23T07:52:31Z</time>
      </trkpt>
      <trkpt lat="46.12354" lon="2.42664">
        <ele>516.85</ele>
        <time>2022-07-23T07:52:33Z</time>
      </trkpt>
      <trkpt lat="46.12338" lon="2.42647">
        <ele>515.88</ele>
        <time>2022-07-23T07:52:51Z</time>
      </trkpt>
      <trkpt lat="46.12336" lon="2.42641">
        <ele>515.4</ele>
        <time>2022-07-23T07:52:55Z</time>
      </trkpt>
      <trkpt lat="46.1232" lon="2.42619">
        <ele>514.44</ele>
        <time>2022-07-23T07:53:11Z</time>
      </trkpt>
      <trkpt lat="46.12307" lon="2.42604">
        <ele>515.4</ele>
        <time>2022-07-23T07:53:26Z</time>
      </trkpt>
      <trkpt lat="46.12293" lon="2.42588">
        <ele>515.88</ele>
        <time>2022-07-23T07:53:41Z</time>
      </trkpt>
      <trkpt lat="46.12279" lon="2.42575">
        <ele>517.81</ele>
        <time>2022-07-23T07:53:56Z</time>
      </trkpt>
      <trkpt lat="46.12266" lon="2.42577">
        <ele>518.29</ele>
        <time>2022-07-23T07:54:09Z</time>
      </trkpt>
      <trkpt lat="46.12248" lon="2.42582">
        <ele>518.77</ele>
        <time>2022-07-23T07:54:28Z</time>
      </trkpt>
      <trkpt lat="46.12244" lon="2.42584">
        <ele>519.73</ele>
        <time>2022-07-23T07:54:32Z</time>
      </trkpt>
      <trkpt lat="46.12234" lon="2.42587">
        <ele>522.61</ele>
        <time>2022-07-23T07:54:42Z</time>
      </trkpt>
      <trkpt lat="46.12226" lon="2.42589">
        <ele>523.58</ele>
        <time>2022-07-23T07:54:51Z</time>
      </trkpt>
      <trkpt lat="46.12219" lon="2.4259">
        <ele>524.54</ele>
        <time>2022-07-23T07:54:57Z</time>
      </trkpt>
      <trkpt lat="46.12212" lon="2.4259">
        <ele>524.06</ele>
        <time>2022-07-23T07:55:03Z</time>
      </trkpt>
      <trkpt lat="46.12195" lon="2.42594">
        <ele>524.06</ele>
        <time>2022-07-23T07:55:19Z</time>
      </trkpt>
      <trkpt lat="46.12194" lon="2.42594">
        <ele>524.06</ele>
        <time>2022-07-23T07:55:20Z</time>
      </trkpt>
      <trkpt lat="46.1219" lon="2.42596">
        <ele>525.02</ele>
        <time>2022-07-23T07:55:24Z</time>
      </trkpt>
      <trkpt lat="46.12171" lon="2.426">
        <ele>526.46</ele>
        <time>2022-07-23T07:55:40Z</time>
      </trkpt>
      <trkpt lat="46.12154" lon="2.42605">
        <ele>526.94</ele>
        <time>2022-07-23T07:55:56Z</time>
      </trkpt>
      <trkpt lat="46.1214" lon="2.42607">
        <ele>526.94</ele>
        <time>2022-07-23T07:56:08Z</time>
      </trkpt>
      <trkpt lat="46.12135" lon="2.42606">
        <ele>526.46</ele>
        <time>2022-07-23T07:56:12Z</time>
      </trkpt>
      <trkpt lat="46.12113" lon="2.42609">
        <ele>525.5</ele>
        <time>2022-07-23T07:56:31Z</time>
      </trkpt>
      <trkpt lat="46.12095" lon="2.4261">
        <ele>527.9</ele>
        <time>2022-07-23T07:56:46Z</time>
      </trkpt>
      <trkpt lat="46.12073" lon="2.42613">
        <ele>529.82</ele>
        <time>2022-07-23T07:57:05Z</time>
      </trkpt>
      <trkpt lat="46.12051" lon="2.42614">
        <ele>526.94</ele>
        <time>2022-07-23T07:57:24Z</time>
      </trkpt>
      <trkpt lat="46.12033" lon="2.42616">
        <ele>526.94</ele>
        <time>2022-07-23T07:57:40Z</time>
      </trkpt>
      <trkpt lat="46.12012" lon="2.42615">
        <ele>525.02</ele>
        <time>2022-07-23T07:57:58Z</time>
      </trkpt>
      <trkpt lat="46.11996" lon="2.42618">
        <ele>525.98</ele>
        <time>2022-07-23T07:58:12Z</time>
      </trkpt>
      <trkpt lat="46.11981" lon="2.42617">
        <ele>527.42</ele>
        <time>2022-07-23T07:58:25Z</time>
      </trkpt>
      <trkpt lat="46.11957" lon="2.42612">
        <ele>532.23</ele>
        <time>2022-07-23T07:58:46Z</time>
      </trkpt>
      <trkpt lat="46.11937" lon="2.426">
        <ele>537.51</ele>
        <time>2022-07-23T07:59:05Z</time>
      </trkpt>
      <trkpt lat="46.11919" lon="2.42585">
        <ele>540.4</ele>
        <time>2022-07-23T07:59:22Z</time>
      </trkpt>
      <trkpt lat="46.11902" lon="2.42573">
        <ele>540.88</ele>
        <time>2022-07-23T07:59:39Z</time>
      </trkpt>
      <trkpt lat="46.11884" lon="2.42558">
        <ele>540.88</ele>
        <time>2022-07-23T07:59:58Z</time>
      </trkpt>
      <trkpt lat="46.11874" lon="2.42552">
        <ele>541.36</ele>
        <time>2022-07-23T08:00:09Z</time>
      </trkpt>
      <trkpt lat="46.11856" lon="2.42542">
        <ele>540.88</ele>
        <time>2022-07-23T08:00:25Z</time>
      </trkpt>
      <trkpt lat="46.11843" lon="2.42537">
        <ele>542.8</ele>
        <time>2022-07-23T08:00:37Z</time>
      </trkpt>
      <trkpt lat="46.11827" lon="2.42534">
        <ele>545.69</ele>
        <time>2022-07-23T08:00:52Z</time>
      </trkpt>
      <trkpt lat="46.1181" lon="2.42528">
        <ele>546.65</ele>
        <time>2022-07-23T08:01:08Z</time>
      </trkpt>
      <trkpt lat="46.11801" lon="2.42534">
        <ele>544.72</ele>
        <time>2022-07-23T08:01:17Z</time>
      </trkpt>
      <trkpt lat="46.11796" lon="2.42544">
        <ele>544.72</ele>
        <time>2022-07-23T08:01:25Z</time>
      </trkpt>
      <trkpt lat="46.11781" lon="2.42556">
        <ele>541.84</ele>
        <time>2022-07-23T08:01:41Z</time>
      </trkpt>
      <trkpt lat="46.11774" lon="2.4256">
        <ele>539.92</ele>
        <time>2022-07-23T08:01:54Z</time>
      </trkpt>
      <trkpt lat="46.11767" lon="2.42555">
        <ele>540.4</ele>
        <time>2022-07-23T08:02:08Z</time>
      </trkpt>
      <trkpt lat="46.11768" lon="2.42553">
        <ele>540.88</ele>
        <time>2022-07-23T08:02:23Z</time>
      </trkpt>
      <trkpt lat="46.11767" lon="2.42554">
        <ele>545.2</ele>
        <time>2022-07-23T08:02:55Z</time>
      </trkpt>
      <trkpt lat="46.11768" lon="2.42551">
        <ele>544.24</ele>
        <time>2022-07-23T08:03:22Z</time>
      </trkpt>
      <trkpt lat="46.11765" lon="2.42556">
        <ele>546.65</ele>
        <time>2022-07-23T08:03:57Z</time>
      </trkpt>
      <trkpt lat="46.11765" lon="2.42559">
        <ele>545.2</ele>
        <time>2022-07-23T08:04:24Z</time>
      </trkpt>
      <trkpt lat="46.11765" lon="2.4256">
        <ele>544.72</ele>
        <time>2022-07-23T08:04:44Z</time>
      </trkpt>
      <trkpt lat="46.11765" lon="2.4256">
        <ele>544.72</ele>
        <time>2022-07-23T08:05:06Z</time>
      </trkpt>
      <trkpt lat="46.11766" lon="2.42562">
        <ele>545.2</ele>
        <time>2022-07-23T08:05:32Z</time>
      </trkpt>
      <trkpt lat="46.11766" lon="2.4256">
        <ele>546.17</ele>
        <time>2022-07-23T08:05:57Z</time>
      </trkpt>
      <trkpt lat="46.11765" lon="2.42559">
        <ele>548.57</ele>
        <time>2022-07-23T08:06:21Z</time>
      </trkpt>
      <trkpt lat="46.11765" lon="2.4256">
        <ele>547.13</ele>
        <time>2022-07-23T08:06:53Z</time>
      </trkpt>
      <trkpt lat="46.11766" lon="2.4256">
        <ele>544.24</ele>
        <time>2022-07-23T08:07:14Z</time>
      </trkpt>
      <trkpt lat="46.11765" lon="2.42562">
        <ele>546.17</ele>
        <time>2022-07-23T08:07:40Z</time>
      </trkpt>
      <trkpt lat="46.11765" lon="2.42559">
        <ele>544.24</ele>
        <time>2022-07-23T08:08:13Z</time>
      </trkpt>
      <trkpt lat="46.11765" lon="2.42558">
        <ele>542.8</ele>
        <time>2022-07-23T08:08:44Z</time>
      </trkpt>
      <trkpt lat="46.11767" lon="2.42557">
        <ele>541.84</ele>
        <time>2022-07-23T08:09:15Z</time>
      </trkpt>
      <trkpt lat="46.11766" lon="2.42564">
        <ele>545.2</ele>
        <time>2022-07-23T08:09:46Z</time>
      </trkpt>
      <trkpt lat="46.11767" lon="2.42558">
        <ele>542.32</ele>
        <time>2022-07-23T08:10:08Z</time>
      </trkpt>
      <trkpt lat="46.11767" lon="2.42555">
        <ele>539.44</ele>
        <time>2022-07-23T08:10:24Z</time>
      </trkpt>
      <trkpt lat="46.11768" lon="2.42552">
        <ele>540.4</ele>
        <time>2022-07-23T08:10:50Z</time>
      </trkpt>
      <trkpt lat="46.11772" lon="2.42557">
        <ele>539.44</ele>
        <time>2022-07-23T08:11:01Z</time>
      </trkpt>
      <trkpt lat="46.11773" lon="2.42567">
        <ele>541.84</ele>
        <time>2022-07-23T08:11:07Z</time>
      </trkpt>
      <trkpt lat="46.11772" lon="2.42577">
        <ele>542.8</ele>
        <time>2022-07-23T08:11:13Z</time>
      </trkpt>
      <trkpt lat="46.11762" lon="2.42603">
        <ele>542.8</ele>
        <time>2022-07-23T08:11:32Z</time>
      </trkpt>
      <trkpt lat="46.11762" lon="2.42606">
        <ele>540.88</ele>
        <time>2022-07-23T08:11:49Z</time>
      </trkpt>
      <trkpt lat="46.11761" lon="2.42606">
        <ele>541.36</ele>
        <time>2022-07-23T08:12:05Z</time>
      </trkpt>
      <trkpt lat="46.11762" lon="2.42606">
        <ele>543.76</ele>
        <time>2022-07-23T08:12:23Z</time>
      </trkpt>
      <trkpt lat="46.11762" lon="2.42608">
        <ele>543.76</ele>
        <time>2022-07-23T08:12:38Z</time>
      </trkpt>
      <trkpt lat="46.11762" lon="2.42606">
        <ele>546.65</ele>
        <time>2022-07-23T08:13:01Z</time>
      </trkpt>
      <trkpt lat="46.11762" lon="2.42617">
        <ele>548.57</ele>
        <time>2022-07-23T08:13:21Z</time>
      </trkpt>
      <trkpt lat="46.11756" lon="2.42645">
        <ele>548.09</ele>
        <time>2022-07-23T08:13:38Z</time>
      </trkpt>
      <trkpt lat="46.11753" lon="2.42681">
        <ele>545.69</ele>
        <time>2022-07-23T08:13:59Z</time>
      </trkpt>
      <trkpt lat="46.11753" lon="2.42714">
        <ele>545.2</ele>
        <time>2022-07-23T08:14:18Z</time>
      </trkpt>
      <trkpt lat="46.11755" lon="2.4275">
        <ele>542.8</ele>
        <time>2022-07-23T08:14:38Z</time>
      </trkpt>
      <trkpt lat="46.11757" lon="2.42789">
        <ele>542.8</ele>
        <time>2022-07-23T08:15:00Z</time>
      </trkpt>
      <trkpt lat="46.11759" lon="2.42822">
        <ele>546.65</ele>
        <time>2022-07-23T08:15:18Z</time>
      </trkpt>
      <trkpt lat="46.11763" lon="2.42852">
        <ele>547.61</ele>
        <time>2022-07-23T08:15:36Z</time>
      </trkpt>
      <trkpt lat="46.1178" lon="2.42869">
        <ele>542.8</ele>
        <time>2022-07-23T08:15:53Z</time>
      </trkpt>
      <trkpt lat="46.11799" lon="2.42889">
        <ele>538.96</ele>
        <time>2022-07-23T08:16:12Z</time>
      </trkpt>
      <trkpt lat="46.11818" lon="2.42907">
        <ele>537.51</ele>
        <time>2022-07-23T08:16:32Z</time>
      </trkpt>
      <trkpt lat="46.11834" lon="2.4293">
        <ele>533.67</ele>
        <time>2022-07-23T08:16:52Z</time>
      </trkpt>
      <trkpt lat="46.11845" lon="2.42955">
        <ele>534.63</ele>
        <time>2022-07-23T08:17:10Z</time>
      </trkpt>
      <trkpt lat="46.11858" lon="2.4298">
        <ele>535.11</ele>
        <time>2022-07-23T08:17:26Z</time>
      </trkpt>
      <trkpt lat="46.11872" lon="2.43009">
        <ele>533.19</ele>
        <time>2022-07-23T08:17:46Z</time>
      </trkpt>
      <trkpt lat="46.11887" lon="2.43042">
        <ele>532.23</ele>
        <time>2022-07-23T08:18:08Z</time>
      </trkpt>
      <trkpt lat="46.119" lon="2.43071">
        <ele>531.27</ele>
        <time>2022-07-23T08:18:28Z</time>
      </trkpt>
      <trkpt lat="46.11914" lon="2.43103">
        <ele>529.34</ele>
        <time>2022-07-23T08:18:50Z</time>
      </trkpt>
      <trkpt lat="46.11928" lon="2.43137">
        <ele>529.82</ele>
        <time>2022-07-23T08:19:12Z</time>
      </trkpt>
      <trkpt lat="46.1194" lon="2.43165">
        <ele>532.23</ele>
        <time>2022-07-23T08:19:31Z</time>
      </trkpt>
      <trkpt lat="46.1195" lon="2.43186">
        <ele>534.15</ele>
        <time>2022-07-23T08:19:46Z</time>
      </trkpt>
      <trkpt lat="46.11962" lon="2.43216">
        <ele>535.59</ele>
        <time>2022-07-23T08:20:06Z</time>
      </trkpt>
      <trkpt lat="46.11971" lon="2.43243">
        <ele>537.03</ele>
        <time>2022-07-23T08:20:25Z</time>
      </trkpt>
      <trkpt lat="46.11969" lon="2.43244">
        <ele>537.03</ele>
        <time>2022-07-23T08:20:44Z</time>
      </trkpt>
      <trkpt lat="46.11975" lon="2.43255">
        <ele>535.59</ele>
        <time>2022-07-23T08:21:04Z</time>
      </trkpt>
      <trkpt lat="46.11981" lon="2.43286">
        <ele>536.07</ele>
        <time>2022-07-23T08:21:23Z</time>
      </trkpt>
      <trkpt lat="46.1198" lon="2.43315">
        <ele>537.03</ele>
        <time>2022-07-23T08:21:41Z</time>
      </trkpt>
      <trkpt lat="46.11975" lon="2.43327">
        <ele>537.03</ele>
        <time>2022-07-23T08:21:59Z</time>
      </trkpt>
      <trkpt lat="46.11973" lon="2.43338">
        <ele>537.03</ele>
        <time>2022-07-23T08:22:21Z</time>
      </trkpt>
      <trkpt lat="46.11968" lon="2.43366">
        <ele>535.11</ele>
        <time>2022-07-23T08:22:38Z</time>
      </trkpt>
      <trkpt lat="46.11961" lon="2.43403">
        <ele>534.15</ele>
        <time>2022-07-23T08:22:59Z</time>
      </trkpt>
      <trkpt lat="46.11955" lon="2.43434">
        <ele>533.19</ele>
        <time>2022-07-23T08:23:20Z</time>
      </trkpt>
      <trkpt lat="46.11944" lon="2.43466">
        <ele>533.19</ele>
        <time>2022-07-23T08:23:40Z</time>
      </trkpt>
      <trkpt lat="46.11939" lon="2.43496">
        <ele>531.75</ele>
        <time>2022-07-23T08:23:58Z</time>
      </trkpt>
      <trkpt lat="46.1194" lon="2.43525">
        <ele>525.5</ele>
        <time>2022-07-23T08:24:17Z</time>
      </trkpt>
      <trkpt lat="46.11943" lon="2.43555">
        <ele>521.65</ele>
        <time>2022-07-23T08:24:37Z</time>
      </trkpt>
      <trkpt lat="46.11945" lon="2.43584">
        <ele>519.25</ele>
        <time>2022-07-23T08:24:54Z</time>
      </trkpt>
      <trkpt lat="46.11946" lon="2.43588">
        <ele>518.77</ele>
        <time>2022-07-23T08:24:57Z</time>
      </trkpt>
      <trkpt lat="46.11947" lon="2.43594">
        <ele>517.81</ele>
        <time>2022-07-23T08:25:01Z</time>
      </trkpt>
      <trkpt lat="46.1195" lon="2.43624">
        <ele>516.37</ele>
        <time>2022-07-23T08:25:18Z</time>
      </trkpt>
      <trkpt lat="46.11952" lon="2.43644">
        <ele>514.92</ele>
        <time>2022-07-23T08:25:30Z</time>
      </trkpt>
      <trkpt lat="46.11956" lon="2.43672">
        <ele>510.6</ele>
        <time>2022-07-23T08:25:48Z</time>
      </trkpt>
      <trkpt lat="46.11959" lon="2.43688">
        <ele>506.75</ele>
        <time>2022-07-23T08:26:08Z</time>
      </trkpt>
      <trkpt lat="46.11966" lon="2.43721">
        <ele>506.75</ele>
        <time>2022-07-23T08:26:28Z</time>
      </trkpt>
      <trkpt lat="46.11974" lon="2.43754">
        <ele>505.79</ele>
        <time>2022-07-23T08:26:49Z</time>
      </trkpt>
      <trkpt lat="46.11982" lon="2.43785">
        <ele>502.91</ele>
        <time>2022-07-23T08:27:09Z</time>
      </trkpt>
      <trkpt lat="46.11988" lon="2.43819">
        <ele>500.02</ele>
        <time>2022-07-23T08:27:29Z</time>
      </trkpt>
      <trkpt lat="46.11989" lon="2.4382">
        <ele>500.02</ele>
        <time>2022-07-23T08:27:30Z</time>
      </trkpt>
      <trkpt lat="46.11997" lon="2.4385">
        <ele>497.62</ele>
        <time>2022-07-23T08:27:49Z</time>
      </trkpt>
      <trkpt lat="46.12014" lon="2.4387">
        <ele>499.06</ele>
        <time>2022-07-23T08:28:06Z</time>
      </trkpt>
      <trkpt lat="46.12015" lon="2.43873">
        <ele>500.02</ele>
        <time>2022-07-23T08:28:13Z</time>
      </trkpt>
      <trkpt lat="46.12005" lon="2.43897">
        <ele>498.58</ele>
        <time>2022-07-23T08:28:30Z</time>
      </trkpt>
      <trkpt lat="46.12" lon="2.43907">
        <ele>497.62</ele>
        <time>2022-07-23T08:28:37Z</time>
      </trkpt>
      <trkpt lat="46.1199" lon="2.43923">
        <ele>497.62</ele>
        <time>2022-07-23T08:28:50Z</time>
      </trkpt>
      <trkpt lat="46.11976" lon="2.4394">
        <ele>498.1</ele>
        <time>2022-07-23T08:29:04Z</time>
      </trkpt>
      <trkpt lat="46.11971" lon="2.43943">
        <ele>498.1</ele>
        <time>2022-07-23T08:29:08Z</time>
      </trkpt>
      <trkpt lat="46.11951" lon="2.43963">
        <ele>496.66</ele>
        <time>2022-07-23T08:29:28Z</time>
      </trkpt>
      <trkpt lat="46.11947" lon="2.43966">
        <ele>496.18</ele>
        <time>2022-07-23T08:29:32Z</time>
      </trkpt>
      <trkpt lat="46.11939" lon="2.43968">
        <ele>493.77</ele>
        <time>2022-07-23T08:29:39Z</time>
      </trkpt>
      <trkpt lat="46.11935" lon="2.4397">
        <ele>493.29</ele>
        <time>2022-07-23T08:29:43Z</time>
      </trkpt>
      <trkpt lat="46.11922" lon="2.43967">
        <ele>490.41</ele>
        <time>2022-07-23T08:29:55Z</time>
      </trkpt>
      <trkpt lat="46.11905" lon="2.43954">
        <ele>486.08</ele>
        <time>2022-07-23T08:30:10Z</time>
      </trkpt>
      <trkpt lat="46.11889" lon="2.4394">
        <ele>482.72</ele>
        <time>2022-07-23T08:30:25Z</time>
      </trkpt>
      <trkpt lat="46.11881" lon="2.43932">
        <ele>480.8</ele>
        <time>2022-07-23T08:30:37Z</time>
      </trkpt>
      <trkpt lat="46.11871" lon="2.43925">
        <ele>479.35</ele>
        <time>2022-07-23T08:30:46Z</time>
      </trkpt>
      <trkpt lat="46.11866" lon="2.43924">
        <ele>478.39</ele>
        <time>2022-07-23T08:30:50Z</time>
      </trkpt>
      <trkpt lat="46.11847" lon="2.43933">
        <ele>479.84</ele>
        <time>2022-07-23T08:31:07Z</time>
      </trkpt>
      <trkpt lat="46.11838" lon="2.43957">
        <ele>487.05</ele>
        <time>2022-07-23T08:31:23Z</time>
      </trkpt>
      <trkpt lat="46.11827" lon="2.43978">
        <ele>492.33</ele>
        <time>2022-07-23T08:31:40Z</time>
      </trkpt>
      <trkpt lat="46.11818" lon="2.43982">
        <ele>492.81</ele>
        <time>2022-07-23T08:31:48Z</time>
      </trkpt>
      <trkpt lat="46.11808" lon="2.43982">
        <ele>493.77</ele>
        <time>2022-07-23T08:31:57Z</time>
      </trkpt>
      <trkpt lat="46.11789" lon="2.43985">
        <ele>494.74</ele>
        <time>2022-07-23T08:32:14Z</time>
      </trkpt>
      <trkpt lat="46.11771" lon="2.43989">
        <ele>496.66</ele>
        <time>2022-07-23T08:32:30Z</time>
      </trkpt>
      <trkpt lat="46.11749" lon="2.43994">
        <ele>498.1</ele>
        <time>2022-07-23T08:32:49Z</time>
      </trkpt>
      <trkpt lat="46.11731" lon="2.43997">
        <ele>498.58</ele>
        <time>2022-07-23T08:33:05Z</time>
      </trkpt>
      <trkpt lat="46.11708" lon="2.44003">
        <ele>497.62</ele>
        <time>2022-07-23T08:33:26Z</time>
      </trkpt>
      <trkpt lat="46.11689" lon="2.44008">
        <ele>495.22</ele>
        <time>2022-07-23T08:33:43Z</time>
      </trkpt>
      <trkpt lat="46.11666" lon="2.44013">
        <ele>493.29</ele>
        <time>2022-07-23T08:34:02Z</time>
      </trkpt>
      <trkpt lat="46.11649" lon="2.44015">
        <ele>490.41</ele>
        <time>2022-07-23T08:34:17Z</time>
      </trkpt>
      <trkpt lat="46.11631" lon="2.44009">
        <ele>488.49</ele>
        <time>2022-07-23T08:34:33Z</time>
      </trkpt>
      <trkpt lat="46.11614" lon="2.43999">
        <ele>486.08</ele>
        <time>2022-07-23T08:34:49Z</time>
      </trkpt>
      <trkpt lat="46.11595" lon="2.43987">
        <ele>484.16</ele>
        <time>2022-07-23T08:35:07Z</time>
      </trkpt>
      <trkpt lat="46.11579" lon="2.43968">
        <ele>481.28</ele>
        <time>2022-07-23T08:35:25Z</time>
      </trkpt>
      <trkpt lat="46.11564" lon="2.43951">
        <ele>478.87</ele>
        <time>2022-07-23T08:35:41Z</time>
      </trkpt>
      <trkpt lat="46.11552" lon="2.43935">
        <ele>477.91</ele>
        <time>2022-07-23T08:35:54Z</time>
      </trkpt>
      <trkpt lat="46.11543" lon="2.43925">
        <ele>476.95</ele>
        <time>2022-07-23T08:36:02Z</time>
      </trkpt>
      <trkpt lat="46.11538" lon="2.43921">
        <ele>476.47</ele>
        <time>2022-07-23T08:36:07Z</time>
      </trkpt>
      <trkpt lat="46.11521" lon="2.43911">
        <ele>476.95</ele>
        <time>2022-07-23T08:36:22Z</time>
      </trkpt>
      <trkpt lat="46.11508" lon="2.43905">
        <ele>479.35</ele>
        <time>2022-07-23T08:36:34Z</time>
      </trkpt>
      <trkpt lat="46.11489" lon="2.439">
        <ele>481.76</ele>
        <time>2022-07-23T08:36:52Z</time>
      </trkpt>
      <trkpt lat="46.11472" lon="2.43898">
        <ele>482.24</ele>
        <time>2022-07-23T08:37:09Z</time>
      </trkpt>
      <trkpt lat="46.11461" lon="2.43893">
        <ele>484.16</ele>
        <time>2022-07-23T08:37:19Z</time>
      </trkpt>
      <trkpt lat="46.11443" lon="2.43883">
        <ele>488.97</ele>
        <time>2022-07-23T08:37:37Z</time>
      </trkpt>
      <trkpt lat="46.11429" lon="2.43876">
        <ele>491.85</ele>
        <time>2022-07-23T08:37:51Z</time>
      </trkpt>
      <trkpt lat="46.11415" lon="2.43872">
        <ele>494.74</ele>
        <time>2022-07-23T08:38:04Z</time>
      </trkpt>
      <trkpt lat="46.11406" lon="2.43871">
        <ele>495.22</ele>
        <time>2022-07-23T08:38:12Z</time>
      </trkpt>
      <trkpt lat="46.11396" lon="2.43872">
        <ele>493.29</ele>
        <time>2022-07-23T08:38:20Z</time>
      </trkpt>
      <trkpt lat="46.11389" lon="2.43872">
        <ele>490.41</ele>
        <time>2022-07-23T08:38:27Z</time>
      </trkpt>
      <trkpt lat="46.11385" lon="2.43875">
        <ele>489.45</ele>
        <time>2022-07-23T08:38:31Z</time>
      </trkpt>
      <trkpt lat="46.11383" lon="2.43875">
        <ele>488.01</ele>
        <time>2022-07-23T08:38:33Z</time>
      </trkpt>
      <trkpt lat="46.1137" lon="2.43882">
        <ele>484.16</ele>
        <time>2022-07-23T08:38:46Z</time>
      </trkpt>
      <trkpt lat="46.11367" lon="2.43885">
        <ele>482.72</ele>
        <time>2022-07-23T08:38:49Z</time>
      </trkpt>
      <trkpt lat="46.1136" lon="2.43891">
        <ele>481.76</ele>
        <time>2022-07-23T08:38:56Z</time>
      </trkpt>
      <trkpt lat="46.11342" lon="2.43897">
        <ele>479.35</ele>
        <time>2022-07-23T08:39:12Z</time>
      </trkpt>
      <trkpt lat="46.11331" lon="2.43899">
        <ele>480.32</ele>
        <time>2022-07-23T08:39:21Z</time>
      </trkpt>
      <trkpt lat="46.1132" lon="2.439">
        <ele>478.39</ele>
        <time>2022-07-23T08:39:31Z</time>
      </trkpt>
      <trkpt lat="46.11302" lon="2.43897">
        <ele>474.07</ele>
        <time>2022-07-23T08:39:47Z</time>
      </trkpt>
      <trkpt lat="46.11285" lon="2.43894">
        <ele>471.66</ele>
        <time>2022-07-23T08:40:01Z</time>
      </trkpt>
      <trkpt lat="46.11274" lon="2.43893">
        <ele>469.74</ele>
        <time>2022-07-23T08:40:14Z</time>
      </trkpt>
      <trkpt lat="46.1126" lon="2.43895">
        <ele>467.82</ele>
        <time>2022-07-23T08:40:26Z</time>
      </trkpt>
      <trkpt lat="46.11242" lon="2.43904">
        <ele>469.26</ele>
        <time>2022-07-23T08:40:42Z</time>
      </trkpt>
      <trkpt lat="46.11226" lon="2.43913">
        <ele>470.7</ele>
        <time>2022-07-23T08:40:57Z</time>
      </trkpt>
      <trkpt lat="46.11213" lon="2.43927">
        <ele>476.47</ele>
        <time>2022-07-23T08:41:09Z</time>
      </trkpt>
      <trkpt lat="46.11201" lon="2.43943">
        <ele>482.24</ele>
        <time>2022-07-23T08:41:22Z</time>
      </trkpt>
      <trkpt lat="46.11187" lon="2.43961">
        <ele>483.68</ele>
        <time>2022-07-23T08:41:38Z</time>
      </trkpt>
      <trkpt lat="46.11175" lon="2.43975">
        <ele>487.05</ele>
        <time>2022-07-23T08:41:52Z</time>
      </trkpt>
      <trkpt lat="46.11163" lon="2.43981">
        <ele>487.53</ele>
        <time>2022-07-23T08:42:05Z</time>
      </trkpt>
      <trkpt lat="46.11153" lon="2.43981">
        <ele>487.05</ele>
        <time>2022-07-23T08:42:16Z</time>
      </trkpt>
      <trkpt lat="46.11138" lon="2.43978">
        <ele>483.68</ele>
        <time>2022-07-23T08:42:29Z</time>
      </trkpt>
      <trkpt lat="46.11125" lon="2.43974">
        <ele>485.12</ele>
        <time>2022-07-23T08:42:42Z</time>
      </trkpt>
      <trkpt lat="46.11123" lon="2.43972">
        <ele>485.6</ele>
        <time>2022-07-23T08:42:44Z</time>
      </trkpt>
      <trkpt lat="46.1111" lon="2.43963">
        <ele>487.05</ele>
        <time>2022-07-23T08:42:57Z</time>
      </trkpt>
      <trkpt lat="46.11101" lon="2.43954">
        <ele>488.49</ele>
        <time>2022-07-23T08:43:07Z</time>
      </trkpt>
      <trkpt lat="46.11086" lon="2.43939">
        <ele>489.45</ele>
        <time>2022-07-23T08:43:23Z</time>
      </trkpt>
      <trkpt lat="46.11075" lon="2.43929">
        <ele>489.45</ele>
        <time>2022-07-23T08:43:34Z</time>
      </trkpt>
      <trkpt lat="46.11061" lon="2.43918">
        <ele>491.85</ele>
        <time>2022-07-23T08:43:48Z</time>
      </trkpt>
      <trkpt lat="46.1105" lon="2.43907">
        <ele>495.22</ele>
        <time>2022-07-23T08:44:00Z</time>
      </trkpt>
      <trkpt lat="46.11046" lon="2.43903">
        <ele>496.66</ele>
        <time>2022-07-23T08:44:06Z</time>
      </trkpt>
      <trkpt lat="46.11034" lon="2.43888">
        <ele>499.06</ele>
        <time>2022-07-23T08:44:21Z</time>
      </trkpt>
      <trkpt lat="46.11022" lon="2.4387">
        <ele>500.98</ele>
        <time>2022-07-23T08:44:36Z</time>
      </trkpt>
      <trkpt lat="46.1101" lon="2.4385">
        <ele>500.5</ele>
        <time>2022-07-23T08:44:53Z</time>
      </trkpt>
      <trkpt lat="46.11001" lon="2.43832">
        <ele>500.98</ele>
        <time>2022-07-23T08:45:06Z</time>
      </trkpt>
      <trkpt lat="46.10989" lon="2.43809">
        <ele>503.39</ele>
        <time>2022-07-23T08:45:22Z</time>
      </trkpt>
      <trkpt lat="46.1098" lon="2.43787">
        <ele>502.43</ele>
        <time>2022-07-23T08:45:38Z</time>
      </trkpt>
      <trkpt lat="46.10971" lon="2.43764">
        <ele>505.79</ele>
        <time>2022-07-23T08:45:53Z</time>
      </trkpt>
      <trkpt lat="46.10965" lon="2.43742">
        <ele>507.23</ele>
        <time>2022-07-23T08:46:08Z</time>
      </trkpt>
      <trkpt lat="46.10958" lon="2.43721">
        <ele>508.67</ele>
        <time>2022-07-23T08:46:24Z</time>
      </trkpt>
      <trkpt lat="46.10959" lon="2.43721">
        <ele>510.12</ele>
        <time>2022-07-23T08:46:44Z</time>
      </trkpt>
      <trkpt lat="46.10957" lon="2.43719">
        <ele>507.71</ele>
        <time>2022-07-23T08:47:11Z</time>
      </trkpt>
      <trkpt lat="46.10952" lon="2.43722">
        <ele>507.71</ele>
        <time>2022-07-23T08:47:32Z</time>
      </trkpt>
      <trkpt lat="46.10944" lon="2.43721">
        <ele>506.27</ele>
        <time>2022-07-23T08:47:48Z</time>
      </trkpt>
      <trkpt lat="46.10934" lon="2.43721">
        <ele>507.71</ele>
        <time>2022-07-23T08:48:03Z</time>
      </trkpt>
      <trkpt lat="46.10918" lon="2.43723">
        <ele>507.23</ele>
        <time>2022-07-23T08:48:18Z</time>
      </trkpt>
      <trkpt lat="46.10905" lon="2.43727">
        <ele>506.27</ele>
        <time>2022-07-23T08:48:28Z</time>
      </trkpt>
      <trkpt lat="46.10898" lon="2.4373">
        <ele>506.27</ele>
        <time>2022-07-23T08:48:34Z</time>
      </trkpt>
      <trkpt lat="46.10886" lon="2.43747">
        <ele>506.27</ele>
        <time>2022-07-23T08:48:50Z</time>
      </trkpt>
      <trkpt lat="46.10874" lon="2.43757">
        <ele>509.16</ele>
        <time>2022-07-23T08:49:04Z</time>
      </trkpt>
      <trkpt lat="46.10862" lon="2.4376">
        <ele>511.08</ele>
        <time>2022-07-23T08:49:17Z</time>
      </trkpt>
      <trkpt lat="46.1086" lon="2.43759">
        <ele>511.56</ele>
        <time>2022-07-23T08:49:19Z</time>
      </trkpt>
      <trkpt lat="46.10839" lon="2.43758">
        <ele>513</ele>
        <time>2022-07-23T08:49:35Z</time>
      </trkpt>
      <trkpt lat="46.10822" lon="2.43753">
        <ele>514.92</ele>
        <time>2022-07-23T08:49:50Z</time>
      </trkpt>
      <trkpt lat="46.10804" lon="2.43753">
        <ele>515.4</ele>
        <time>2022-07-23T08:50:08Z</time>
      </trkpt>
      <trkpt lat="46.10785" lon="2.43751">
        <ele>516.85</ele>
        <time>2022-07-23T08:50:26Z</time>
      </trkpt>
      <trkpt lat="46.1077" lon="2.4375">
        <ele>517.81</ele>
        <time>2022-07-23T08:50:40Z</time>
      </trkpt>
      <trkpt lat="46.10756" lon="2.43746">
        <ele>517.81</ele>
        <time>2022-07-23T08:50:53Z</time>
      </trkpt>
      <trkpt lat="46.1074" lon="2.43745">
        <ele>516.85</ele>
        <time>2022-07-23T08:51:07Z</time>
      </trkpt>
      <trkpt lat="46.10719" lon="2.43743">
        <ele>516.85</ele>
        <time>2022-07-23T08:51:25Z</time>
      </trkpt>
      <trkpt lat="46.10701" lon="2.43741">
        <ele>517.81</ele>
        <time>2022-07-23T08:51:41Z</time>
      </trkpt>
      <trkpt lat="46.10682" lon="2.4374">
        <ele>518.77</ele>
        <time>2022-07-23T08:51:56Z</time>
      </trkpt>
      <trkpt lat="46.10663" lon="2.43738">
        <ele>522.13</ele>
        <time>2022-07-23T08:52:10Z</time>
      </trkpt>
      <trkpt lat="46.10646" lon="2.43737">
        <ele>522.61</ele>
        <time>2022-07-23T08:52:24Z</time>
      </trkpt>
      <trkpt lat="46.10631" lon="2.43737">
        <ele>517.33</ele>
        <time>2022-07-23T08:52:39Z</time>
      </trkpt>
      <trkpt lat="46.10618" lon="2.43735">
        <ele>519.25</ele>
        <time>2022-07-23T08:52:53Z</time>
      </trkpt>
      <trkpt lat="46.1061" lon="2.43733">
        <ele>520.21</ele>
        <time>2022-07-23T08:53:04Z</time>
      </trkpt>
      <trkpt lat="46.10598" lon="2.43729">
        <ele>521.65</ele>
        <time>2022-07-23T08:53:15Z</time>
      </trkpt>
      <trkpt lat="46.10576" lon="2.43712">
        <ele>526.46</ele>
        <time>2022-07-23T08:53:36Z</time>
      </trkpt>
      <trkpt lat="46.10558" lon="2.43705">
        <ele>526.94</ele>
        <time>2022-07-23T08:53:52Z</time>
      </trkpt>
      <trkpt lat="46.10542" lon="2.437">
        <ele>527.9</ele>
        <time>2022-07-23T08:54:07Z</time>
      </trkpt>
      <trkpt lat="46.10521" lon="2.43697">
        <ele>530.3</ele>
        <time>2022-07-23T08:54:24Z</time>
      </trkpt>
      <trkpt lat="46.10512" lon="2.43692">
        <ele>531.75</ele>
        <time>2022-07-23T08:54:38Z</time>
      </trkpt>
      <trkpt lat="46.10511" lon="2.43689">
        <ele>534.15</ele>
        <time>2022-07-23T08:54:57Z</time>
      </trkpt>
      <trkpt lat="46.10511" lon="2.43689">
        <ele>533.67</ele>
        <time>2022-07-23T08:54:58Z</time>
      </trkpt>
      <trkpt lat="46.10496" lon="2.43682">
        <ele>534.15</ele>
        <time>2022-07-23T08:55:14Z</time>
      </trkpt>
      <trkpt lat="46.10489" lon="2.43677">
        <ele>533.67</ele>
        <time>2022-07-23T08:55:20Z</time>
      </trkpt>
      <trkpt lat="46.1047" lon="2.43667">
        <ele>533.19</ele>
        <time>2022-07-23T08:55:38Z</time>
      </trkpt>
      <trkpt lat="46.10453" lon="2.43658">
        <ele>532.71</ele>
        <time>2022-07-23T08:55:54Z</time>
      </trkpt>
      <trkpt lat="46.10435" lon="2.43648">
        <ele>533.19</ele>
        <time>2022-07-23T08:56:10Z</time>
      </trkpt>
      <trkpt lat="46.10412" lon="2.43635">
        <ele>532.71</ele>
        <time>2022-07-23T08:56:31Z</time>
      </trkpt>
      <trkpt lat="46.10393" lon="2.43624">
        <ele>530.3</ele>
        <time>2022-07-23T08:56:48Z</time>
      </trkpt>
      <trkpt lat="46.10381" lon="2.43612">
        <ele>529.82</ele>
        <time>2022-07-23T08:57:03Z</time>
      </trkpt>
      <trkpt lat="46.10377" lon="2.43588">
        <ele>527.42</ele>
        <time>2022-07-23T08:57:19Z</time>
      </trkpt>
      <trkpt lat="46.10374" lon="2.4356">
        <ele>528.38</ele>
        <time>2022-07-23T08:57:36Z</time>
      </trkpt>
      <trkpt lat="46.10371" lon="2.43533">
        <ele>530.3</ele>
        <time>2022-07-23T08:57:52Z</time>
      </trkpt>
      <trkpt lat="46.10363" lon="2.43502">
        <ele>533.67</ele>
        <time>2022-07-23T08:58:11Z</time>
      </trkpt>
      <trkpt lat="46.10354" lon="2.43471">
        <ele>537.03</ele>
        <time>2022-07-23T08:58:30Z</time>
      </trkpt>
      <trkpt lat="46.10354" lon="2.43468">
        <ele>538.96</ele>
        <time>2022-07-23T08:58:50Z</time>
      </trkpt>
      <trkpt lat="46.10352" lon="2.43457">
        <ele>539.92</ele>
        <time>2022-07-23T08:59:03Z</time>
      </trkpt>
      <trkpt lat="46.10347" lon="2.43433">
        <ele>537.51</ele>
        <time>2022-07-23T08:59:19Z</time>
      </trkpt>
      <trkpt lat="46.1034" lon="2.43416">
        <ele>535.11</ele>
        <time>2022-07-23T08:59:33Z</time>
      </trkpt>
      <trkpt lat="46.10339" lon="2.43408">
        <ele>535.11</ele>
        <time>2022-07-23T08:59:49Z</time>
      </trkpt>
      <trkpt lat="46.10341" lon="2.4341">
        <ele>532.71</ele>
        <time>2022-07-23T09:00:14Z</time>
      </trkpt>
      <trkpt lat="46.10338" lon="2.43412">
        <ele>533.19</ele>
        <time>2022-07-23T09:00:18Z</time>
      </trkpt>
      <trkpt lat="46.10329" lon="2.43414">
        <ele>533.67</ele>
        <time>2022-07-23T09:00:26Z</time>
      </trkpt>
      <trkpt lat="46.10327" lon="2.43415">
        <ele>534.15</ele>
        <time>2022-07-23T09:00:28Z</time>
      </trkpt>
      <trkpt lat="46.10312" lon="2.43417">
        <ele>536.07</ele>
        <time>2022-07-23T09:00:42Z</time>
      </trkpt>
      <trkpt lat="46.10302" lon="2.43402">
        <ele>537.99</ele>
        <time>2022-07-23T09:00:57Z</time>
      </trkpt>
      <trkpt lat="46.10299" lon="2.43377">
        <ele>537.51</ele>
        <time>2022-07-23T09:01:13Z</time>
      </trkpt>
      <trkpt lat="46.10296" lon="2.43359">
        <ele>537.99</ele>
        <time>2022-07-23T09:01:25Z</time>
      </trkpt>
      <trkpt lat="46.10297" lon="2.43355">
        <ele>538.48</ele>
        <time>2022-07-23T09:01:27Z</time>
      </trkpt>
      <trkpt lat="46.10296" lon="2.43346">
        <ele>537.99</ele>
        <time>2022-07-23T09:01:33Z</time>
      </trkpt>
      <trkpt lat="46.10299" lon="2.43318">
        <ele>534.63</ele>
        <time>2022-07-23T09:01:52Z</time>
      </trkpt>
      <trkpt lat="46.10302" lon="2.43295">
        <ele>532.23</ele>
        <time>2022-07-23T09:02:07Z</time>
      </trkpt>
      <trkpt lat="46.10305" lon="2.43271">
        <ele>533.67</ele>
        <time>2022-07-23T09:02:22Z</time>
      </trkpt>
      <trkpt lat="46.10309" lon="2.43239">
        <ele>537.99</ele>
        <time>2022-07-23T09:02:40Z</time>
      </trkpt>
      <trkpt lat="46.1031" lon="2.43221">
        <ele>541.84</ele>
        <time>2022-07-23T09:02:52Z</time>
      </trkpt>
      <trkpt lat="46.10311" lon="2.43217">
        <ele>541.84</ele>
        <time>2022-07-23T09:02:55Z</time>
      </trkpt>
      <trkpt lat="46.10311" lon="2.43206">
        <ele>542.32</ele>
        <time>2022-07-23T09:03:11Z</time>
      </trkpt>
      <trkpt lat="46.10312" lon="2.43197">
        <ele>542.8</ele>
        <time>2022-07-23T09:03:27Z</time>
      </trkpt>
      <trkpt lat="46.10311" lon="2.43187">
        <ele>544.24</ele>
        <time>2022-07-23T09:03:34Z</time>
      </trkpt>
      <trkpt lat="46.10311" lon="2.43178">
        <ele>545.69</ele>
        <time>2022-07-23T09:03:40Z</time>
      </trkpt>
      <trkpt lat="46.10307" lon="2.4317">
        <ele>547.13</ele>
        <time>2022-07-23T09:03:47Z</time>
      </trkpt>
      <trkpt lat="46.10291" lon="2.43158">
        <ele>547.61</ele>
        <time>2022-07-23T09:04:04Z</time>
      </trkpt>
      <trkpt lat="46.10289" lon="2.43157">
        <ele>547.61</ele>
        <time>2022-07-23T09:04:06Z</time>
      </trkpt>
      <trkpt lat="46.10276" lon="2.43137">
        <ele>548.57</ele>
        <time>2022-07-23T09:04:24Z</time>
      </trkpt>
      <trkpt lat="46.10263" lon="2.43119">
        <ele>549.05</ele>
        <time>2022-07-23T09:04:41Z</time>
      </trkpt>
      <trkpt lat="46.10252" lon="2.43105">
        <ele>550.01</ele>
        <time>2022-07-23T09:04:55Z</time>
      </trkpt>
      <trkpt lat="46.10237" lon="2.43089">
        <ele>552.9</ele>
        <time>2022-07-23T09:05:12Z</time>
      </trkpt>
      <trkpt lat="46.10222" lon="2.43073">
        <ele>555.78</ele>
        <time>2022-07-23T09:05:28Z</time>
      </trkpt>
      <trkpt lat="46.10207" lon="2.43057">
        <ele>559.14</ele>
        <time>2022-07-23T09:05:45Z</time>
      </trkpt>
      <trkpt lat="46.10195" lon="2.43036">
        <ele>561.07</ele>
        <time>2022-07-23T09:06:01Z</time>
      </trkpt>
      <trkpt lat="46.10185" lon="2.43012">
        <ele>561.55</ele>
        <time>2022-07-23T09:06:19Z</time>
      </trkpt>
      <trkpt lat="46.10177" lon="2.42996">
        <ele>562.51</ele>
        <time>2022-07-23T09:06:33Z</time>
      </trkpt>
      <trkpt lat="46.10165" lon="2.42978">
        <ele>563.47</ele>
        <time>2022-07-23T09:06:49Z</time>
      </trkpt>
      <trkpt lat="46.10149" lon="2.4296">
        <ele>564.43</ele>
        <time>2022-07-23T09:07:07Z</time>
      </trkpt>
      <trkpt lat="46.10133" lon="2.42939">
        <ele>566.35</ele>
        <time>2022-07-23T09:07:26Z</time>
      </trkpt>
      <trkpt lat="46.10119" lon="2.42921">
        <ele>565.87</ele>
        <time>2022-07-23T09:07:43Z</time>
      </trkpt>
      <trkpt lat="46.10103" lon="2.42901">
        <ele>566.83</ele>
        <time>2022-07-23T09:08:02Z</time>
      </trkpt>
      <trkpt lat="46.10087" lon="2.42882">
        <ele>567.8</ele>
        <time>2022-07-23T09:08:20Z</time>
      </trkpt>
      <trkpt lat="46.10073" lon="2.42864">
        <ele>568.28</ele>
        <time>2022-07-23T09:08:36Z</time>
      </trkpt>
      <trkpt lat="46.10056" lon="2.42839">
        <ele>568.28</ele>
        <time>2022-07-23T09:08:57Z</time>
      </trkpt>
      <trkpt lat="46.10052" lon="2.42833">
        <ele>567.32</ele>
        <time>2022-07-23T09:09:12Z</time>
      </trkpt>
      <trkpt lat="46.10049" lon="2.42831">
        <ele>566.83</ele>
        <time>2022-07-23T09:09:28Z</time>
      </trkpt>
      <trkpt lat="46.10043" lon="2.42817">
        <ele>566.35</ele>
        <time>2022-07-23T09:09:40Z</time>
      </trkpt>
      <trkpt lat="46.10031" lon="2.42801">
        <ele>565.87</ele>
        <time>2022-07-23T09:09:59Z</time>
      </trkpt>
      <trkpt lat="46.1003" lon="2.42802">
        <ele>565.87</ele>
        <time>2022-07-23T09:10:22Z</time>
      </trkpt>
      <trkpt lat="46.10029" lon="2.428">
        <ele>567.32</ele>
        <time>2022-07-23T09:10:49Z</time>
      </trkpt>
      <trkpt lat="46.10031" lon="2.428">
        <ele>569.72</ele>
        <time>2022-07-23T09:11:15Z</time>
      </trkpt>
      <trkpt lat="46.10029" lon="2.42796">
        <ele>570.2</ele>
        <time>2022-07-23T09:11:32Z</time>
      </trkpt>
      <trkpt lat="46.10021" lon="2.42781">
        <ele>569.24</ele>
        <time>2022-07-23T09:11:48Z</time>
      </trkpt>
      <trkpt lat="46.10005" lon="2.42759">
        <ele>568.76</ele>
        <time>2022-07-23T09:12:07Z</time>
      </trkpt>
      <trkpt lat="46.09987" lon="2.42733">
        <ele>566.83</ele>
        <time>2022-07-23T09:12:28Z</time>
      </trkpt>
      <trkpt lat="46.0997" lon="2.42707">
        <ele>564.91</ele>
        <time>2022-07-23T09:12:49Z</time>
      </trkpt>
      <trkpt lat="46.09954" lon="2.42682">
        <ele>565.87</ele>
        <time>2022-07-23T09:13:08Z</time>
      </trkpt>
      <trkpt lat="46.09936" lon="2.42655">
        <ele>567.32</ele>
        <time>2022-07-23T09:13:30Z</time>
      </trkpt>
      <trkpt lat="46.09919" lon="2.4263">
        <ele>567.8</ele>
        <time>2022-07-23T09:13:51Z</time>
      </trkpt>
      <trkpt lat="46.099" lon="2.42608">
        <ele>569.24</ele>
        <time>2022-07-23T09:14:11Z</time>
      </trkpt>
      <trkpt lat="46.09884" lon="2.42587">
        <ele>566.83</ele>
        <time>2022-07-23T09:14:29Z</time>
      </trkpt>
      <trkpt lat="46.09871" lon="2.42563">
        <ele>565.87</ele>
        <time>2022-07-23T09:14:47Z</time>
      </trkpt>
      <trkpt lat="46.09858" lon="2.42537">
        <ele>566.83</ele>
        <time>2022-07-23T09:15:06Z</time>
      </trkpt>
      <trkpt lat="46.09847" lon="2.42512">
        <ele>569.72</ele>
        <time>2022-07-23T09:15:23Z</time>
      </trkpt>
      <trkpt lat="46.09845" lon="2.42516">
        <ele>568.76</ele>
        <time>2022-07-23T09:15:29Z</time>
      </trkpt>
      <trkpt lat="46.09845" lon="2.42531">
        <ele>565.39</ele>
        <time>2022-07-23T09:15:45Z</time>
      </trkpt>
      <trkpt lat="46.09845" lon="2.42551">
        <ele>563.47</ele>
        <time>2022-07-23T09:15:58Z</time>
      </trkpt>
      <trkpt lat="46.09845" lon="2.42577">
        <ele>561.55</ele>
        <time>2022-07-23T09:16:14Z</time>
      </trkpt>
      <trkpt lat="46.09839" lon="2.42611">
        <ele>560.11</ele>
        <time>2022-07-23T09:16:35Z</time>
      </trkpt>
      <trkpt lat="46.09828" lon="2.42635">
        <ele>559.14</ele>
        <time>2022-07-23T09:16:54Z</time>
      </trkpt>
      <trkpt lat="46.09813" lon="2.42659">
        <ele>555.78</ele>
        <time>2022-07-23T09:17:12Z</time>
      </trkpt>
      <trkpt lat="46.09789" lon="2.42681">
        <ele>556.26</ele>
        <time>2022-07-23T09:17:34Z</time>
      </trkpt>
      <trkpt lat="46.0977" lon="2.42693">
        <ele>552.9</ele>
        <time>2022-07-23T09:17:52Z</time>
      </trkpt>
      <trkpt lat="46.09747" lon="2.42707">
        <ele>550.01</ele>
        <time>2022-07-23T09:18:13Z</time>
      </trkpt>
      <trkpt lat="46.09724" lon="2.42722">
        <ele>548.57</ele>
        <time>2022-07-23T09:18:33Z</time>
      </trkpt>
      <trkpt lat="46.09703" lon="2.42741">
        <ele>546.17</ele>
        <time>2022-07-23T09:18:54Z</time>
      </trkpt>
      <trkpt lat="46.09683" lon="2.42763">
        <ele>542.8</ele>
        <time>2022-07-23T09:19:15Z</time>
      </trkpt>
      <trkpt lat="46.09667" lon="2.42781">
        <ele>541.36</ele>
        <time>2022-07-23T09:19:33Z</time>
      </trkpt>
      <trkpt lat="46.09652" lon="2.42798">
        <ele>541.84</ele>
        <time>2022-07-23T09:19:48Z</time>
      </trkpt>
      <trkpt lat="46.09634" lon="2.42817">
        <ele>543.28</ele>
        <time>2022-07-23T09:20:06Z</time>
      </trkpt>
      <trkpt lat="46.09624" lon="2.42837">
        <ele>542.32</ele>
        <time>2022-07-23T09:20:21Z</time>
      </trkpt>
      <trkpt lat="46.09615" lon="2.42855">
        <ele>542.32</ele>
        <time>2022-07-23T09:20:33Z</time>
      </trkpt>
      <trkpt lat="46.09605" lon="2.42886">
        <ele>544.72</ele>
        <time>2022-07-23T09:20:51Z</time>
      </trkpt>
      <trkpt lat="46.09593" lon="2.42911">
        <ele>544.72</ele>
        <time>2022-07-23T09:21:09Z</time>
      </trkpt>
      <trkpt lat="46.09576" lon="2.42934">
        <ele>545.69</ele>
        <time>2022-07-23T09:21:27Z</time>
      </trkpt>
      <trkpt lat="46.09559" lon="2.42952">
        <ele>546.17</ele>
        <time>2022-07-23T09:21:46Z</time>
      </trkpt>
      <trkpt lat="46.09548" lon="2.42959">
        <ele>546.17</ele>
        <time>2022-07-23T09:21:58Z</time>
      </trkpt>
      <trkpt lat="46.09545" lon="2.42945">
        <ele>545.2</ele>
        <time>2022-07-23T09:22:11Z</time>
      </trkpt>
      <trkpt lat="46.09543" lon="2.42934">
        <ele>546.17</ele>
        <time>2022-07-23T09:22:19Z</time>
      </trkpt>
      <trkpt lat="46.09538" lon="2.42915">
        <ele>548.09</ele>
        <time>2022-07-23T09:22:34Z</time>
      </trkpt>
      <trkpt lat="46.09532" lon="2.42904">
        <ele>550.01</ele>
        <time>2022-07-23T09:22:43Z</time>
      </trkpt>
      <trkpt lat="46.09521" lon="2.42902">
        <ele>550.97</ele>
        <time>2022-07-23T09:22:58Z</time>
      </trkpt>
      <trkpt lat="46.09509" lon="2.42905">
        <ele>550.01</ele>
        <time>2022-07-23T09:23:12Z</time>
      </trkpt>
      <trkpt lat="46.09491" lon="2.42894">
        <ele>551.45</ele>
        <time>2022-07-23T09:23:30Z</time>
      </trkpt>
      <trkpt lat="46.09478" lon="2.42875">
        <ele>553.86</ele>
        <time>2022-07-23T09:23:46Z</time>
      </trkpt>
      <trkpt lat="46.09465" lon="2.42855">
        <ele>556.74</ele>
        <time>2022-07-23T09:24:02Z</time>
      </trkpt>
      <trkpt lat="46.09451" lon="2.42838">
        <ele>558.66</ele>
        <time>2022-07-23T09:24:20Z</time>
      </trkpt>
      <trkpt lat="46.0944" lon="2.42825">
        <ele>557.7</ele>
        <time>2022-07-23T09:24:36Z</time>
      </trkpt>
      <trkpt lat="46.09424" lon="2.42808">
        <ele>560.11</ele>
        <time>2022-07-23T09:24:54Z</time>
      </trkpt>
      <trkpt lat="46.09409" lon="2.42793">
        <ele>561.07</ele>
        <time>2022-07-23T09:25:11Z</time>
      </trkpt>
      <trkpt lat="46.09393" lon="2.42776">
        <ele>563.47</ele>
        <time>2022-07-23T09:25:29Z</time>
      </trkpt>
      <trkpt lat="46.09379" lon="2.42759">
        <ele>564.43</ele>
        <time>2022-07-23T09:25:47Z</time>
      </trkpt>
      <trkpt lat="46.09367" lon="2.42735">
        <ele>566.35</ele>
        <time>2022-07-23T09:26:03Z</time>
      </trkpt>
      <trkpt lat="46.09356" lon="2.42721">
        <ele>566.83</ele>
        <time>2022-07-23T09:26:18Z</time>
      </trkpt>
      <trkpt lat="46.09341" lon="2.42696">
        <ele>568.28</ele>
        <time>2022-07-23T09:26:36Z</time>
      </trkpt>
      <trkpt lat="46.09342" lon="2.42692">
        <ele>569.24</ele>
        <time>2022-07-23T09:26:39Z</time>
      </trkpt>
      <trkpt lat="46.09354" lon="2.42668">
        <ele>569.72</ele>
        <time>2022-07-23T09:26:57Z</time>
      </trkpt>
      <trkpt lat="46.09363" lon="2.42641">
        <ele>569.72</ele>
        <time>2022-07-23T09:27:16Z</time>
      </trkpt>
      <trkpt lat="46.09363" lon="2.42617">
        <ele>569.72</ele>
        <time>2022-07-23T09:27:32Z</time>
      </trkpt>
      <trkpt lat="46.09365" lon="2.42606">
        <ele>569.72</ele>
        <time>2022-07-23T09:27:44Z</time>
      </trkpt>
      <trkpt lat="46.09367" lon="2.42585">
        <ele>566.35</ele>
        <time>2022-07-23T09:27:59Z</time>
      </trkpt>
      <trkpt lat="46.09368" lon="2.42555">
        <ele>566.35</ele>
        <time>2022-07-23T09:28:16Z</time>
      </trkpt>
      <trkpt lat="46.09367" lon="2.42536">
        <ele>569.24</ele>
        <time>2022-07-23T09:28:27Z</time>
      </trkpt>
      <trkpt lat="46.09364" lon="2.42534">
        <ele>569.72</ele>
        <time>2022-07-23T09:28:30Z</time>
      </trkpt>
      <trkpt lat="46.09347" lon="2.42536">
        <ele>568.28</ele>
        <time>2022-07-23T09:28:46Z</time>
      </trkpt>
      <trkpt lat="46.09332" lon="2.42531">
        <ele>569.24</ele>
        <time>2022-07-23T09:29:02Z</time>
      </trkpt>
      <trkpt lat="46.0932" lon="2.42525">
        <ele>568.76</ele>
        <time>2022-07-23T09:29:17Z</time>
      </trkpt>
      <trkpt lat="46.09304" lon="2.42518">
        <ele>569.24</ele>
        <time>2022-07-23T09:29:32Z</time>
      </trkpt>
      <trkpt lat="46.09281" lon="2.4251">
        <ele>569.72</ele>
        <time>2022-07-23T09:29:51Z</time>
      </trkpt>
      <trkpt lat="46.09259" lon="2.42501">
        <ele>570.68</ele>
        <time>2022-07-23T09:30:11Z</time>
      </trkpt>
      <trkpt lat="46.09236" lon="2.42491">
        <ele>568.76</ele>
        <time>2022-07-23T09:30:32Z</time>
      </trkpt>
      <trkpt lat="46.09209" lon="2.42481">
        <ele>569.24</ele>
        <time>2022-07-23T09:30:55Z</time>
      </trkpt>
      <trkpt lat="46.09188" lon="2.42473">
        <ele>571.64</ele>
        <time>2022-07-23T09:31:14Z</time>
      </trkpt>
      <trkpt lat="46.09165" lon="2.42463">
        <ele>571.64</ele>
        <time>2022-07-23T09:31:34Z</time>
      </trkpt>
      <trkpt lat="46.09151" lon="2.42445">
        <ele>572.12</ele>
        <time>2022-07-23T09:31:52Z</time>
      </trkpt>
      <trkpt lat="46.09155" lon="2.42421">
        <ele>571.64</ele>
        <time>2022-07-23T09:32:07Z</time>
      </trkpt>
      <trkpt lat="46.09155" lon="2.42414">
        <ele>571.64</ele>
        <time>2022-07-23T09:32:11Z</time>
      </trkpt>
      <trkpt lat="46.09143" lon="2.42395">
        <ele>571.64</ele>
        <time>2022-07-23T09:32:26Z</time>
      </trkpt>
      <trkpt lat="46.09139" lon="2.4237">
        <ele>571.64</ele>
        <time>2022-07-23T09:32:42Z</time>
      </trkpt>
      <trkpt lat="46.09138" lon="2.42369">
        <ele>572.12</ele>
        <time>2022-07-23T09:32:44Z</time>
      </trkpt>
      <trkpt lat="46.09121" lon="2.42358">
        <ele>570.2</ele>
        <time>2022-07-23T09:33:02Z</time>
      </trkpt>
      <trkpt lat="46.09104" lon="2.42345">
        <ele>570.2</ele>
        <time>2022-07-23T09:33:19Z</time>
      </trkpt>
      <trkpt lat="46.09085" lon="2.42329">
        <ele>569.72</ele>
        <time>2022-07-23T09:33:38Z</time>
      </trkpt>
      <trkpt lat="46.09067" lon="2.42313">
        <ele>569.72</ele>
        <time>2022-07-23T09:33:56Z</time>
      </trkpt>
      <trkpt lat="46.0905" lon="2.42297">
        <ele>571.16</ele>
        <time>2022-07-23T09:34:15Z</time>
      </trkpt>
      <trkpt lat="46.09035" lon="2.42277">
        <ele>571.64</ele>
        <time>2022-07-23T09:34:35Z</time>
      </trkpt>
      <trkpt lat="46.09019" lon="2.4226">
        <ele>571.64</ele>
        <time>2022-07-23T09:34:53Z</time>
      </trkpt>
      <trkpt lat="46.09003" lon="2.42242">
        <ele>573.56</ele>
        <time>2022-07-23T09:35:11Z</time>
      </trkpt>
      <trkpt lat="46.08991" lon="2.42225">
        <ele>575.01</ele>
        <time>2022-07-23T09:35:27Z</time>
      </trkpt>
      <trkpt lat="46.0898" lon="2.42209">
        <ele>573.56</ele>
        <time>2022-07-23T09:35:43Z</time>
      </trkpt>
      <trkpt lat="46.08973" lon="2.42197">
        <ele>573.56</ele>
        <time>2022-07-23T09:35:59Z</time>
      </trkpt>
      <trkpt lat="46.08972" lon="2.42195">
        <ele>573.56</ele>
        <time>2022-07-23T09:36:03Z</time>
      </trkpt>
      <trkpt lat="46.0897" lon="2.42194">
        <ele>574.04</ele>
        <time>2022-07-23T09:36:05Z</time>
      </trkpt>
      <trkpt lat="46.08958" lon="2.42179">
        <ele>572.6</ele>
        <time>2022-07-23T09:36:22Z</time>
      </trkpt>
      <trkpt lat="46.08943" lon="2.42168">
        <ele>571.16</ele>
        <time>2022-07-23T09:36:40Z</time>
      </trkpt>
      <trkpt lat="46.08933" lon="2.42159">
        <ele>571.64</ele>
        <time>2022-07-23T09:36:53Z</time>
      </trkpt>
      <trkpt lat="46.08923" lon="2.42149">
        <ele>571.64</ele>
        <time>2022-07-23T09:37:05Z</time>
      </trkpt>
      <trkpt lat="46.08909" lon="2.42136">
        <ele>572.12</ele>
        <time>2022-07-23T09:37:20Z</time>
      </trkpt>
      <trkpt lat="46.08897" lon="2.42122">
        <ele>574.53</ele>
        <time>2022-07-23T09:37:34Z</time>
      </trkpt>
      <trkpt lat="46.08886" lon="2.42112">
        <ele>575.49</ele>
        <time>2022-07-23T09:37:48Z</time>
      </trkpt>
      <trkpt lat="46.08875" lon="2.42101">
        <ele>576.45</ele>
        <time>2022-07-23T09:38:02Z</time>
      </trkpt>
      <trkpt lat="46.08862" lon="2.42092">
        <ele>576.93</ele>
        <time>2022-07-23T09:38:15Z</time>
      </trkpt>
      <trkpt lat="46.0885" lon="2.42083">
        <ele>578.85</ele>
        <time>2022-07-23T09:38:26Z</time>
      </trkpt>
      <trkpt lat="46.08837" lon="2.42072">
        <ele>580.77</ele>
        <time>2022-07-23T09:38:41Z</time>
      </trkpt>
      <trkpt lat="46.08824" lon="2.42062">
        <ele>582.7</ele>
        <time>2022-07-23T09:38:57Z</time>
      </trkpt>
      <trkpt lat="46.08812" lon="2.42051">
        <ele>584.14</ele>
        <time>2022-07-23T09:39:10Z</time>
      </trkpt>
      <trkpt lat="46.08799" lon="2.42041">
        <ele>583.18</ele>
        <time>2022-07-23T09:39:24Z</time>
      </trkpt>
      <trkpt lat="46.08787" lon="2.4203">
        <ele>581.73</ele>
        <time>2022-07-23T09:39:37Z</time>
      </trkpt>
      <trkpt lat="46.08775" lon="2.4202">
        <ele>581.25</ele>
        <time>2022-07-23T09:39:50Z</time>
      </trkpt>
      <trkpt lat="46.08761" lon="2.42007">
        <ele>579.81</ele>
        <time>2022-07-23T09:40:05Z</time>
      </trkpt>
      <trkpt lat="46.08749" lon="2.41995">
        <ele>577.41</ele>
        <time>2022-07-23T09:40:20Z</time>
      </trkpt>
      <trkpt lat="46.08739" lon="2.41986">
        <ele>578.85</ele>
        <time>2022-07-23T09:40:32Z</time>
      </trkpt>
      <trkpt lat="46.08718" lon="2.41971">
        <ele>581.73</ele>
        <time>2022-07-23T09:40:50Z</time>
      </trkpt>
      <trkpt lat="46.08705" lon="2.41963">
        <ele>583.18</ele>
        <time>2022-07-23T09:41:03Z</time>
      </trkpt>
      <trkpt lat="46.08693" lon="2.4195">
        <ele>585.1</ele>
        <time>2022-07-23T09:41:18Z</time>
      </trkpt>
      <trkpt lat="46.08682" lon="2.41939">
        <ele>584.14</ele>
        <time>2022-07-23T09:41:31Z</time>
      </trkpt>
      <trkpt lat="46.08673" lon="2.41923">
        <ele>584.14</ele>
        <time>2022-07-23T09:41:48Z</time>
      </trkpt>
      <trkpt lat="46.08667" lon="2.41908">
        <ele>584.62</ele>
        <time>2022-07-23T09:42:31Z</time>
      </trkpt>
      <trkpt lat="46.08656" lon="2.41895">
        <ele>589.91</ele>
        <time>2022-07-23T09:42:46Z</time>
      </trkpt>
      <trkpt lat="46.08645" lon="2.41879">
        <ele>598.08</ele>
        <time>2022-07-23T09:42:59Z</time>
      </trkpt>
      <trkpt lat="46.08632" lon="2.41865">
        <ele>600</ele>
        <time>2022-07-23T09:43:12Z</time>
      </trkpt>
      <trkpt lat="46.0862" lon="2.41853">
        <ele>598.08</ele>
        <time>2022-07-23T09:43:29Z</time>
      </trkpt>
      <trkpt lat="46.08609" lon="2.41848">
        <ele>594.71</ele>
        <time>2022-07-23T09:43:42Z</time>
      </trkpt>
      <trkpt lat="46.08598" lon="2.41838">
        <ele>589.91</ele>
        <time>2022-07-23T09:43:56Z</time>
      </trkpt>
      <trkpt lat="46.08583" lon="2.41833">
        <ele>586.54</ele>
        <time>2022-07-23T09:44:12Z</time>
      </trkpt>
      <trkpt lat="46.08566" lon="2.41827">
        <ele>586.06</ele>
        <time>2022-07-23T09:44:26Z</time>
      </trkpt>
      <trkpt lat="46.08549" lon="2.41818">
        <ele>587.02</ele>
        <time>2022-07-23T09:44:41Z</time>
      </trkpt>
      <trkpt lat="46.08543" lon="2.41816">
        <ele>587.5</ele>
        <time>2022-07-23T09:44:46Z</time>
      </trkpt>
      <trkpt lat="46.08526" lon="2.41809">
        <ele>587.5</ele>
        <time>2022-07-23T09:45:01Z</time>
      </trkpt>
      <trkpt lat="46.08507" lon="2.41802">
        <ele>587.02</ele>
        <time>2022-07-23T09:45:15Z</time>
      </trkpt>
      <trkpt lat="46.08493" lon="2.41799">
        <ele>584.62</ele>
        <time>2022-07-23T09:45:27Z</time>
      </trkpt>
      <trkpt lat="46.08476" lon="2.41796">
        <ele>583.66</ele>
        <time>2022-07-23T09:45:42Z</time>
      </trkpt>
      <trkpt lat="46.08459" lon="2.41799">
        <ele>588.46</ele>
        <time>2022-07-23T09:45:56Z</time>
      </trkpt>
      <trkpt lat="46.08444" lon="2.418">
        <ele>588.95</ele>
        <time>2022-07-23T09:46:09Z</time>
      </trkpt>
      <trkpt lat="46.08425" lon="2.41799">
        <ele>592.79</ele>
        <time>2022-07-23T09:46:26Z</time>
      </trkpt>
      <trkpt lat="46.08407" lon="2.41799">
        <ele>592.31</ele>
        <time>2022-07-23T09:46:41Z</time>
      </trkpt>
      <trkpt lat="46.08391" lon="2.41801">
        <ele>590.39</ele>
        <time>2022-07-23T09:46:56Z</time>
      </trkpt>
      <trkpt lat="46.08375" lon="2.41799">
        <ele>588.95</ele>
        <time>2022-07-23T09:47:12Z</time>
      </trkpt>
      <trkpt lat="46.08362" lon="2.418">
        <ele>589.91</ele>
        <time>2022-07-23T09:47:23Z</time>
      </trkpt>
      <trkpt lat="46.08341" lon="2.41801">
        <ele>590.87</ele>
        <time>2022-07-23T09:47:40Z</time>
      </trkpt>
      <trkpt lat="46.08339" lon="2.41801">
        <ele>590.87</ele>
        <time>2022-07-23T09:47:42Z</time>
      </trkpt>
      <trkpt lat="46.08324" lon="2.41801">
        <ele>588.95</ele>
        <time>2022-07-23T09:47:56Z</time>
      </trkpt>
      <trkpt lat="46.08304" lon="2.41798">
        <ele>589.91</ele>
        <time>2022-07-23T09:48:12Z</time>
      </trkpt>
      <trkpt lat="46.08291" lon="2.41793">
        <ele>588.95</ele>
        <time>2022-07-23T09:48:24Z</time>
      </trkpt>
      <trkpt lat="46.08277" lon="2.41786">
        <ele>591.83</ele>
        <time>2022-07-23T09:48:39Z</time>
      </trkpt>
      <trkpt lat="46.08259" lon="2.41779">
        <ele>600.96</ele>
        <time>2022-07-23T09:48:56Z</time>
      </trkpt>
      <trkpt lat="46.08242" lon="2.4178">
        <ele>604.81</ele>
        <time>2022-07-23T09:49:09Z</time>
      </trkpt>
      <trkpt lat="46.08223" lon="2.41779">
        <ele>603.36</ele>
        <time>2022-07-23T09:49:24Z</time>
      </trkpt>
      <trkpt lat="46.08209" lon="2.4178">
        <ele>600</ele>
        <time>2022-07-23T09:49:39Z</time>
      </trkpt>
      <trkpt lat="46.08208" lon="2.41776">
        <ele>598.08</ele>
        <time>2022-07-23T09:49:56Z</time>
      </trkpt>
      <trkpt lat="46.08208" lon="2.41779">
        <ele>600</ele>
        <time>2022-07-23T09:50:17Z</time>
      </trkpt>
      <trkpt lat="46.08194" lon="2.41772">
        <ele>600</ele>
        <time>2022-07-23T09:50:31Z</time>
      </trkpt>
      <trkpt lat="46.0818" lon="2.41763">
        <ele>599.52</ele>
        <time>2022-07-23T09:50:45Z</time>
      </trkpt>
      <trkpt lat="46.08167" lon="2.41753">
        <ele>599.04</ele>
        <time>2022-07-23T09:50:59Z</time>
      </trkpt>
      <trkpt lat="46.08156" lon="2.41741">
        <ele>598.08</ele>
        <time>2022-07-23T09:51:14Z</time>
      </trkpt>
      <trkpt lat="46.08151" lon="2.41737">
        <ele>597.12</ele>
        <time>2022-07-23T09:51:29Z</time>
      </trkpt>
      <trkpt lat="46.08139" lon="2.41728">
        <ele>597.12</ele>
        <time>2022-07-23T09:51:44Z</time>
      </trkpt>
      <trkpt lat="46.08127" lon="2.41719">
        <ele>598.08</ele>
        <time>2022-07-23T09:51:59Z</time>
      </trkpt>
      <trkpt lat="46.08108" lon="2.41713">
        <ele>594.71</ele>
        <time>2022-07-23T09:52:14Z</time>
      </trkpt>
      <trkpt lat="46.08094" lon="2.417">
        <ele>595.67</ele>
        <time>2022-07-23T09:52:29Z</time>
      </trkpt>
      <trkpt lat="46.0808" lon="2.41694">
        <ele>597.6</ele>
        <time>2022-07-23T09:52:41Z</time>
      </trkpt>
      <trkpt lat="46.08065" lon="2.41692">
        <ele>598.08</ele>
        <time>2022-07-23T09:52:56Z</time>
      </trkpt>
      <trkpt lat="46.08051" lon="2.41687">
        <ele>599.04</ele>
        <time>2022-07-23T09:53:10Z</time>
      </trkpt>
      <trkpt lat="46.08035" lon="2.41683">
        <ele>600</ele>
        <time>2022-07-23T09:53:24Z</time>
      </trkpt>
      <trkpt lat="46.08021" lon="2.41677">
        <ele>600</ele>
        <time>2022-07-23T09:53:37Z</time>
      </trkpt>
      <trkpt lat="46.07999" lon="2.41677">
        <ele>600.96</ele>
        <time>2022-07-23T09:53:53Z</time>
      </trkpt>
      <trkpt lat="46.0798" lon="2.41679">
        <ele>600</ele>
        <time>2022-07-23T09:54:09Z</time>
      </trkpt>
      <trkpt lat="46.07965" lon="2.41675">
        <ele>600.48</ele>
        <time>2022-07-23T09:54:23Z</time>
      </trkpt>
      <trkpt lat="46.07949" lon="2.4167">
        <ele>599.52</ele>
        <time>2022-07-23T09:54:37Z</time>
      </trkpt>
      <trkpt lat="46.07933" lon="2.41663">
        <ele>599.52</ele>
        <time>2022-07-23T09:54:52Z</time>
      </trkpt>
      <trkpt lat="46.07916" lon="2.41657">
        <ele>601.44</ele>
        <time>2022-07-23T09:55:07Z</time>
      </trkpt>
      <trkpt lat="46.07908" lon="2.41658">
        <ele>605.77</ele>
        <time>2022-07-23T09:55:22Z</time>
      </trkpt>
      <trkpt lat="46.07904" lon="2.41665">
        <ele>609.13</ele>
        <time>2022-07-23T09:55:35Z</time>
      </trkpt>
      <trkpt lat="46.07896" lon="2.41669">
        <ele>607.69</ele>
        <time>2022-07-23T09:55:45Z</time>
      </trkpt>
      <trkpt lat="46.07886" lon="2.41665">
        <ele>607.21</ele>
        <time>2022-07-23T09:55:58Z</time>
      </trkpt>
      <trkpt lat="46.07875" lon="2.41646">
        <ele>604.81</ele>
        <time>2022-07-23T09:56:13Z</time>
      </trkpt>
      <trkpt lat="46.07861" lon="2.41622">
        <ele>601.92</ele>
        <time>2022-07-23T09:56:31Z</time>
      </trkpt>
      <trkpt lat="46.07853" lon="2.41606">
        <ele>600.48</ele>
        <time>2022-07-23T09:56:44Z</time>
      </trkpt>
      <trkpt lat="46.07847" lon="2.41595">
        <ele>599.04</ele>
        <time>2022-07-23T09:56:53Z</time>
      </trkpt>
      <trkpt lat="46.07834" lon="2.41569">
        <ele>601.92</ele>
        <time>2022-07-23T09:57:10Z</time>
      </trkpt>
      <trkpt lat="46.07823" lon="2.41546">
        <ele>603.85</ele>
        <time>2022-07-23T09:57:25Z</time>
      </trkpt>
      <trkpt lat="46.0781" lon="2.41527">
        <ele>607.69</ele>
        <time>2022-07-23T09:57:40Z</time>
      </trkpt>
      <trkpt lat="46.07794" lon="2.41508">
        <ele>612.98</ele>
        <time>2022-07-23T09:57:57Z</time>
      </trkpt>
      <trkpt lat="46.07776" lon="2.41488">
        <ele>616.34</ele>
        <time>2022-07-23T09:58:16Z</time>
      </trkpt>
      <trkpt lat="46.07761" lon="2.4147">
        <ele>616.82</ele>
        <time>2022-07-23T09:58:34Z</time>
      </trkpt>
      <trkpt lat="46.07743" lon="2.41453">
        <ele>617.3</ele>
        <time>2022-07-23T09:58:53Z</time>
      </trkpt>
      <trkpt lat="46.07726" lon="2.41434">
        <ele>618.26</ele>
        <time>2022-07-23T09:59:12Z</time>
      </trkpt>
      <trkpt lat="46.07711" lon="2.41424">
        <ele>619.23</ele>
        <time>2022-07-23T09:59:26Z</time>
      </trkpt>
      <trkpt lat="46.077" lon="2.41414">
        <ele>621.15</ele>
        <time>2022-07-23T09:59:40Z</time>
      </trkpt>
      <trkpt lat="46.07692" lon="2.41407">
        <ele>622.11</ele>
        <time>2022-07-23T09:59:55Z</time>
      </trkpt>
      <trkpt lat="46.07691" lon="2.41406">
        <ele>624.51</ele>
        <time>2022-07-23T10:00:21Z</time>
      </trkpt>
      <trkpt lat="46.07687" lon="2.41404">
        <ele>625.47</ele>
        <time>2022-07-23T10:00:39Z</time>
      </trkpt>
      <trkpt lat="46.0768" lon="2.41399">
        <ele>622.59</ele>
        <time>2022-07-23T10:00:54Z</time>
      </trkpt>
      <trkpt lat="46.0767" lon="2.41396">
        <ele>621.15</ele>
        <time>2022-07-23T10:01:11Z</time>
      </trkpt>
      <trkpt lat="46.07648" lon="2.41387">
        <ele>622.11</ele>
        <time>2022-07-23T10:01:29Z</time>
      </trkpt>
      <trkpt lat="46.07627" lon="2.4138">
        <ele>621.15</ele>
        <time>2022-07-23T10:01:47Z</time>
      </trkpt>
      <trkpt lat="46.0761" lon="2.41378">
        <ele>621.15</ele>
        <time>2022-07-23T10:02:03Z</time>
      </trkpt>
      <trkpt lat="46.07591" lon="2.41379">
        <ele>622.11</ele>
        <time>2022-07-23T10:02:19Z</time>
      </trkpt>
      <trkpt lat="46.0757" lon="2.4138">
        <ele>624.51</ele>
        <time>2022-07-23T10:02:37Z</time>
      </trkpt>
      <trkpt lat="46.07549" lon="2.41385">
        <ele>625.47</ele>
        <time>2022-07-23T10:02:53Z</time>
      </trkpt>
      <trkpt lat="46.07536" lon="2.41385">
        <ele>624.99</ele>
        <time>2022-07-23T10:03:06Z</time>
      </trkpt>
      <trkpt lat="46.07521" lon="2.41384">
        <ele>622.11</ele>
        <time>2022-07-23T10:03:20Z</time>
      </trkpt>
      <trkpt lat="46.07501" lon="2.41394">
        <ele>619.23</ele>
        <time>2022-07-23T10:03:36Z</time>
      </trkpt>
      <trkpt lat="46.07499" lon="2.41395">
        <ele>618.75</ele>
        <time>2022-07-23T10:03:38Z</time>
      </trkpt>
      <trkpt lat="46.07478" lon="2.414">
        <ele>620.19</ele>
        <time>2022-07-23T10:03:54Z</time>
      </trkpt>
      <trkpt lat="46.07456" lon="2.41406">
        <ele>621.63</ele>
        <time>2022-07-23T10:04:11Z</time>
      </trkpt>
      <trkpt lat="46.07446" lon="2.41404">
        <ele>624.99</ele>
        <time>2022-07-23T10:04:25Z</time>
      </trkpt>
      <trkpt lat="46.07442" lon="2.41391">
        <ele>625.47</ele>
        <time>2022-07-23T10:04:37Z</time>
      </trkpt>
      <trkpt lat="46.07439" lon="2.41365">
        <ele>622.11</ele>
        <time>2022-07-23T10:04:53Z</time>
      </trkpt>
      <trkpt lat="46.07438" lon="2.41361">
        <ele>621.63</ele>
        <time>2022-07-23T10:04:56Z</time>
      </trkpt>
      <trkpt lat="46.07434" lon="2.41351">
        <ele>619.23</ele>
        <time>2022-07-23T10:05:04Z</time>
      </trkpt>
      <trkpt lat="46.07427" lon="2.41329">
        <ele>617.3</ele>
        <time>2022-07-23T10:05:19Z</time>
      </trkpt>
      <trkpt lat="46.07422" lon="2.41317">
        <ele>617.78</ele>
        <time>2022-07-23T10:05:33Z</time>
      </trkpt>
      <trkpt lat="46.0742" lon="2.41303">
        <ele>619.71</ele>
        <time>2022-07-23T10:05:49Z</time>
      </trkpt>
      <trkpt lat="46.07419" lon="2.41301">
        <ele>619.71</ele>
        <time>2022-07-23T10:05:50Z</time>
      </trkpt>
      <trkpt lat="46.07413" lon="2.41289">
        <ele>616.82</ele>
        <time>2022-07-23T10:06:02Z</time>
      </trkpt>
      <trkpt lat="46.0741" lon="2.41274">
        <ele>610.57</ele>
        <time>2022-07-23T10:06:15Z</time>
      </trkpt>
      <trkpt lat="46.07408" lon="2.41255">
        <ele>607.21</ele>
        <time>2022-07-23T10:06:29Z</time>
      </trkpt>
      <trkpt lat="46.07393" lon="2.41235">
        <ele>609.61</ele>
        <time>2022-07-23T10:06:44Z</time>
      </trkpt>
      <trkpt lat="46.07382" lon="2.41225">
        <ele>606.73</ele>
        <time>2022-07-23T10:06:56Z</time>
      </trkpt>
      <trkpt lat="46.07368" lon="2.41225">
        <ele>603.36</ele>
        <time>2022-07-23T10:07:11Z</time>
      </trkpt>
      <trkpt lat="46.07346" lon="2.41224">
        <ele>601.44</ele>
        <time>2022-07-23T10:07:27Z</time>
      </trkpt>
      <trkpt lat="46.07327" lon="2.41226">
        <ele>600.48</ele>
        <time>2022-07-23T10:07:43Z</time>
      </trkpt>
      <trkpt lat="46.07306" lon="2.41224">
        <ele>603.85</ele>
        <time>2022-07-23T10:08:00Z</time>
      </trkpt>
      <trkpt lat="46.07285" lon="2.41223">
        <ele>609.13</ele>
        <time>2022-07-23T10:08:15Z</time>
      </trkpt>
      <trkpt lat="46.07266" lon="2.41225">
        <ele>608.65</ele>
        <time>2022-07-23T10:08:34Z</time>
      </trkpt>
      <trkpt lat="46.07248" lon="2.41226">
        <ele>606.25</ele>
        <time>2022-07-23T10:08:51Z</time>
      </trkpt>
      <trkpt lat="46.0723" lon="2.41228">
        <ele>604.81</ele>
        <time>2022-07-23T10:09:07Z</time>
      </trkpt>
      <trkpt lat="46.07222" lon="2.41207">
        <ele>606.73</ele>
        <time>2022-07-23T10:09:24Z</time>
      </trkpt>
      <trkpt lat="46.07216" lon="2.41181">
        <ele>608.17</ele>
        <time>2022-07-23T10:09:42Z</time>
      </trkpt>
      <trkpt lat="46.07212" lon="2.41163">
        <ele>609.61</ele>
        <time>2022-07-23T10:09:52Z</time>
      </trkpt>
      <trkpt lat="46.07208" lon="2.41137">
        <ele>609.61</ele>
        <time>2022-07-23T10:10:08Z</time>
      </trkpt>
      <trkpt lat="46.07207" lon="2.41131">
        <ele>610.09</ele>
        <time>2022-07-23T10:10:24Z</time>
      </trkpt>
      <trkpt lat="46.07205" lon="2.41118">
        <ele>609.13</ele>
        <time>2022-07-23T10:10:42Z</time>
      </trkpt>
      <trkpt lat="46.07202" lon="2.41109">
        <ele>608.65</ele>
        <time>2022-07-23T10:10:49Z</time>
      </trkpt>
      <trkpt lat="46.07186" lon="2.41081">
        <ele>605.77</ele>
        <time>2022-07-23T10:11:10Z</time>
      </trkpt>
      <trkpt lat="46.07176" lon="2.41056">
        <ele>603.85</ele>
        <time>2022-07-23T10:11:28Z</time>
      </trkpt>
      <trkpt lat="46.07175" lon="2.41043">
        <ele>602.88</ele>
        <time>2022-07-23T10:11:37Z</time>
      </trkpt>
      <trkpt lat="46.07177" lon="2.41022">
        <ele>602.88</ele>
        <time>2022-07-23T10:11:49Z</time>
      </trkpt>
      <trkpt lat="46.07177" lon="2.41008">
        <ele>601.92</ele>
        <time>2022-07-23T10:11:57Z</time>
      </trkpt>
      <trkpt lat="46.07176" lon="2.40994">
        <ele>601.92</ele>
        <time>2022-07-23T10:12:06Z</time>
      </trkpt>
      <trkpt lat="46.07177" lon="2.40991">
        <ele>602.4</ele>
        <time>2022-07-23T10:12:08Z</time>
      </trkpt>
      <trkpt lat="46.07178" lon="2.40968">
        <ele>601.92</ele>
        <time>2022-07-23T10:12:21Z</time>
      </trkpt>
      <trkpt lat="46.07179" lon="2.4094">
        <ele>602.88</ele>
        <time>2022-07-23T10:12:39Z</time>
      </trkpt>
      <trkpt lat="46.07179" lon="2.40918">
        <ele>603.36</ele>
        <time>2022-07-23T10:12:53Z</time>
      </trkpt>
      <trkpt lat="46.07177" lon="2.40909">
        <ele>606.73</ele>
        <time>2022-07-23T10:13:15Z</time>
      </trkpt>
      <trkpt lat="46.07178" lon="2.40892">
        <ele>601.92</ele>
        <time>2022-07-23T10:13:30Z</time>
      </trkpt>
      <trkpt lat="46.07178" lon="2.40882">
        <ele>601.44</ele>
        <time>2022-07-23T10:13:37Z</time>
      </trkpt>
      <trkpt lat="46.07175" lon="2.40855">
        <ele>602.88</ele>
        <time>2022-07-23T10:13:53Z</time>
      </trkpt>
      <trkpt lat="46.07171" lon="2.4083">
        <ele>605.29</ele>
        <time>2022-07-23T10:14:08Z</time>
      </trkpt>
      <trkpt lat="46.07164" lon="2.40803">
        <ele>608.65</ele>
        <time>2022-07-23T10:14:26Z</time>
      </trkpt>
      <trkpt lat="46.07157" lon="2.40781">
        <ele>612.98</ele>
        <time>2022-07-23T10:14:41Z</time>
      </trkpt>
      <trkpt lat="46.07151" lon="2.40779">
        <ele>615.86</ele>
        <time>2022-07-23T10:14:50Z</time>
      </trkpt>
      <trkpt lat="46.07135" lon="2.40781">
        <ele>617.78</ele>
        <time>2022-07-23T10:15:06Z</time>
      </trkpt>
      <trkpt lat="46.07119" lon="2.40786">
        <ele>616.82</ele>
        <time>2022-07-23T10:15:22Z</time>
      </trkpt>
      <trkpt lat="46.071" lon="2.40783">
        <ele>619.71</ele>
        <time>2022-07-23T10:15:39Z</time>
      </trkpt>
      <trkpt lat="46.07083" lon="2.40779">
        <ele>620.67</ele>
        <time>2022-07-23T10:15:58Z</time>
      </trkpt>
      <trkpt lat="46.07061" lon="2.40775">
        <ele>622.11</ele>
        <time>2022-07-23T10:16:16Z</time>
      </trkpt>
      <trkpt lat="46.07042" lon="2.40769">
        <ele>621.63</ele>
        <time>2022-07-23T10:16:31Z</time>
      </trkpt>
      <trkpt lat="46.07023" lon="2.40772">
        <ele>625.47</ele>
        <time>2022-07-23T10:16:48Z</time>
      </trkpt>
      <trkpt lat="46.07002" lon="2.40781">
        <ele>627.88</ele>
        <time>2022-07-23T10:17:07Z</time>
      </trkpt>
      <trkpt lat="46.0698" lon="2.40791">
        <ele>630.28</ele>
        <time>2022-07-23T10:17:27Z</time>
      </trkpt>
      <trkpt lat="46.06958" lon="2.40799">
        <ele>630.28</ele>
        <time>2022-07-23T10:17:46Z</time>
      </trkpt>
      <trkpt lat="46.06942" lon="2.40807">
        <ele>630.28</ele>
        <time>2022-07-23T10:18:02Z</time>
      </trkpt>
      <trkpt lat="46.06923" lon="2.40818">
        <ele>632.2</ele>
        <time>2022-07-23T10:18:21Z</time>
      </trkpt>
      <trkpt lat="46.06907" lon="2.40825">
        <ele>634.13</ele>
        <time>2022-07-23T10:18:36Z</time>
      </trkpt>
      <trkpt lat="46.06901" lon="2.40822">
        <ele>636.53</ele>
        <time>2022-07-23T10:18:53Z</time>
      </trkpt>
      <trkpt lat="46.069" lon="2.40824">
        <ele>637.01</ele>
        <time>2022-07-23T10:19:18Z</time>
      </trkpt>
      <trkpt lat="46.06899" lon="2.40823">
        <ele>637.97</ele>
        <time>2022-07-23T10:19:38Z</time>
      </trkpt>
      <trkpt lat="46.06898" lon="2.40825">
        <ele>637.49</ele>
        <time>2022-07-23T10:19:53Z</time>
      </trkpt>
      <trkpt lat="46.06894" lon="2.40826">
        <ele>636.53</ele>
        <time>2022-07-23T10:20:12Z</time>
      </trkpt>
      <trkpt lat="46.0689" lon="2.40829">
        <ele>635.57</ele>
        <time>2022-07-23T10:20:27Z</time>
      </trkpt>
      <trkpt lat="46.06889" lon="2.40829">
        <ele>634.61</ele>
        <time>2022-07-23T10:20:48Z</time>
      </trkpt>
      <trkpt lat="46.06889" lon="2.40828">
        <ele>634.13</ele>
        <time>2022-07-23T10:21:19Z</time>
      </trkpt>
      <trkpt lat="46.06888" lon="2.40826">
        <ele>637.01</ele>
        <time>2022-07-23T10:22:01Z</time>
      </trkpt>
      <trkpt lat="46.06889" lon="2.40824">
        <ele>634.13</ele>
        <time>2022-07-23T10:22:42Z</time>
      </trkpt>
      <trkpt lat="46.06888" lon="2.40826">
        <ele>633.17</ele>
        <time>2022-07-23T10:23:30Z</time>
      </trkpt>
      <trkpt lat="46.06888" lon="2.40825">
        <ele>634.61</ele>
        <time>2022-07-23T10:24:15Z</time>
      </trkpt>
      <trkpt lat="46.06887" lon="2.40825">
        <ele>635.57</ele>
        <time>2022-07-23T10:24:48Z</time>
      </trkpt>
      <trkpt lat="46.06888" lon="2.40826">
        <ele>635.57</ele>
        <time>2022-07-23T10:25:17Z</time>
      </trkpt>
      <trkpt lat="46.06886" lon="2.40827">
        <ele>635.57</ele>
        <time>2022-07-23T10:25:54Z</time>
      </trkpt>
      <trkpt lat="46.06886" lon="2.40825">
        <ele>637.01</ele>
        <time>2022-07-23T10:26:37Z</time>
      </trkpt>
      <trkpt lat="46.06887" lon="2.40824">
        <ele>636.53</ele>
        <time>2022-07-23T10:27:13Z</time>
      </trkpt>
      <trkpt lat="46.06887" lon="2.40826">
        <ele>635.57</ele>
        <time>2022-07-23T10:27:41Z</time>
      </trkpt>
      <trkpt lat="46.06887" lon="2.40826">
        <ele>636.05</ele>
        <time>2022-07-23T10:28:15Z</time>
      </trkpt>
      <trkpt lat="46.06886" lon="2.40826">
        <ele>636.53</ele>
        <time>2022-07-23T10:29:01Z</time>
      </trkpt>
      <trkpt lat="46.06886" lon="2.40824">
        <ele>637.01</ele>
        <time>2022-07-23T10:29:45Z</time>
      </trkpt>
      <trkpt lat="46.06887" lon="2.40825">
        <ele>637.97</ele>
        <time>2022-07-23T10:30:31Z</time>
      </trkpt>
      <trkpt lat="46.06888" lon="2.40826">
        <ele>635.57</ele>
        <time>2022-07-23T10:31:08Z</time>
      </trkpt>
      <trkpt lat="46.06887" lon="2.40825">
        <ele>636.05</ele>
        <time>2022-07-23T10:31:57Z</time>
      </trkpt>
      <trkpt lat="46.06887" lon="2.40824">
        <ele>636.53</ele>
        <time>2022-07-23T10:32:42Z</time>
      </trkpt>
      <trkpt lat="46.06886" lon="2.40825">
        <ele>638.45</ele>
        <time>2022-07-23T10:33:27Z</time>
      </trkpt>
      <trkpt lat="46.06886" lon="2.40825">
        <ele>637.01</ele>
        <time>2022-07-23T10:34:06Z</time>
      </trkpt>
      <trkpt lat="46.06886" lon="2.40825">
        <ele>637.01</ele>
        <time>2022-07-23T10:34:37Z</time>
      </trkpt>
      <trkpt lat="46.06887" lon="2.40825">
        <ele>635.09</ele>
        <time>2022-07-23T10:35:13Z</time>
      </trkpt>
      <trkpt lat="46.06888" lon="2.40825">
        <ele>633.65</ele>
        <time>2022-07-23T10:35:49Z</time>
      </trkpt>
      <trkpt lat="46.06889" lon="2.40827">
        <ele>633.17</ele>
        <time>2022-07-23T10:36:31Z</time>
      </trkpt>
      <trkpt lat="46.06889" lon="2.40828">
        <ele>632.68</ele>
        <time>2022-07-23T10:37:09Z</time>
      </trkpt>
      <trkpt lat="46.06888" lon="2.40826">
        <ele>633.17</ele>
        <time>2022-07-23T10:37:52Z</time>
      </trkpt>
      <trkpt lat="46.06888" lon="2.40826">
        <ele>632.68</ele>
        <time>2022-07-23T10:38:31Z</time>
      </trkpt>
      <trkpt lat="46.06888" lon="2.40826">
        <ele>633.17</ele>
        <time>2022-07-23T10:39:06Z</time>
      </trkpt>
      <trkpt lat="46.06886" lon="2.40827">
        <ele>631.72</ele>
        <time>2022-07-23T10:39:37Z</time>
      </trkpt>
      <trkpt lat="46.06887" lon="2.40827">
        <ele>630.28</ele>
        <time>2022-07-23T10:40:15Z</time>
      </trkpt>
      <trkpt lat="46.06888" lon="2.40828">
        <ele>631.24</ele>
        <time>2022-07-23T10:40:49Z</time>
      </trkpt>
      <trkpt lat="46.06888" lon="2.40828">
        <ele>631.24</ele>
        <time>2022-07-23T10:41:28Z</time>
      </trkpt>
      <trkpt lat="46.06889" lon="2.40829">
        <ele>631.24</ele>
        <time>2022-07-23T10:42:07Z</time>
      </trkpt>
      <trkpt lat="46.06888" lon="2.40828">
        <ele>632.2</ele>
        <time>2022-07-23T10:42:45Z</time>
      </trkpt>
      <trkpt lat="46.06889" lon="2.40827">
        <ele>633.17</ele>
        <time>2022-07-23T10:43:22Z</time>
      </trkpt>
      <trkpt lat="46.06888" lon="2.40827">
        <ele>633.65</ele>
        <time>2022-07-23T10:44:06Z</time>
      </trkpt>
      <trkpt lat="46.06889" lon="2.40828">
        <ele>632.2</ele>
        <time>2022-07-23T10:44:49Z</time>
      </trkpt>
      <trkpt lat="46.06888" lon="2.40827">
        <ele>632.2</ele>
        <time>2022-07-23T10:45:31Z</time>
      </trkpt>
      <trkpt lat="46.06889" lon="2.40827">
        <ele>632.68</ele>
        <time>2022-07-23T10:46:08Z</time>
      </trkpt>
      <trkpt lat="46.0689" lon="2.40827">
        <ele>633.17</ele>
        <time>2022-07-23T10:46:48Z</time>
      </trkpt>
      <trkpt lat="46.0689" lon="2.40826">
        <ele>630.76</ele>
        <time>2022-07-23T10:47:28Z</time>
      </trkpt>
      <trkpt lat="46.06889" lon="2.40825">
        <ele>632.68</ele>
        <time>2022-07-23T10:48:06Z</time>
      </trkpt>
      <trkpt lat="46.0689" lon="2.40825">
        <ele>631.72</ele>
        <time>2022-07-23T10:48:21Z</time>
      </trkpt>
      <trkpt lat="46.06892" lon="2.40826">
        <ele>633.17</ele>
        <time>2022-07-23T10:48:39Z</time>
      </trkpt>
      <trkpt lat="46.06893" lon="2.4083">
        <ele>632.68</ele>
        <time>2022-07-23T10:49:01Z</time>
      </trkpt>
      <trkpt lat="46.06892" lon="2.40828">
        <ele>634.13</ele>
        <time>2022-07-23T10:49:20Z</time>
      </trkpt>
      <trkpt lat="46.06899" lon="2.40823">
        <ele>633.65</ele>
        <time>2022-07-23T10:49:38Z</time>
      </trkpt>
      <trkpt lat="46.069" lon="2.40819">
        <ele>633.17</ele>
        <time>2022-07-23T10:49:42Z</time>
      </trkpt>
      <trkpt lat="46.06899" lon="2.40814">
        <ele>633.17</ele>
        <time>2022-07-23T10:49:46Z</time>
      </trkpt>
      <trkpt lat="46.06889" lon="2.40792">
        <ele>633.65</ele>
        <time>2022-07-23T10:50:06Z</time>
      </trkpt>
      <trkpt lat="46.06886" lon="2.40784">
        <ele>632.68</ele>
        <time>2022-07-23T10:50:21Z</time>
      </trkpt>
      <trkpt lat="46.06876" lon="2.40759">
        <ele>630.76</ele>
        <time>2022-07-23T10:50:39Z</time>
      </trkpt>
      <trkpt lat="46.0687" lon="2.40744">
        <ele>628.36</ele>
        <time>2022-07-23T10:50:57Z</time>
      </trkpt>
      <trkpt lat="46.06869" lon="2.40744">
        <ele>628.36</ele>
        <time>2022-07-23T10:51:22Z</time>
      </trkpt>
      <trkpt lat="46.06858" lon="2.40717">
        <ele>626.92</ele>
        <time>2022-07-23T10:51:42Z</time>
      </trkpt>
      <trkpt lat="46.06843" lon="2.40691">
        <ele>625.47</ele>
        <time>2022-07-23T10:52:03Z</time>
      </trkpt>
      <trkpt lat="46.06827" lon="2.40671">
        <ele>624.99</ele>
        <time>2022-07-23T10:52:20Z</time>
      </trkpt>
      <trkpt lat="46.06809" lon="2.4065">
        <ele>623.07</ele>
        <time>2022-07-23T10:52:41Z</time>
      </trkpt>
      <trkpt lat="46.06793" lon="2.40634">
        <ele>622.11</ele>
        <time>2022-07-23T10:52:59Z</time>
      </trkpt>
      <trkpt lat="46.06777" lon="2.40621">
        <ele>620.19</ele>
        <time>2022-07-23T10:53:18Z</time>
      </trkpt>
      <trkpt lat="46.0677" lon="2.40614">
        <ele>621.15</ele>
        <time>2022-07-23T10:53:29Z</time>
      </trkpt>
      <trkpt lat="46.0674" lon="2.40614">
        <ele>621.63</ele>
        <time>2022-07-23T10:53:53Z</time>
      </trkpt>
      <trkpt lat="46.06736" lon="2.40611">
        <ele>623.07</ele>
        <time>2022-07-23T10:54:09Z</time>
      </trkpt>
      <trkpt lat="46.06729" lon="2.40609">
        <ele>624.03</ele>
        <time>2022-07-23T10:54:33Z</time>
      </trkpt>
      <trkpt lat="46.06701" lon="2.40607">
        <ele>622.11</ele>
        <time>2022-07-23T10:54:55Z</time>
      </trkpt>
      <trkpt lat="46.06676" lon="2.40606">
        <ele>619.71</ele>
        <time>2022-07-23T10:55:15Z</time>
      </trkpt>
      <trkpt lat="46.0665" lon="2.40601">
        <ele>618.26</ele>
        <time>2022-07-23T10:55:37Z</time>
      </trkpt>
      <trkpt lat="46.06621" lon="2.40587">
        <ele>615.86</ele>
        <time>2022-07-23T10:56:01Z</time>
      </trkpt>
      <trkpt lat="46.06601" lon="2.40577">
        <ele>613.94</ele>
        <time>2022-07-23T10:56:19Z</time>
      </trkpt>
      <trkpt lat="46.0658" lon="2.40573">
        <ele>611.54</ele>
        <time>2022-07-23T10:56:37Z</time>
      </trkpt>
      <trkpt lat="46.06558" lon="2.40563">
        <ele>610.09</ele>
        <time>2022-07-23T10:56:56Z</time>
      </trkpt>
      <trkpt lat="46.06534" lon="2.40547">
        <ele>607.69</ele>
        <time>2022-07-23T10:57:17Z</time>
      </trkpt>
      <trkpt lat="46.06515" lon="2.4053">
        <ele>605.77</ele>
        <time>2022-07-23T10:57:35Z</time>
      </trkpt>
      <trkpt lat="46.06494" lon="2.4051">
        <ele>603.85</ele>
        <time>2022-07-23T10:57:56Z</time>
      </trkpt>
      <trkpt lat="46.06471" lon="2.40492">
        <ele>600.48</ele>
        <time>2022-07-23T10:58:18Z</time>
      </trkpt>
      <trkpt lat="46.06448" lon="2.40479">
        <ele>598.56</ele>
        <time>2022-07-23T10:58:38Z</time>
      </trkpt>
      <trkpt lat="46.06423" lon="2.40463">
        <ele>596.64</ele>
        <time>2022-07-23T10:58:59Z</time>
      </trkpt>
      <trkpt lat="46.06401" lon="2.40449">
        <ele>595.67</ele>
        <time>2022-07-23T10:59:19Z</time>
      </trkpt>
      <trkpt lat="46.06376" lon="2.40437">
        <ele>592.79</ele>
        <time>2022-07-23T10:59:41Z</time>
      </trkpt>
      <trkpt lat="46.06353" lon="2.40434">
        <ele>590.87</ele>
        <time>2022-07-23T11:00:00Z</time>
      </trkpt>
      <trkpt lat="46.06331" lon="2.40429">
        <ele>591.83</ele>
        <time>2022-07-23T11:00:17Z</time>
      </trkpt>
      <trkpt lat="46.06314" lon="2.4041">
        <ele>589.91</ele>
        <time>2022-07-23T11:00:36Z</time>
      </trkpt>
      <trkpt lat="46.06309" lon="2.40406">
        <ele>589.91</ele>
        <time>2022-07-23T11:00:41Z</time>
      </trkpt>
      <trkpt lat="46.06291" lon="2.40393">
        <ele>591.35</ele>
        <time>2022-07-23T11:01:00Z</time>
      </trkpt>
      <trkpt lat="46.06267" lon="2.40382">
        <ele>593.27</ele>
        <time>2022-07-23T11:01:20Z</time>
      </trkpt>
      <trkpt lat="46.06248" lon="2.40376">
        <ele>594.71</ele>
        <time>2022-07-23T11:01:36Z</time>
      </trkpt>
      <trkpt lat="46.06223" lon="2.40377">
        <ele>596.15</ele>
        <time>2022-07-23T11:01:56Z</time>
      </trkpt>
      <trkpt lat="46.06203" lon="2.40377">
        <ele>596.15</ele>
        <time>2022-07-23T11:02:14Z</time>
      </trkpt>
      <trkpt lat="46.06176" lon="2.40374">
        <ele>597.6</ele>
        <time>2022-07-23T11:02:37Z</time>
      </trkpt>
      <trkpt lat="46.06157" lon="2.40371">
        <ele>597.6</ele>
        <time>2022-07-23T11:02:54Z</time>
      </trkpt>
      <trkpt lat="46.06137" lon="2.40366">
        <ele>598.56</ele>
        <time>2022-07-23T11:03:11Z</time>
      </trkpt>
      <trkpt lat="46.06114" lon="2.40359">
        <ele>599.52</ele>
        <time>2022-07-23T11:03:32Z</time>
      </trkpt>
      <trkpt lat="46.06094" lon="2.40354">
        <ele>599.52</ele>
        <time>2022-07-23T11:03:51Z</time>
      </trkpt>
      <trkpt lat="46.0607" lon="2.40348">
        <ele>601.92</ele>
        <time>2022-07-23T11:04:11Z</time>
      </trkpt>
      <trkpt lat="46.06049" lon="2.40342">
        <ele>603.85</ele>
        <time>2022-07-23T11:04:30Z</time>
      </trkpt>
      <trkpt lat="46.06034" lon="2.40337">
        <ele>603.85</ele>
        <time>2022-07-23T11:04:48Z</time>
      </trkpt>
      <trkpt lat="46.06026" lon="2.40333">
        <ele>603.85</ele>
        <time>2022-07-23T11:05:05Z</time>
      </trkpt>
      <trkpt lat="46.06002" lon="2.40328">
        <ele>605.77</ele>
        <time>2022-07-23T11:05:25Z</time>
      </trkpt>
      <trkpt lat="46.05976" lon="2.4032">
        <ele>604.81</ele>
        <time>2022-07-23T11:05:46Z</time>
      </trkpt>
      <trkpt lat="46.0595" lon="2.40309">
        <ele>605.77</ele>
        <time>2022-07-23T11:06:07Z</time>
      </trkpt>
      <trkpt lat="46.05926" lon="2.40295">
        <ele>606.25</ele>
        <time>2022-07-23T11:06:28Z</time>
      </trkpt>
      <trkpt lat="46.05906" lon="2.40282">
        <ele>606.25</ele>
        <time>2022-07-23T11:06:47Z</time>
      </trkpt>
      <trkpt lat="46.05893" lon="2.40277">
        <ele>607.69</ele>
        <time>2022-07-23T11:06:59Z</time>
      </trkpt>
      <trkpt lat="46.0587" lon="2.40264">
        <ele>605.29</ele>
        <time>2022-07-23T11:07:20Z</time>
      </trkpt>
      <trkpt lat="46.05848" lon="2.40251">
        <ele>605.77</ele>
        <time>2022-07-23T11:07:39Z</time>
      </trkpt>
      <trkpt lat="46.05827" lon="2.4024">
        <ele>604.81</ele>
        <time>2022-07-23T11:07:58Z</time>
      </trkpt>
      <trkpt lat="46.05806" lon="2.4023">
        <ele>603.36</ele>
        <time>2022-07-23T11:08:15Z</time>
      </trkpt>
      <trkpt lat="46.05791" lon="2.4022">
        <ele>602.4</ele>
        <time>2022-07-23T11:08:29Z</time>
      </trkpt>
      <trkpt lat="46.0577" lon="2.40212">
        <ele>600.96</ele>
        <time>2022-07-23T11:08:47Z</time>
      </trkpt>
      <trkpt lat="46.05746" lon="2.40204">
        <ele>599.52</ele>
        <time>2022-07-23T11:09:06Z</time>
      </trkpt>
      <trkpt lat="46.05722" lon="2.40196">
        <ele>596.64</ele>
        <time>2022-07-23T11:09:26Z</time>
      </trkpt>
      <trkpt lat="46.05698" lon="2.40187">
        <ele>594.71</ele>
        <time>2022-07-23T11:09:46Z</time>
      </trkpt>
      <trkpt lat="46.05679" lon="2.40172">
        <ele>591.35</ele>
        <time>2022-07-23T11:10:04Z</time>
      </trkpt>
      <trkpt lat="46.05659" lon="2.40152">
        <ele>587.5</ele>
        <time>2022-07-23T11:10:24Z</time>
      </trkpt>
      <trkpt lat="46.05635" lon="2.4013">
        <ele>586.06</ele>
        <time>2022-07-23T11:10:47Z</time>
      </trkpt>
      <trkpt lat="46.0561" lon="2.40121">
        <ele>587.02</ele>
        <time>2022-07-23T11:11:07Z</time>
      </trkpt>
      <trkpt lat="46.05584" lon="2.4013">
        <ele>587.5</ele>
        <time>2022-07-23T11:11:30Z</time>
      </trkpt>
      <trkpt lat="46.05563" lon="2.40139">
        <ele>589.43</ele>
        <time>2022-07-23T11:11:49Z</time>
      </trkpt>
      <trkpt lat="46.05544" lon="2.40148">
        <ele>591.83</ele>
        <time>2022-07-23T11:12:06Z</time>
      </trkpt>
      <trkpt lat="46.0554" lon="2.40149">
        <ele>592.31</ele>
        <time>2022-07-23T11:12:10Z</time>
      </trkpt>
      <trkpt lat="46.05537" lon="2.40152">
        <ele>592.79</ele>
        <time>2022-07-23T11:12:13Z</time>
      </trkpt>
      <trkpt lat="46.05518" lon="2.40163">
        <ele>593.75</ele>
        <time>2022-07-23T11:12:31Z</time>
      </trkpt>
      <trkpt lat="46.05498" lon="2.40174">
        <ele>594.71</ele>
        <time>2022-07-23T11:12:49Z</time>
      </trkpt>
      <trkpt lat="46.0548" lon="2.40179">
        <ele>593.27</ele>
        <time>2022-07-23T11:13:04Z</time>
      </trkpt>
      <trkpt lat="46.05459" lon="2.40181">
        <ele>593.75</ele>
        <time>2022-07-23T11:13:22Z</time>
      </trkpt>
      <trkpt lat="46.05441" lon="2.40181">
        <ele>593.75</ele>
        <time>2022-07-23T11:13:37Z</time>
      </trkpt>
      <trkpt lat="46.05421" lon="2.40181">
        <ele>591.83</ele>
        <time>2022-07-23T11:13:54Z</time>
      </trkpt>
      <trkpt lat="46.05398" lon="2.4018">
        <ele>590.39</ele>
        <time>2022-07-23T11:14:13Z</time>
      </trkpt>
      <trkpt lat="46.0538" lon="2.40172">
        <ele>590.39</ele>
        <time>2022-07-23T11:14:27Z</time>
      </trkpt>
      <trkpt lat="46.05363" lon="2.40158">
        <ele>588.46</ele>
        <time>2022-07-23T11:14:44Z</time>
      </trkpt>
      <trkpt lat="46.05351" lon="2.40143">
        <ele>587.02</ele>
        <time>2022-07-23T11:14:57Z</time>
      </trkpt>
      <trkpt lat="46.0534" lon="2.40121">
        <ele>585.58</ele>
        <time>2022-07-23T11:15:14Z</time>
      </trkpt>
      <trkpt lat="46.05332" lon="2.40093">
        <ele>583.66</ele>
        <time>2022-07-23T11:15:32Z</time>
      </trkpt>
      <trkpt lat="46.05322" lon="2.40065">
        <ele>582.7</ele>
        <time>2022-07-23T11:15:49Z</time>
      </trkpt>
      <trkpt lat="46.05322" lon="2.40063">
        <ele>584.14</ele>
        <time>2022-07-23T11:16:06Z</time>
      </trkpt>
      <trkpt lat="46.05319" lon="2.40059">
        <ele>585.58</ele>
        <time>2022-07-23T11:16:32Z</time>
      </trkpt>
      <trkpt lat="46.05299" lon="2.40035">
        <ele>584.14</ele>
        <time>2022-07-23T11:16:53Z</time>
      </trkpt>
      <trkpt lat="46.0528" lon="2.4001">
        <ele>584.14</ele>
        <time>2022-07-23T11:17:14Z</time>
      </trkpt>
      <trkpt lat="46.05263" lon="2.39984">
        <ele>583.66</ele>
        <time>2022-07-23T11:17:34Z</time>
      </trkpt>
      <trkpt lat="46.05244" lon="2.39963">
        <ele>583.66</ele>
        <time>2022-07-23T11:17:54Z</time>
      </trkpt>
      <trkpt lat="46.05226" lon="2.39947">
        <ele>583.18</ele>
        <time>2022-07-23T11:18:11Z</time>
      </trkpt>
      <trkpt lat="46.05214" lon="2.39926">
        <ele>586.06</ele>
        <time>2022-07-23T11:18:28Z</time>
      </trkpt>
      <trkpt lat="46.05205" lon="2.39902">
        <ele>586.54</ele>
        <time>2022-07-23T11:18:45Z</time>
      </trkpt>
      <trkpt lat="46.05197" lon="2.3988">
        <ele>588.46</ele>
        <time>2022-07-23T11:19:00Z</time>
      </trkpt>
      <trkpt lat="46.05194" lon="2.39869">
        <ele>588.95</ele>
        <time>2022-07-23T11:19:07Z</time>
      </trkpt>
      <trkpt lat="46.05189" lon="2.39841">
        <ele>588.95</ele>
        <time>2022-07-23T11:19:24Z</time>
      </trkpt>
      <trkpt lat="46.05181" lon="2.39824">
        <ele>590.39</ele>
        <time>2022-07-23T11:19:37Z</time>
      </trkpt>
      <trkpt lat="46.05173" lon="2.39802">
        <ele>589.91</ele>
        <time>2022-07-23T11:19:53Z</time>
      </trkpt>
      <trkpt lat="46.05173" lon="2.39799">
        <ele>589.43</ele>
        <time>2022-07-23T11:19:55Z</time>
      </trkpt>
      <trkpt lat="46.05174" lon="2.39775">
        <ele>587.02</ele>
        <time>2022-07-23T11:20:12Z</time>
      </trkpt>
      <trkpt lat="46.05175" lon="2.39757">
        <ele>583.66</ele>
        <time>2022-07-23T11:20:27Z</time>
      </trkpt>
      <trkpt lat="46.05178" lon="2.3973">
        <ele>579.81</ele>
        <time>2022-07-23T11:20:44Z</time>
      </trkpt>
      <trkpt lat="46.05181" lon="2.39707">
        <ele>576.93</ele>
        <time>2022-07-23T11:21:01Z</time>
      </trkpt>
      <trkpt lat="46.05186" lon="2.39679">
        <ele>573.08</ele>
        <time>2022-07-23T11:21:21Z</time>
      </trkpt>
      <trkpt lat="46.05192" lon="2.39653">
        <ele>569.72</ele>
        <time>2022-07-23T11:21:39Z</time>
      </trkpt>
      <trkpt lat="46.05199" lon="2.3963">
        <ele>567.32</ele>
        <time>2022-07-23T11:21:57Z</time>
      </trkpt>
      <trkpt lat="46.05201" lon="2.39598">
        <ele>565.87</ele>
        <time>2022-07-23T11:22:16Z</time>
      </trkpt>
      <trkpt lat="46.052" lon="2.39577">
        <ele>563.95</ele>
        <time>2022-07-23T11:22:31Z</time>
      </trkpt>
      <trkpt lat="46.05201" lon="2.39553">
        <ele>561.07</ele>
        <time>2022-07-23T11:22:47Z</time>
      </trkpt>
      <trkpt lat="46.05211" lon="2.39528">
        <ele>556.74</ele>
        <time>2022-07-23T11:23:04Z</time>
      </trkpt>
      <trkpt lat="46.05217" lon="2.39518">
        <ele>556.74</ele>
        <time>2022-07-23T11:23:12Z</time>
      </trkpt>
      <trkpt lat="46.05219" lon="2.39517">
        <ele>556.74</ele>
        <time>2022-07-23T11:23:14Z</time>
      </trkpt>
      <trkpt lat="46.05223" lon="2.39508">
        <ele>556.74</ele>
        <time>2022-07-23T11:23:20Z</time>
      </trkpt>
      <trkpt lat="46.05234" lon="2.39489">
        <ele>553.38</ele>
        <time>2022-07-23T11:23:37Z</time>
      </trkpt>
      <trkpt lat="46.05234" lon="2.39487">
        <ele>553.38</ele>
        <time>2022-07-23T11:23:38Z</time>
      </trkpt>
      <trkpt lat="46.0524" lon="2.3948">
        <ele>552.41</ele>
        <time>2022-07-23T11:23:45Z</time>
      </trkpt>
      <trkpt lat="46.05249" lon="2.39453">
        <ele>550.01</ele>
        <time>2022-07-23T11:24:00Z</time>
      </trkpt>
      <trkpt lat="46.05257" lon="2.39439">
        <ele>548.57</ele>
        <time>2022-07-23T11:24:11Z</time>
      </trkpt>
      <trkpt lat="46.05262" lon="2.39426">
        <ele>548.57</ele>
        <time>2022-07-23T11:24:19Z</time>
      </trkpt>
      <trkpt lat="46.05273" lon="2.39404">
        <ele>548.57</ele>
        <time>2022-07-23T11:24:35Z</time>
      </trkpt>
      <trkpt lat="46.0528" lon="2.39379">
        <ele>548.57</ele>
        <time>2022-07-23T11:24:50Z</time>
      </trkpt>
      <trkpt lat="46.05277" lon="2.39347">
        <ele>547.61</ele>
        <time>2022-07-23T11:25:08Z</time>
      </trkpt>
      <trkpt lat="46.05277" lon="2.39341">
        <ele>546.65</ele>
        <time>2022-07-23T11:25:12Z</time>
      </trkpt>
      <trkpt lat="46.05277" lon="2.39332">
        <ele>545.2</ele>
        <time>2022-07-23T11:25:19Z</time>
      </trkpt>
      <trkpt lat="46.0527" lon="2.39309">
        <ele>544.24</ele>
        <time>2022-07-23T11:25:38Z</time>
      </trkpt>
      <trkpt lat="46.05263" lon="2.39294">
        <ele>546.17</ele>
        <time>2022-07-23T11:25:55Z</time>
      </trkpt>
      <trkpt lat="46.05263" lon="2.39291">
        <ele>546.17</ele>
        <time>2022-07-23T11:26:16Z</time>
      </trkpt>
      <trkpt lat="46.05263" lon="2.39287">
        <ele>543.76</ele>
        <time>2022-07-23T11:26:35Z</time>
      </trkpt>
      <trkpt lat="46.05257" lon="2.39272">
        <ele>547.61</ele>
        <time>2022-07-23T11:26:51Z</time>
      </trkpt>
      <trkpt lat="46.05248" lon="2.39242">
        <ele>548.09</ele>
        <time>2022-07-23T11:27:10Z</time>
      </trkpt>
      <trkpt lat="46.05238" lon="2.39203">
        <ele>548.57</ele>
        <time>2022-07-23T11:27:33Z</time>
      </trkpt>
      <trkpt lat="46.05234" lon="2.39178">
        <ele>548.57</ele>
        <time>2022-07-23T11:27:48Z</time>
      </trkpt>
      <trkpt lat="46.0523" lon="2.39148">
        <ele>548.57</ele>
        <time>2022-07-23T11:28:07Z</time>
      </trkpt>
      <trkpt lat="46.0522" lon="2.39125">
        <ele>550.01</ele>
        <time>2022-07-23T11:28:24Z</time>
      </trkpt>
      <trkpt lat="46.05218" lon="2.39124">
        <ele>550.01</ele>
        <time>2022-07-23T11:28:26Z</time>
      </trkpt>
      <trkpt lat="46.05196" lon="2.39122">
        <ele>552.41</ele>
        <time>2022-07-23T11:28:44Z</time>
      </trkpt>
      <trkpt lat="46.05181" lon="2.39109">
        <ele>555.3</ele>
        <time>2022-07-23T11:28:59Z</time>
      </trkpt>
      <trkpt lat="46.05179" lon="2.39081">
        <ele>553.86</ele>
        <time>2022-07-23T11:29:16Z</time>
      </trkpt>
      <trkpt lat="46.05177" lon="2.39039">
        <ele>551.93</ele>
        <time>2022-07-23T11:29:39Z</time>
      </trkpt>
      <trkpt lat="46.05176" lon="2.39008">
        <ele>551.45</ele>
        <time>2022-07-23T11:29:57Z</time>
      </trkpt>
      <trkpt lat="46.05177" lon="2.38993">
        <ele>551.45</ele>
        <time>2022-07-23T11:30:06Z</time>
      </trkpt>
      <trkpt lat="46.05176" lon="2.38959">
        <ele>550.97</ele>
        <time>2022-07-23T11:30:25Z</time>
      </trkpt>
      <trkpt lat="46.05174" lon="2.3893">
        <ele>548.57</ele>
        <time>2022-07-23T11:30:43Z</time>
      </trkpt>
      <trkpt lat="46.05177" lon="2.38902">
        <ele>547.61</ele>
        <time>2022-07-23T11:31:00Z</time>
      </trkpt>
      <trkpt lat="46.05176" lon="2.38873">
        <ele>546.65</ele>
        <time>2022-07-23T11:31:17Z</time>
      </trkpt>
      <trkpt lat="46.05176" lon="2.3887">
        <ele>546.65</ele>
        <time>2022-07-23T11:31:19Z</time>
      </trkpt>
      <trkpt lat="46.05177" lon="2.38862">
        <ele>546.65</ele>
        <time>2022-07-23T11:31:24Z</time>
      </trkpt>
      <trkpt lat="46.05179" lon="2.38859">
        <ele>548.09</ele>
        <time>2022-07-23T11:31:37Z</time>
      </trkpt>
      <trkpt lat="46.05178" lon="2.38857">
        <ele>550.49</ele>
        <time>2022-07-23T11:32:04Z</time>
      </trkpt>
      <trkpt lat="46.0518" lon="2.3886">
        <ele>551.93</ele>
        <time>2022-07-23T11:32:27Z</time>
      </trkpt>
      <trkpt lat="46.05178" lon="2.38855">
        <ele>550.97</ele>
        <time>2022-07-23T11:32:48Z</time>
      </trkpt>
      <trkpt lat="46.05177" lon="2.38849">
        <ele>551.93</ele>
        <time>2022-07-23T11:33:10Z</time>
      </trkpt>
      <trkpt lat="46.05175" lon="2.38821">
        <ele>549.05</ele>
        <time>2022-07-23T11:33:29Z</time>
      </trkpt>
      <trkpt lat="46.05178" lon="2.38816">
        <ele>547.13</ele>
        <time>2022-07-23T11:33:47Z</time>
      </trkpt>
      <trkpt lat="46.05176" lon="2.388">
        <ele>545.69</ele>
        <time>2022-07-23T11:34:02Z</time>
      </trkpt>
      <trkpt lat="46.05176" lon="2.38796">
        <ele>545.2</ele>
        <time>2022-07-23T11:34:05Z</time>
      </trkpt>
      <trkpt lat="46.05174" lon="2.38783">
        <ele>545.2</ele>
        <time>2022-07-23T11:34:23Z</time>
      </trkpt>
      <trkpt lat="46.05174" lon="2.38768">
        <ele>546.17</ele>
        <time>2022-07-23T11:34:45Z</time>
      </trkpt>
      <trkpt lat="46.05176" lon="2.38767">
        <ele>545.69</ele>
        <time>2022-07-23T11:34:47Z</time>
      </trkpt>
      <trkpt lat="46.05178" lon="2.38766">
        <ele>545.2</ele>
        <time>2022-07-23T11:34:49Z</time>
      </trkpt>
      <trkpt lat="46.05184" lon="2.38744">
        <ele>549.05</ele>
        <time>2022-07-23T11:35:06Z</time>
      </trkpt>
      <trkpt lat="46.05184" lon="2.38733">
        <ele>550.97</ele>
        <time>2022-07-23T11:35:13Z</time>
      </trkpt>
      <trkpt lat="46.05182" lon="2.3873">
        <ele>550.97</ele>
        <time>2022-07-23T11:35:16Z</time>
      </trkpt>
      <trkpt lat="46.05167" lon="2.38728">
        <ele>549.53</ele>
        <time>2022-07-23T11:35:32Z</time>
      </trkpt>
      <trkpt lat="46.05154" lon="2.38736">
        <ele>546.17</ele>
        <time>2022-07-23T11:35:46Z</time>
      </trkpt>
      <trkpt lat="46.05138" lon="2.38728">
        <ele>549.05</ele>
        <time>2022-07-23T11:36:01Z</time>
      </trkpt>
      <trkpt lat="46.05129" lon="2.38725">
        <ele>553.86</ele>
        <time>2022-07-23T11:36:14Z</time>
      </trkpt>
      <trkpt lat="46.05128" lon="2.38723">
        <ele>554.34</ele>
        <time>2022-07-23T11:36:27Z</time>
      </trkpt>
      <trkpt lat="46.05131" lon="2.38721">
        <ele>553.38</ele>
        <time>2022-07-23T11:36:42Z</time>
      </trkpt>
      <trkpt lat="46.05138" lon="2.38714">
        <ele>552.41</ele>
        <time>2022-07-23T11:36:50Z</time>
      </trkpt>
      <trkpt lat="46.05147" lon="2.38702">
        <ele>550.97</ele>
        <time>2022-07-23T11:37:09Z</time>
      </trkpt>
      <trkpt lat="46.05146" lon="2.38701">
        <ele>547.61</ele>
        <time>2022-07-23T11:37:25Z</time>
      </trkpt>
      <trkpt lat="46.05143" lon="2.38706">
        <ele>546.65</ele>
        <time>2022-07-23T11:37:36Z</time>
      </trkpt>
      <trkpt lat="46.05141" lon="2.38713">
        <ele>547.61</ele>
        <time>2022-07-23T11:37:40Z</time>
      </trkpt>
      <trkpt lat="46.05128" lon="2.38735">
        <ele>557.22</ele>
        <time>2022-07-23T11:37:56Z</time>
      </trkpt>
      <trkpt lat="46.05125" lon="2.38741">
        <ele>557.7</ele>
        <time>2022-07-23T11:38:01Z</time>
      </trkpt>
      <trkpt lat="46.05119" lon="2.3875">
        <ele>559.62</ele>
        <time>2022-07-23T11:38:12Z</time>
      </trkpt>
      <trkpt lat="46.05107" lon="2.38766">
        <ele>561.07</ele>
        <time>2022-07-23T11:38:30Z</time>
      </trkpt>
      <trkpt lat="46.05104" lon="2.38769">
        <ele>560.59</ele>
        <time>2022-07-23T11:38:35Z</time>
      </trkpt>
      <trkpt lat="46.05103" lon="2.38774">
        <ele>560.59</ele>
        <time>2022-07-23T11:38:39Z</time>
      </trkpt>
      <trkpt lat="46.05095" lon="2.38788">
        <ele>557.7</ele>
        <time>2022-07-23T11:38:52Z</time>
      </trkpt>
      <trkpt lat="46.05089" lon="2.38804">
        <ele>556.26</ele>
        <time>2022-07-23T11:39:03Z</time>
      </trkpt>
      <trkpt lat="46.05078" lon="2.38821">
        <ele>556.74</ele>
        <time>2022-07-23T11:39:16Z</time>
      </trkpt>
      <trkpt lat="46.05063" lon="2.38837">
        <ele>557.7</ele>
        <time>2022-07-23T11:39:31Z</time>
      </trkpt>
      <trkpt lat="46.05053" lon="2.38849">
        <ele>559.14</ele>
        <time>2022-07-23T11:39:42Z</time>
      </trkpt>
      <trkpt lat="46.05038" lon="2.38866">
        <ele>559.14</ele>
        <time>2022-07-23T11:39:58Z</time>
      </trkpt>
      <trkpt lat="46.05029" lon="2.38872">
        <ele>561.55</ele>
        <time>2022-07-23T11:40:09Z</time>
      </trkpt>
      <trkpt lat="46.05028" lon="2.38872">
        <ele>562.03</ele>
        <time>2022-07-23T11:40:20Z</time>
      </trkpt>
      <trkpt lat="46.05029" lon="2.38871">
        <ele>564.43</ele>
        <time>2022-07-23T11:40:33Z</time>
      </trkpt>
      <trkpt lat="46.05028" lon="2.38872">
        <ele>565.39</ele>
        <time>2022-07-23T11:40:57Z</time>
      </trkpt>
      <trkpt lat="46.05026" lon="2.38876">
        <ele>566.83</ele>
        <time>2022-07-23T11:41:15Z</time>
      </trkpt>
      <trkpt lat="46.05026" lon="2.38876">
        <ele>567.32</ele>
        <time>2022-07-23T11:41:33Z</time>
      </trkpt>
      <trkpt lat="46.05022" lon="2.38879">
        <ele>564.43</ele>
        <time>2022-07-23T11:41:50Z</time>
      </trkpt>
      <trkpt lat="46.05018" lon="2.38883">
        <ele>563.95</ele>
        <time>2022-07-23T11:41:54Z</time>
      </trkpt>
      <trkpt lat="46.05016" lon="2.38884">
        <ele>563.95</ele>
        <time>2022-07-23T11:41:56Z</time>
      </trkpt>
      <trkpt lat="46.05" lon="2.38895">
        <ele>564.43</ele>
        <time>2022-07-23T11:42:12Z</time>
      </trkpt>
      <trkpt lat="46.04987" lon="2.38903">
        <ele>566.35</ele>
        <time>2022-07-23T11:42:25Z</time>
      </trkpt>
      <trkpt lat="46.04984" lon="2.38907">
        <ele>565.87</ele>
        <time>2022-07-23T11:42:29Z</time>
      </trkpt>
      <trkpt lat="46.04969" lon="2.38903">
        <ele>565.39</ele>
        <time>2022-07-23T11:42:43Z</time>
      </trkpt>
      <trkpt lat="46.04949" lon="2.38887">
        <ele>565.87</ele>
        <time>2022-07-23T11:43:02Z</time>
      </trkpt>
      <trkpt lat="46.04929" lon="2.38875">
        <ele>565.87</ele>
        <time>2022-07-23T11:43:20Z</time>
      </trkpt>
      <trkpt lat="46.04908" lon="2.38869">
        <ele>565.39</ele>
        <time>2022-07-23T11:43:38Z</time>
      </trkpt>
      <trkpt lat="46.04885" lon="2.38869">
        <ele>567.32</ele>
        <time>2022-07-23T11:43:58Z</time>
      </trkpt>
      <trkpt lat="46.04862" lon="2.38867">
        <ele>567.32</ele>
        <time>2022-07-23T11:44:17Z</time>
      </trkpt>
      <trkpt lat="46.04841" lon="2.38859">
        <ele>566.83</ele>
        <time>2022-07-23T11:44:35Z</time>
      </trkpt>
      <trkpt lat="46.04837" lon="2.38857">
        <ele>566.83</ele>
        <time>2022-07-23T11:44:39Z</time>
      </trkpt>
      <trkpt lat="46.04815" lon="2.38848">
        <ele>566.35</ele>
        <time>2022-07-23T11:44:58Z</time>
      </trkpt>
      <trkpt lat="46.04794" lon="2.38839">
        <ele>566.35</ele>
        <time>2022-07-23T11:45:17Z</time>
      </trkpt>
      <trkpt lat="46.04774" lon="2.38832">
        <ele>567.32</ele>
        <time>2022-07-23T11:45:35Z</time>
      </trkpt>
      <trkpt lat="46.04753" lon="2.38823">
        <ele>566.83</ele>
        <time>2022-07-23T11:45:52Z</time>
      </trkpt>
      <trkpt lat="46.04735" lon="2.38802">
        <ele>566.35</ele>
        <time>2022-07-23T11:46:11Z</time>
      </trkpt>
      <trkpt lat="46.04721" lon="2.38786">
        <ele>569.24</ele>
        <time>2022-07-23T11:46:27Z</time>
      </trkpt>
      <trkpt lat="46.04699" lon="2.38774">
        <ele>572.12</ele>
        <time>2022-07-23T11:46:48Z</time>
      </trkpt>
      <trkpt lat="46.0468" lon="2.38763">
        <ele>575.01</ele>
        <time>2022-07-23T11:47:07Z</time>
      </trkpt>
      <trkpt lat="46.04661" lon="2.38752">
        <ele>577.41</ele>
        <time>2022-07-23T11:47:26Z</time>
      </trkpt>
      <trkpt lat="46.04645" lon="2.38743">
        <ele>577.41</ele>
        <time>2022-07-23T11:47:43Z</time>
      </trkpt>
      <trkpt lat="46.04625" lon="2.38731">
        <ele>579.33</ele>
        <time>2022-07-23T11:48:02Z</time>
      </trkpt>
      <trkpt lat="46.04607" lon="2.38721">
        <ele>582.7</ele>
        <time>2022-07-23T11:48:21Z</time>
      </trkpt>
      <trkpt lat="46.0459" lon="2.38712">
        <ele>584.62</ele>
        <time>2022-07-23T11:48:38Z</time>
      </trkpt>
      <trkpt lat="46.04576" lon="2.38703">
        <ele>586.06</ele>
        <time>2022-07-23T11:48:53Z</time>
      </trkpt>
      <trkpt lat="46.04556" lon="2.38702">
        <ele>587.98</ele>
        <time>2022-07-23T11:49:12Z</time>
      </trkpt>
      <trkpt lat="46.04538" lon="2.38706">
        <ele>591.35</ele>
        <time>2022-07-23T11:49:29Z</time>
      </trkpt>
      <trkpt lat="46.0452" lon="2.38707">
        <ele>593.27</ele>
        <time>2022-07-23T11:49:45Z</time>
      </trkpt>
      <trkpt lat="46.045" lon="2.38701">
        <ele>592.31</ele>
        <time>2022-07-23T11:50:03Z</time>
      </trkpt>
      <trkpt lat="46.04478" lon="2.38688">
        <ele>592.31</ele>
        <time>2022-07-23T11:50:23Z</time>
      </trkpt>
      <trkpt lat="46.04461" lon="2.38678">
        <ele>593.75</ele>
        <time>2022-07-23T11:50:39Z</time>
      </trkpt>
      <trkpt lat="46.04438" lon="2.38671">
        <ele>593.75</ele>
        <time>2022-07-23T11:50:59Z</time>
      </trkpt>
      <trkpt lat="46.04416" lon="2.38672">
        <ele>594.71</ele>
        <time>2022-07-23T11:51:17Z</time>
      </trkpt>
      <trkpt lat="46.04395" lon="2.38676">
        <ele>594.71</ele>
        <time>2022-07-23T11:51:35Z</time>
      </trkpt>
      <trkpt lat="46.04372" lon="2.38682">
        <ele>594.23</ele>
        <time>2022-07-23T11:51:54Z</time>
      </trkpt>
      <trkpt lat="46.04348" lon="2.38687">
        <ele>593.27</ele>
        <time>2022-07-23T11:52:14Z</time>
      </trkpt>
      <trkpt lat="46.04332" lon="2.387">
        <ele>593.27</ele>
        <time>2022-07-23T11:52:30Z</time>
      </trkpt>
      <trkpt lat="46.04319" lon="2.3872">
        <ele>593.75</ele>
        <time>2022-07-23T11:52:46Z</time>
      </trkpt>
      <trkpt lat="46.04302" lon="2.38741">
        <ele>597.12</ele>
        <time>2022-07-23T11:53:03Z</time>
      </trkpt>
      <trkpt lat="46.04285" lon="2.38754">
        <ele>596.15</ele>
        <time>2022-07-23T11:53:19Z</time>
      </trkpt>
      <trkpt lat="46.0427" lon="2.38766">
        <ele>596.64</ele>
        <time>2022-07-23T11:53:34Z</time>
      </trkpt>
      <trkpt lat="46.04249" lon="2.38782">
        <ele>596.15</ele>
        <time>2022-07-23T11:53:53Z</time>
      </trkpt>
      <trkpt lat="46.04235" lon="2.38785">
        <ele>594.23</ele>
        <time>2022-07-23T11:54:11Z</time>
      </trkpt>
      <trkpt lat="46.04233" lon="2.38787">
        <ele>593.75</ele>
        <time>2022-07-23T11:54:31Z</time>
      </trkpt>
      <trkpt lat="46.04226" lon="2.38791">
        <ele>593.75</ele>
        <time>2022-07-23T11:54:39Z</time>
      </trkpt>
      <trkpt lat="46.04206" lon="2.38794">
        <ele>592.31</ele>
        <time>2022-07-23T11:54:57Z</time>
      </trkpt>
      <trkpt lat="46.04192" lon="2.38812">
        <ele>592.31</ele>
        <time>2022-07-23T11:55:12Z</time>
      </trkpt>
      <trkpt lat="46.04181" lon="2.38835">
        <ele>592.79</ele>
        <time>2022-07-23T11:55:27Z</time>
      </trkpt>
      <trkpt lat="46.04174" lon="2.38849">
        <ele>591.35</ele>
        <time>2022-07-23T11:55:38Z</time>
      </trkpt>
      <trkpt lat="46.04161" lon="2.38866">
        <ele>592.31</ele>
        <time>2022-07-23T11:55:54Z</time>
      </trkpt>
      <trkpt lat="46.04143" lon="2.38864">
        <ele>595.19</ele>
        <time>2022-07-23T11:56:10Z</time>
      </trkpt>
      <trkpt lat="46.04136" lon="2.38864">
        <ele>596.64</ele>
        <time>2022-07-23T11:56:17Z</time>
      </trkpt>
      <trkpt lat="46.04128" lon="2.38875">
        <ele>598.08</ele>
        <time>2022-07-23T11:56:30Z</time>
      </trkpt>
      <trkpt lat="46.04135" lon="2.38895">
        <ele>598.56</ele>
        <time>2022-07-23T11:56:46Z</time>
      </trkpt>
      <trkpt lat="46.04136" lon="2.38909">
        <ele>597.6</ele>
        <time>2022-07-23T11:56:55Z</time>
      </trkpt>
      <trkpt lat="46.04132" lon="2.38931">
        <ele>599.04</ele>
        <time>2022-07-23T11:57:10Z</time>
      </trkpt>
      <trkpt lat="46.04126" lon="2.38952">
        <ele>600.96</ele>
        <time>2022-07-23T11:57:25Z</time>
      </trkpt>
      <trkpt lat="46.04125" lon="2.38957">
        <ele>601.44</ele>
        <time>2022-07-23T11:57:29Z</time>
      </trkpt>
      <trkpt lat="46.04121" lon="2.38973">
        <ele>602.4</ele>
        <time>2022-07-23T11:57:39Z</time>
      </trkpt>
      <trkpt lat="46.04118" lon="2.38988">
        <ele>604.33</ele>
        <time>2022-07-23T11:57:49Z</time>
      </trkpt>
      <trkpt lat="46.04112" lon="2.39002">
        <ele>604.81</ele>
        <time>2022-07-23T11:58:01Z</time>
      </trkpt>
      <trkpt lat="46.04102" lon="2.39021">
        <ele>604.33</ele>
        <time>2022-07-23T11:58:17Z</time>
      </trkpt>
      <trkpt lat="46.0409" lon="2.39043">
        <ele>605.29</ele>
        <time>2022-07-23T11:58:35Z</time>
      </trkpt>
      <trkpt lat="46.04079" lon="2.39057">
        <ele>606.73</ele>
        <time>2022-07-23T11:58:48Z</time>
      </trkpt>
      <trkpt lat="46.04066" lon="2.39074">
        <ele>608.17</ele>
        <time>2022-07-23T11:59:04Z</time>
      </trkpt>
      <trkpt lat="46.04053" lon="2.39086">
        <ele>610.57</ele>
        <time>2022-07-23T11:59:19Z</time>
      </trkpt>
      <trkpt lat="46.04042" lon="2.39097">
        <ele>612.02</ele>
        <time>2022-07-23T11:59:32Z</time>
      </trkpt>
      <trkpt lat="46.04031" lon="2.39107">
        <ele>613.94</ele>
        <time>2022-07-23T11:59:45Z</time>
      </trkpt>
      <trkpt lat="46.04018" lon="2.39118">
        <ele>617.3</ele>
        <time>2022-07-23T12:00:01Z</time>
      </trkpt>
      <trkpt lat="46.04005" lon="2.39125">
        <ele>618.75</ele>
        <time>2022-07-23T12:00:16Z</time>
      </trkpt>
      <trkpt lat="46.03993" lon="2.39132">
        <ele>619.71</ele>
        <time>2022-07-23T12:00:30Z</time>
      </trkpt>
      <trkpt lat="46.03979" lon="2.3914">
        <ele>621.63</ele>
        <time>2022-07-23T12:00:45Z</time>
      </trkpt>
      <trkpt lat="46.03973" lon="2.39145">
        <ele>621.63</ele>
        <time>2022-07-23T12:01:00Z</time>
      </trkpt>
      <trkpt lat="46.03972" lon="2.39142">
        <ele>621.15</ele>
        <time>2022-07-23T12:01:21Z</time>
      </trkpt>
      <trkpt lat="46.03971" lon="2.39146">
        <ele>620.67</ele>
        <time>2022-07-23T12:02:00Z</time>
      </trkpt>
      <trkpt lat="46.03964" lon="2.39158">
        <ele>620.19</ele>
        <time>2022-07-23T12:02:13Z</time>
      </trkpt>
      <trkpt lat="46.03949" lon="2.39168">
        <ele>620.19</ele>
        <time>2022-07-23T12:02:30Z</time>
      </trkpt>
      <trkpt lat="46.03935" lon="2.39178">
        <ele>618.75</ele>
        <time>2022-07-23T12:02:43Z</time>
      </trkpt>
      <trkpt lat="46.03916" lon="2.39194">
        <ele>617.78</ele>
        <time>2022-07-23T12:03:00Z</time>
      </trkpt>
      <trkpt lat="46.03897" lon="2.39212">
        <ele>617.78</ele>
        <time>2022-07-23T12:03:18Z</time>
      </trkpt>
      <trkpt lat="46.03881" lon="2.39228">
        <ele>617.78</ele>
        <time>2022-07-23T12:03:35Z</time>
      </trkpt>
      <trkpt lat="46.03872" lon="2.39237">
        <ele>616.82</ele>
        <time>2022-07-23T12:03:45Z</time>
      </trkpt>
      <trkpt lat="46.03853" lon="2.39256">
        <ele>617.3</ele>
        <time>2022-07-23T12:04:03Z</time>
      </trkpt>
      <trkpt lat="46.03852" lon="2.39257">
        <ele>617.78</ele>
        <time>2022-07-23T12:04:04Z</time>
      </trkpt>
      <trkpt lat="46.03834" lon="2.39273">
        <ele>617.3</ele>
        <time>2022-07-23T12:04:22Z</time>
      </trkpt>
      <trkpt lat="46.03817" lon="2.3929">
        <ele>617.3</ele>
        <time>2022-07-23T12:04:40Z</time>
      </trkpt>
      <trkpt lat="46.03804" lon="2.39304">
        <ele>616.82</ele>
        <time>2022-07-23T12:04:54Z</time>
      </trkpt>
      <trkpt lat="46.03793" lon="2.39325">
        <ele>616.34</ele>
        <time>2022-07-23T12:05:09Z</time>
      </trkpt>
      <trkpt lat="46.03782" lon="2.39346">
        <ele>615.38</ele>
        <time>2022-07-23T12:05:27Z</time>
      </trkpt>
      <trkpt lat="46.03769" lon="2.39362">
        <ele>616.34</ele>
        <time>2022-07-23T12:05:42Z</time>
      </trkpt>
      <trkpt lat="46.03755" lon="2.39391">
        <ele>616.34</ele>
        <time>2022-07-23T12:06:03Z</time>
      </trkpt>
      <trkpt lat="46.03742" lon="2.39418">
        <ele>615.86</ele>
        <time>2022-07-23T12:06:22Z</time>
      </trkpt>
      <trkpt lat="46.03734" lon="2.3944">
        <ele>616.34</ele>
        <time>2022-07-23T12:06:36Z</time>
      </trkpt>
      <trkpt lat="46.03722" lon="2.39464">
        <ele>615.86</ele>
        <time>2022-07-23T12:06:54Z</time>
      </trkpt>
      <trkpt lat="46.03715" lon="2.39466">
        <ele>617.78</ele>
        <time>2022-07-23T12:06:59Z</time>
      </trkpt>
      <trkpt lat="46.03692" lon="2.39464">
        <ele>620.67</ele>
        <time>2022-07-23T12:07:18Z</time>
      </trkpt>
      <trkpt lat="46.03668" lon="2.3946">
        <ele>621.15</ele>
        <time>2022-07-23T12:07:38Z</time>
      </trkpt>
      <trkpt lat="46.03648" lon="2.39458">
        <ele>619.71</ele>
        <time>2022-07-23T12:07:55Z</time>
      </trkpt>
      <trkpt lat="46.03637" lon="2.39458">
        <ele>621.15</ele>
        <time>2022-07-23T12:08:11Z</time>
      </trkpt>
      <trkpt lat="46.03636" lon="2.39458">
        <ele>621.15</ele>
        <time>2022-07-23T12:08:12Z</time>
      </trkpt>
      <trkpt lat="46.03618" lon="2.39454">
        <ele>621.63</ele>
        <time>2022-07-23T12:08:27Z</time>
      </trkpt>
      <trkpt lat="46.03597" lon="2.39448">
        <ele>622.11</ele>
        <time>2022-07-23T12:08:45Z</time>
      </trkpt>
      <trkpt lat="46.03584" lon="2.39445">
        <ele>621.15</ele>
        <time>2022-07-23T12:08:59Z</time>
      </trkpt>
      <trkpt lat="46.0356" lon="2.39441">
        <ele>620.19</ele>
        <time>2022-07-23T12:09:19Z</time>
      </trkpt>
      <trkpt lat="46.03539" lon="2.39438">
        <ele>620.19</ele>
        <time>2022-07-23T12:09:37Z</time>
      </trkpt>
      <trkpt lat="46.03509" lon="2.39434">
        <ele>620.67</ele>
        <time>2022-07-23T12:10:01Z</time>
      </trkpt>
      <trkpt lat="46.03479" lon="2.39429">
        <ele>620.67</ele>
        <time>2022-07-23T12:10:26Z</time>
      </trkpt>
      <trkpt lat="46.03452" lon="2.39423">
        <ele>620.67</ele>
        <time>2022-07-23T12:10:49Z</time>
      </trkpt>
      <trkpt lat="46.03435" lon="2.3942">
        <ele>619.23</ele>
        <time>2022-07-23T12:11:10Z</time>
      </trkpt>
      <trkpt lat="46.03435" lon="2.39422">
        <ele>619.71</ele>
        <time>2022-07-23T12:11:33Z</time>
      </trkpt>
      <trkpt lat="46.03413" lon="2.39415">
        <ele>618.75</ele>
        <time>2022-07-23T12:11:51Z</time>
      </trkpt>
      <trkpt lat="46.03388" lon="2.394">
        <ele>614.9</ele>
        <time>2022-07-23T12:12:14Z</time>
      </trkpt>
      <trkpt lat="46.03384" lon="2.39393">
        <ele>613.94</ele>
        <time>2022-07-23T12:12:27Z</time>
      </trkpt>
      <trkpt lat="46.03381" lon="2.39394">
        <ele>614.9</ele>
        <time>2022-07-23T12:12:47Z</time>
      </trkpt>
      <trkpt lat="46.03376" lon="2.39392">
        <ele>615.38</ele>
        <time>2022-07-23T12:12:51Z</time>
      </trkpt>
      <trkpt lat="46.03355" lon="2.39375">
        <ele>614.42</ele>
        <time>2022-07-23T12:13:10Z</time>
      </trkpt>
      <trkpt lat="46.03328" lon="2.39354">
        <ele>613.94</ele>
        <time>2022-07-23T12:13:34Z</time>
      </trkpt>
      <trkpt lat="46.03302" lon="2.39333">
        <ele>613.94</ele>
        <time>2022-07-23T12:13:58Z</time>
      </trkpt>
      <trkpt lat="46.0328" lon="2.39314">
        <ele>615.38</ele>
        <time>2022-07-23T12:14:19Z</time>
      </trkpt>
      <trkpt lat="46.0326" lon="2.39298">
        <ele>614.9</ele>
        <time>2022-07-23T12:14:37Z</time>
      </trkpt>
      <trkpt lat="46.03245" lon="2.39274">
        <ele>614.9</ele>
        <time>2022-07-23T12:14:56Z</time>
      </trkpt>
      <trkpt lat="46.03236" lon="2.39253">
        <ele>614.9</ele>
        <time>2022-07-23T12:15:12Z</time>
      </trkpt>
      <trkpt lat="46.03223" lon="2.39223">
        <ele>615.86</ele>
        <time>2022-07-23T12:15:32Z</time>
      </trkpt>
      <trkpt lat="46.0321" lon="2.392">
        <ele>614.42</ele>
        <time>2022-07-23T12:15:49Z</time>
      </trkpt>
      <trkpt lat="46.03197" lon="2.39172">
        <ele>613.46</ele>
        <time>2022-07-23T12:16:08Z</time>
      </trkpt>
      <trkpt lat="46.03188" lon="2.39145">
        <ele>612.02</ele>
        <time>2022-07-23T12:16:26Z</time>
      </trkpt>
      <trkpt lat="46.0318" lon="2.39115">
        <ele>610.09</ele>
        <time>2022-07-23T12:16:45Z</time>
      </trkpt>
      <trkpt lat="46.03175" lon="2.39099">
        <ele>608.65</ele>
        <time>2022-07-23T12:16:58Z</time>
      </trkpt>
      <trkpt lat="46.03167" lon="2.39075">
        <ele>608.17</ele>
        <time>2022-07-23T12:17:13Z</time>
      </trkpt>
      <trkpt lat="46.03157" lon="2.39051">
        <ele>608.17</ele>
        <time>2022-07-23T12:17:29Z</time>
      </trkpt>
      <trkpt lat="46.03147" lon="2.39032">
        <ele>605.29</ele>
        <time>2022-07-23T12:17:45Z</time>
      </trkpt>
      <trkpt lat="46.03136" lon="2.39012">
        <ele>602.4</ele>
        <time>2022-07-23T12:18:01Z</time>
      </trkpt>
      <trkpt lat="46.03129" lon="2.38987">
        <ele>600</ele>
        <time>2022-07-23T12:18:17Z</time>
      </trkpt>
      <trkpt lat="46.03126" lon="2.38965">
        <ele>598.56</ele>
        <time>2022-07-23T12:18:30Z</time>
      </trkpt>
      <trkpt lat="46.0313" lon="2.38951">
        <ele>595.67</ele>
        <time>2022-07-23T12:18:40Z</time>
      </trkpt>
      <trkpt lat="46.03134" lon="2.38944">
        <ele>594.71</ele>
        <time>2022-07-23T12:18:46Z</time>
      </trkpt>
      <trkpt lat="46.03147" lon="2.38931">
        <ele>592.79</ele>
        <time>2022-07-23T12:19:01Z</time>
      </trkpt>
      <trkpt lat="46.03154" lon="2.3892">
        <ele>588.95</ele>
        <time>2022-07-23T12:19:12Z</time>
      </trkpt>
      <trkpt lat="46.03152" lon="2.38896">
        <ele>588.46</ele>
        <time>2022-07-23T12:19:28Z</time>
      </trkpt>
      <trkpt lat="46.03152" lon="2.38868">
        <ele>588.46</ele>
        <time>2022-07-23T12:19:45Z</time>
      </trkpt>
      <trkpt lat="46.03143" lon="2.38842">
        <ele>588.46</ele>
        <time>2022-07-23T12:20:03Z</time>
      </trkpt>
      <trkpt lat="46.03133" lon="2.38824">
        <ele>587.98</ele>
        <time>2022-07-23T12:20:16Z</time>
      </trkpt>
      <trkpt lat="46.03124" lon="2.38809">
        <ele>588.95</ele>
        <time>2022-07-23T12:20:30Z</time>
      </trkpt>
      <trkpt lat="46.03102" lon="2.38813">
        <ele>589.43</ele>
        <time>2022-07-23T12:20:50Z</time>
      </trkpt>
      <trkpt lat="46.03085" lon="2.38816">
        <ele>589.91</ele>
        <time>2022-07-23T12:21:04Z</time>
      </trkpt>
      <trkpt lat="46.03065" lon="2.38819">
        <ele>591.35</ele>
        <time>2022-07-23T12:21:22Z</time>
      </trkpt>
      <trkpt lat="46.03063" lon="2.38819">
        <ele>591.83</ele>
        <time>2022-07-23T12:21:24Z</time>
      </trkpt>
      <trkpt lat="46.03042" lon="2.38826">
        <ele>593.75</ele>
        <time>2022-07-23T12:21:41Z</time>
      </trkpt>
      <trkpt lat="46.03028" lon="2.38835">
        <ele>595.67</ele>
        <time>2022-07-23T12:21:56Z</time>
      </trkpt>
      <trkpt lat="46.03025" lon="2.38837">
        <ele>597.12</ele>
        <time>2022-07-23T12:22:14Z</time>
      </trkpt>
      <trkpt lat="46.03023" lon="2.38835">
        <ele>597.6</ele>
        <time>2022-07-23T12:22:26Z</time>
      </trkpt>
      <trkpt lat="46.02999" lon="2.38837">
        <ele>597.12</ele>
        <time>2022-07-23T12:22:47Z</time>
      </trkpt>
      <trkpt lat="46.02983" lon="2.38838">
        <ele>593.27</ele>
        <time>2022-07-23T12:23:02Z</time>
      </trkpt>
      <trkpt lat="46.02962" lon="2.38845">
        <ele>590.87</ele>
        <time>2022-07-23T12:23:20Z</time>
      </trkpt>
      <trkpt lat="46.02943" lon="2.38849">
        <ele>587.98</ele>
        <time>2022-07-23T12:23:38Z</time>
      </trkpt>
      <trkpt lat="46.02931" lon="2.38853">
        <ele>586.06</ele>
        <time>2022-07-23T12:23:51Z</time>
      </trkpt>
      <trkpt lat="46.02929" lon="2.38859">
        <ele>586.06</ele>
        <time>2022-07-23T12:24:06Z</time>
      </trkpt>
      <trkpt lat="46.02926" lon="2.38868">
        <ele>585.58</ele>
        <time>2022-07-23T12:24:23Z</time>
      </trkpt>
      <trkpt lat="46.02916" lon="2.38878">
        <ele>586.54</ele>
        <time>2022-07-23T12:24:38Z</time>
      </trkpt>
      <trkpt lat="46.02914" lon="2.38874">
        <ele>586.06</ele>
        <time>2022-07-23T12:24:59Z</time>
      </trkpt>
      <trkpt lat="46.02914" lon="2.38869">
        <ele>587.98</ele>
        <time>2022-07-23T12:25:31Z</time>
      </trkpt>
      <trkpt lat="46.02916" lon="2.38864">
        <ele>591.35</ele>
        <time>2022-07-23T12:26:05Z</time>
      </trkpt>
      <trkpt lat="46.02916" lon="2.38869">
        <ele>586.54</ele>
        <time>2022-07-23T12:26:40Z</time>
      </trkpt>
      <trkpt lat="46.02913" lon="2.38867">
        <ele>587.98</ele>
        <time>2022-07-23T12:27:13Z</time>
      </trkpt>
      <trkpt lat="46.02912" lon="2.38867">
        <ele>587.98</ele>
        <time>2022-07-23T12:27:14Z</time>
      </trkpt>
      <trkpt lat="46.029" lon="2.38861">
        <ele>586.54</ele>
        <time>2022-07-23T12:27:31Z</time>
      </trkpt>
      <trkpt lat="46.02902" lon="2.38863">
        <ele>586.06</ele>
        <time>2022-07-23T12:27:39Z</time>
      </trkpt>
      <trkpt lat="46.02914" lon="2.38873">
        <ele>583.66</ele>
        <time>2022-07-23T12:27:51Z</time>
      </trkpt>
      <trkpt lat="46.02919" lon="2.38872">
        <ele>583.66</ele>
        <time>2022-07-23T12:27:55Z</time>
      </trkpt>
      <trkpt lat="46.02923" lon="2.3887">
        <ele>583.66</ele>
        <time>2022-07-23T12:27:58Z</time>
      </trkpt>
      <trkpt lat="46.02922" lon="2.38844">
        <ele>583.18</ele>
        <time>2022-07-23T12:28:16Z</time>
      </trkpt>
      <trkpt lat="46.02911" lon="2.38823">
        <ele>580.29</ele>
        <time>2022-07-23T12:28:32Z</time>
      </trkpt>
      <trkpt lat="46.0291" lon="2.38818">
        <ele>579.33</ele>
        <time>2022-07-23T12:28:36Z</time>
      </trkpt>
      <trkpt lat="46.02908" lon="2.38812">
        <ele>578.37</ele>
        <time>2022-07-23T12:28:40Z</time>
      </trkpt>
      <trkpt lat="46.02902" lon="2.3879">
        <ele>576.45</ele>
        <time>2022-07-23T12:28:54Z</time>
      </trkpt>
      <trkpt lat="46.02899" lon="2.38763">
        <ele>576.45</ele>
        <time>2022-07-23T12:29:10Z</time>
      </trkpt>
      <trkpt lat="46.02896" lon="2.38737">
        <ele>575.01</ele>
        <time>2022-07-23T12:29:25Z</time>
      </trkpt>
      <trkpt lat="46.02895" lon="2.38726">
        <ele>575.97</ele>
        <time>2022-07-23T12:29:30Z</time>
      </trkpt>
      <trkpt lat="46.02895" lon="2.38714">
        <ele>576.93</ele>
        <time>2022-07-23T12:29:36Z</time>
      </trkpt>
      <trkpt lat="46.02894" lon="2.38699">
        <ele>578.85</ele>
        <time>2022-07-23T12:29:52Z</time>
      </trkpt>
      <trkpt lat="46.02898" lon="2.38674">
        <ele>576.93</ele>
        <time>2022-07-23T12:30:07Z</time>
      </trkpt>
      <trkpt lat="46.029" lon="2.38661">
        <ele>577.41</ele>
        <time>2022-07-23T12:30:17Z</time>
      </trkpt>
      <trkpt lat="46.029" lon="2.38647">
        <ele>578.37</ele>
        <time>2022-07-23T12:30:25Z</time>
      </trkpt>
      <trkpt lat="46.02903" lon="2.38622">
        <ele>574.53</ele>
        <time>2022-07-23T12:30:39Z</time>
      </trkpt>
      <trkpt lat="46.02911" lon="2.38599">
        <ele>569.72</ele>
        <time>2022-07-23T12:30:54Z</time>
      </trkpt>
      <trkpt lat="46.02926" lon="2.38586">
        <ele>566.83</ele>
        <time>2022-07-23T12:31:10Z</time>
      </trkpt>
      <trkpt lat="46.02934" lon="2.38579">
        <ele>565.87</ele>
        <time>2022-07-23T12:31:17Z</time>
      </trkpt>
      <trkpt lat="46.02941" lon="2.3857">
        <ele>563.47</ele>
        <time>2022-07-23T12:31:26Z</time>
      </trkpt>
      <trkpt lat="46.02943" lon="2.38567">
        <ele>562.51</ele>
        <time>2022-07-23T12:31:28Z</time>
      </trkpt>
      <trkpt lat="46.02946" lon="2.38561">
        <ele>561.07</ele>
        <time>2022-07-23T12:31:33Z</time>
      </trkpt>
      <trkpt lat="46.02949" lon="2.38557">
        <ele>560.59</ele>
        <time>2022-07-23T12:31:37Z</time>
      </trkpt>
      <trkpt lat="46.02962" lon="2.38534">
        <ele>560.59</ele>
        <time>2022-07-23T12:31:53Z</time>
      </trkpt>
      <trkpt lat="46.02972" lon="2.38509">
        <ele>559.62</ele>
        <time>2022-07-23T12:32:11Z</time>
      </trkpt>
      <trkpt lat="46.02975" lon="2.38505">
        <ele>560.11</ele>
        <time>2022-07-23T12:32:15Z</time>
      </trkpt>
      <trkpt lat="46.02981" lon="2.38496">
        <ele>558.18</ele>
        <time>2022-07-23T12:32:24Z</time>
      </trkpt>
      <trkpt lat="46.02992" lon="2.38475">
        <ele>555.78</ele>
        <time>2022-07-23T12:32:40Z</time>
      </trkpt>
      <trkpt lat="46.02998" lon="2.38456">
        <ele>552.41</ele>
        <time>2022-07-23T12:32:55Z</time>
      </trkpt>
      <trkpt lat="46.03" lon="2.38451">
        <ele>551.93</ele>
        <time>2022-07-23T12:32:59Z</time>
      </trkpt>
      <trkpt lat="46.03002" lon="2.38428">
        <ele>549.53</ele>
        <time>2022-07-23T12:33:11Z</time>
      </trkpt>
      <trkpt lat="46.03002" lon="2.38414">
        <ele>547.61</ele>
        <time>2022-07-23T12:33:19Z</time>
      </trkpt>
      <trkpt lat="46.02997" lon="2.38389">
        <ele>546.17</ele>
        <time>2022-07-23T12:33:34Z</time>
      </trkpt>
      <trkpt lat="46.0299" lon="2.38366">
        <ele>546.65</ele>
        <time>2022-07-23T12:33:48Z</time>
      </trkpt>
      <trkpt lat="46.02983" lon="2.38344">
        <ele>548.09</ele>
        <time>2022-07-23T12:34:03Z</time>
      </trkpt>
      <trkpt lat="46.02973" lon="2.3832">
        <ele>553.38</ele>
        <time>2022-07-23T12:34:19Z</time>
      </trkpt>
      <trkpt lat="46.02962" lon="2.38295">
        <ele>559.62</ele>
        <time>2022-07-23T12:34:36Z</time>
      </trkpt>
      <trkpt lat="46.02954" lon="2.38274">
        <ele>563.95</ele>
        <time>2022-07-23T12:34:51Z</time>
      </trkpt>
      <trkpt lat="46.02948" lon="2.38252">
        <ele>561.55</ele>
        <time>2022-07-23T12:35:06Z</time>
      </trkpt>
      <trkpt lat="46.02942" lon="2.38234">
        <ele>562.03</ele>
        <time>2022-07-23T12:35:19Z</time>
      </trkpt>
      <trkpt lat="46.02928" lon="2.38212">
        <ele>561.55</ele>
        <time>2022-07-23T12:35:35Z</time>
      </trkpt>
      <trkpt lat="46.02917" lon="2.38198">
        <ele>559.14</ele>
        <time>2022-07-23T12:35:50Z</time>
      </trkpt>
      <trkpt lat="46.0291" lon="2.38178">
        <ele>558.66</ele>
        <time>2022-07-23T12:36:04Z</time>
      </trkpt>
      <trkpt lat="46.02905" lon="2.38153">
        <ele>559.14</ele>
        <time>2022-07-23T12:36:19Z</time>
      </trkpt>
      <trkpt lat="46.029" lon="2.38131">
        <ele>557.7</ele>
        <time>2022-07-23T12:36:33Z</time>
      </trkpt>
      <trkpt lat="46.02894" lon="2.38112">
        <ele>555.78</ele>
        <time>2022-07-23T12:36:47Z</time>
      </trkpt>
      <trkpt lat="46.02888" lon="2.38095">
        <ele>554.82</ele>
        <time>2022-07-23T12:37:01Z</time>
      </trkpt>
      <trkpt lat="46.02882" lon="2.38077">
        <ele>552.41</ele>
        <time>2022-07-23T12:37:16Z</time>
      </trkpt>
      <trkpt lat="46.02876" lon="2.38039">
        <ele>552.9</ele>
        <time>2022-07-23T12:37:33Z</time>
      </trkpt>
      <trkpt lat="46.02865" lon="2.38012">
        <ele>552.41</ele>
        <time>2022-07-23T12:37:51Z</time>
      </trkpt>
      <trkpt lat="46.02853" lon="2.37985">
        <ele>551.45</ele>
        <time>2022-07-23T12:38:10Z</time>
      </trkpt>
      <trkpt lat="46.02843" lon="2.37958">
        <ele>550.97</ele>
        <time>2022-07-23T12:38:27Z</time>
      </trkpt>
      <trkpt lat="46.02837" lon="2.37931">
        <ele>550.97</ele>
        <time>2022-07-23T12:38:46Z</time>
      </trkpt>
      <trkpt lat="46.02829" lon="2.37911">
        <ele>547.61</ele>
        <time>2022-07-23T12:39:02Z</time>
      </trkpt>
      <trkpt lat="46.02822" lon="2.37895">
        <ele>544.24</ele>
        <time>2022-07-23T12:39:16Z</time>
      </trkpt>
      <trkpt lat="46.02815" lon="2.37878">
        <ele>540.88</ele>
        <time>2022-07-23T12:39:32Z</time>
      </trkpt>
      <trkpt lat="46.02805" lon="2.37866">
        <ele>538.48</ele>
        <time>2022-07-23T12:39:48Z</time>
      </trkpt>
      <trkpt lat="46.02802" lon="2.37863">
        <ele>537.99</ele>
        <time>2022-07-23T12:39:51Z</time>
      </trkpt>
      <trkpt lat="46.02785" lon="2.37846">
        <ele>537.03</ele>
        <time>2022-07-23T12:40:06Z</time>
      </trkpt>
      <trkpt lat="46.02768" lon="2.37837">
        <ele>535.11</ele>
        <time>2022-07-23T12:40:22Z</time>
      </trkpt>
      <trkpt lat="46.02752" lon="2.37828">
        <ele>530.3</ele>
        <time>2022-07-23T12:40:37Z</time>
      </trkpt>
      <trkpt lat="46.02749" lon="2.37827">
        <ele>530.3</ele>
        <time>2022-07-23T12:40:39Z</time>
      </trkpt>
      <trkpt lat="46.02729" lon="2.37814">
        <ele>531.27</ele>
        <time>2022-07-23T12:40:56Z</time>
      </trkpt>
      <trkpt lat="46.02713" lon="2.37808">
        <ele>527.9</ele>
        <time>2022-07-23T12:41:12Z</time>
      </trkpt>
      <trkpt lat="46.02695" lon="2.37801">
        <ele>524.54</ele>
        <time>2022-07-23T12:41:27Z</time>
      </trkpt>
      <trkpt lat="46.02688" lon="2.37797">
        <ele>526.46</ele>
        <time>2022-07-23T12:41:41Z</time>
      </trkpt>
      <trkpt lat="46.02677" lon="2.37791">
        <ele>527.9</ele>
        <time>2022-07-23T12:41:56Z</time>
      </trkpt>
      <trkpt lat="46.02662" lon="2.3779">
        <ele>525.02</ele>
        <time>2022-07-23T12:42:10Z</time>
      </trkpt>
      <trkpt lat="46.02646" lon="2.37788">
        <ele>520.69</ele>
        <time>2022-07-23T12:42:27Z</time>
      </trkpt>
      <trkpt lat="46.02643" lon="2.37783">
        <ele>520.69</ele>
        <time>2022-07-23T12:42:32Z</time>
      </trkpt>
      <trkpt lat="46.02641" lon="2.37773">
        <ele>520.21</ele>
        <time>2022-07-23T12:42:39Z</time>
      </trkpt>
      <trkpt lat="46.02653" lon="2.3776">
        <ele>518.77</ele>
        <time>2022-07-23T12:42:56Z</time>
      </trkpt>
      <trkpt lat="46.02664" lon="2.37759">
        <ele>519.25</ele>
        <time>2022-07-23T12:43:08Z</time>
      </trkpt>
      <trkpt lat="46.02685" lon="2.37761">
        <ele>521.17</ele>
        <time>2022-07-23T12:43:25Z</time>
      </trkpt>
      <trkpt lat="46.02699" lon="2.37762">
        <ele>522.61</ele>
        <time>2022-07-23T12:43:36Z</time>
      </trkpt>
      <trkpt lat="46.02713" lon="2.37744">
        <ele>521.65</ele>
        <time>2022-07-23T12:43:52Z</time>
      </trkpt>
      <trkpt lat="46.02716" lon="2.37719">
        <ele>523.09</ele>
        <time>2022-07-23T12:44:09Z</time>
      </trkpt>
      <trkpt lat="46.02715" lon="2.37711">
        <ele>524.06</ele>
        <time>2022-07-23T12:44:15Z</time>
      </trkpt>
      <trkpt lat="46.02713" lon="2.37695">
        <ele>525.98</ele>
        <time>2022-07-23T12:44:28Z</time>
      </trkpt>
      <trkpt lat="46.02712" lon="2.37693">
        <ele>526.46</ele>
        <time>2022-07-23T12:44:30Z</time>
      </trkpt>
      <trkpt lat="46.0271" lon="2.37684">
        <ele>528.38</ele>
        <time>2022-07-23T12:44:38Z</time>
      </trkpt>
      <trkpt lat="46.02693" lon="2.37665">
        <ele>530.79</ele>
        <time>2022-07-23T12:44:56Z</time>
      </trkpt>
      <trkpt lat="46.02685" lon="2.37638">
        <ele>528.86</ele>
        <time>2022-07-23T12:45:13Z</time>
      </trkpt>
      <trkpt lat="46.02687" lon="2.3763">
        <ele>529.82</ele>
        <time>2022-07-23T12:45:20Z</time>
      </trkpt>
      <trkpt lat="46.02698" lon="2.37609">
        <ele>524.54</ele>
        <time>2022-07-23T12:45:38Z</time>
      </trkpt>
      <trkpt lat="46.02703" lon="2.37586">
        <ele>520.21</ele>
        <time>2022-07-23T12:45:54Z</time>
      </trkpt>
      <trkpt lat="46.02704" lon="2.37578">
        <ele>520.21</ele>
        <time>2022-07-23T12:45:59Z</time>
      </trkpt>
      <trkpt lat="46.02705" lon="2.37554">
        <ele>517.81</ele>
        <time>2022-07-23T12:46:16Z</time>
      </trkpt>
      <trkpt lat="46.02705" lon="2.37534">
        <ele>517.33</ele>
        <time>2022-07-23T12:46:30Z</time>
      </trkpt>
      <trkpt lat="46.02702" lon="2.37506">
        <ele>516.37</ele>
        <time>2022-07-23T12:46:46Z</time>
      </trkpt>
      <trkpt lat="46.02698" lon="2.37478">
        <ele>516.85</ele>
        <time>2022-07-23T12:47:04Z</time>
      </trkpt>
      <trkpt lat="46.02688" lon="2.3745">
        <ele>516.85</ele>
        <time>2022-07-23T12:47:20Z</time>
      </trkpt>
      <trkpt lat="46.0268" lon="2.37434">
        <ele>515.4</ele>
        <time>2022-07-23T12:47:35Z</time>
      </trkpt>
      <trkpt lat="46.02669" lon="2.37412">
        <ele>515.4</ele>
        <time>2022-07-23T12:47:52Z</time>
      </trkpt>
      <trkpt lat="46.02658" lon="2.37391">
        <ele>516.37</ele>
        <time>2022-07-23T12:48:08Z</time>
      </trkpt>
      <trkpt lat="46.02648" lon="2.37368">
        <ele>516.37</ele>
        <time>2022-07-23T12:48:24Z</time>
      </trkpt>
      <trkpt lat="46.0264" lon="2.37341">
        <ele>516.37</ele>
        <time>2022-07-23T12:48:41Z</time>
      </trkpt>
      <trkpt lat="46.02632" lon="2.37319">
        <ele>516.85</ele>
        <time>2022-07-23T12:48:55Z</time>
      </trkpt>
      <trkpt lat="46.0262" lon="2.3729">
        <ele>516.85</ele>
        <time>2022-07-23T12:49:12Z</time>
      </trkpt>
      <trkpt lat="46.02609" lon="2.3727">
        <ele>516.85</ele>
        <time>2022-07-23T12:49:28Z</time>
      </trkpt>
      <trkpt lat="46.02599" lon="2.37249">
        <ele>516.85</ele>
        <time>2022-07-23T12:49:44Z</time>
      </trkpt>
      <trkpt lat="46.02586" lon="2.37227">
        <ele>517.33</ele>
        <time>2022-07-23T12:50:00Z</time>
      </trkpt>
      <trkpt lat="46.02576" lon="2.37205">
        <ele>520.21</ele>
        <time>2022-07-23T12:50:17Z</time>
      </trkpt>
      <trkpt lat="46.02567" lon="2.37186">
        <ele>521.65</ele>
        <time>2022-07-23T12:50:34Z</time>
      </trkpt>
      <trkpt lat="46.02557" lon="2.37167">
        <ele>522.61</ele>
        <time>2022-07-23T12:50:49Z</time>
      </trkpt>
      <trkpt lat="46.02537" lon="2.37157">
        <ele>519.25</ele>
        <time>2022-07-23T12:51:08Z</time>
      </trkpt>
      <trkpt lat="46.02518" lon="2.37149">
        <ele>517.33</ele>
        <time>2022-07-23T12:51:22Z</time>
      </trkpt>
      <trkpt lat="46.02501" lon="2.37146">
        <ele>514.92</ele>
        <time>2022-07-23T12:51:38Z</time>
      </trkpt>
      <trkpt lat="46.02482" lon="2.37158">
        <ele>512.04</ele>
        <time>2022-07-23T12:51:56Z</time>
      </trkpt>
      <trkpt lat="46.02471" lon="2.37171">
        <ele>509.64</ele>
        <time>2022-07-23T12:52:11Z</time>
      </trkpt>
      <trkpt lat="46.02469" lon="2.37173">
        <ele>509.16</ele>
        <time>2022-07-23T12:52:14Z</time>
      </trkpt>
      <trkpt lat="46.02469" lon="2.3717">
        <ele>509.16</ele>
        <time>2022-07-23T12:52:25Z</time>
      </trkpt>
      <trkpt lat="46.02468" lon="2.37166">
        <ele>508.67</ele>
        <time>2022-07-23T12:52:39Z</time>
      </trkpt>
      <trkpt lat="46.02469" lon="2.37165">
        <ele>509.16</ele>
        <time>2022-07-23T12:52:57Z</time>
      </trkpt>
      <trkpt lat="46.02469" lon="2.37165">
        <ele>509.64</ele>
        <time>2022-07-23T12:53:15Z</time>
      </trkpt>
      <trkpt lat="46.02468" lon="2.37164">
        <ele>511.56</ele>
        <time>2022-07-23T12:53:29Z</time>
      </trkpt>
      <trkpt lat="46.02469" lon="2.37165">
        <ele>511.56</ele>
        <time>2022-07-23T12:53:46Z</time>
      </trkpt>
    </trkseg>
  </trk>
</gpx>